[[{"header":{"parameterUnit":"m.s-1","parameterCategory":1,"la1":30.6,"la2":28.766,"lo1":-90.7593,"lo2":-88.6598,"dy":0.0162,"dx":0.0183,"nx":116,"ny":114,"refTime":"2023-10-27T06:00:00:Z","depth":0,"parameterNumber":2,"parameterNumberName":"U-component_of_WINDS"},"data":[0.0,0.0,0.0,0.0,0.0,0.0,0.0,0.0,0.0,0.0,0.0,0.0,0.0,0.0,0.0,0.0,0.0,0.0,0.0,0.0,0.0,0.0,0.0,0.0,0.0,0.0,0.0,0.0,0.0,0.0,0.0,0.0,0.0,0.0,0.0,0.0,0.0,0.0,0.0,0.0,0.0,0.0,0.0,0.0,0.0,0.0,0.0,0.0,0.0,0.0,0.0,0.0,0.0,0.0,0.0,0.0,0.0,0.0,0.0,0.0,0.0,0.0,0.0,0.0,0.0,0.0,0.0,0.0,0.0,0.0,0.0,0.0,0.0,0.0,0.0,0.0,0.0,0.0,0.0,0.0,0.0,0.0,0.0,0.0,0.0,0.0,0.0,0.0,0.0,0.0,0.0,0.0,0.0,0.0,0.0,0.0,0.0,0.0,0.0,0.0,0.0,0.0,0.0,0.0,0.0,0.0,0.0,0.0,0.0,0.0,0.0,0.0,0.0,0.0,0.0,0.0,0.0,0.0,0.0,0.0,0.0,0.0,0.0,0.0,0.0,0.0,0.0,0.0,0.0,0.0,0.0,0.0,0.0,0.0,0.0,0.0,0.0,0.0,0.0,0.0,0.0,0.0,0.0,0.0,0.0,0.0,0.0,0.0,0.0,0.0,0.0,0.0,0.0,0.0,0.0,0.0,0.0,0.0,0.0,0.0,0.0,0.0,0.0,0.0,0.0,0.0,0.0,0.0,0.0,0.0,0.0,0.0,0.0,0.0,0.0,0.0,0.0,0.0,0.0,0.0,0.0,0.0,0.0,0.0,0.0,0.0,0.0,0.0,0.0,0.0,0.0,0.0,0.0,0.0,0.0,0.0,0.0,0.0,0.0,0.0,0.0,0.0,0.0,0.0,0.0,0.0,0.0,0.0,0.0,0.0,0.0,0.0,0.0,0.0,0.0,0.0,0.0,0.0,0.0,0.0,0.0,0.0,0.0,0.0,0.0,0.0,0.0,0.0,0.0,0.0,0.0,0.0,0.0,0.0,0.0,0.0,0.0,0.0,0.0,0.0,0.0,0.0,0.0,0.0,0.0,0.0,0.0,0.0,0.0,0.0,0.0,0.0,0.0,0.0,0.0,0.0,0.0,0.0,0.0,0.0,0.0,0.0,0.0,0.0,0.0,0.0,0.0,0.0,0.0,0.0,0.0,0.0,0.0,0.0,0.0,0.0,0.0,0.0,0.0,0.0,0.0,0.0,0.0,0.0,0.0,0.0,0.0,0.0,0.0,0.0,0.0,0.0,0.0,0.0,0.0,0.0,0.0,0.0,0.0,0.0,0.0,0.0,0.0,0.0,0.0,0.0,0.0,0.0,0.0,0.0,0.0,0.0,0.0,0.0,0.0,0.0,0.0,0.0,0.0,0.0,0.0,0.0,0.0,0.0,0.0,0.0,0.0,0.0,0.0,0.0,0.0,0.0,0.0,0.0,0.0,0.0,0.0,0.0,0.0,0.0,0.0,0.0,0.0,0.0,0.0,0.0,0.0,0.0,0.0,0.0,0.0,0.0,0.0,0.0,0.0,0.0,0.0,0.0,0.0,0.0,0.0,0.0,0.0,0.0,0.0,0.0,0.0,0.0,0.0,0.0,0.0,0.0,0.0,0.0,0.0,0.0,0.0,0.0,0.0,0.0,0.0,0.0,0.0,0.0,0.0,0.0,0.0,0.0,0.0,0.0,0.0,0.0,0.0,0.0,0.0,0.0,0.0,0.0,0.0,0.0,0.0,0.0,0.0,0.0,0.0,0.0,0.0,0.0,0.0,0.0,0.0,0.0,0.0,0.0,0.0,0.0,0.0,0.0,0.0,0.0,0.0,0.0,0.0,0.0,0.0,0.0,0.0,0.0,0.0,0.0,0.0,0.0,0.0,0.0,0.0,0.0,0.0,0.0,0.0,0.0,0.0,0.0,0.0,0.0,0.0,0.0,0.0,0.0,0.0,0.0,0.0,0.0,0.0,0.0,0.0,0.0,0.0,0.0,0.0,0.0,0.0,0.0,0.0,0.0,0.0,0.0,0.0,0.0,0.0,0.0,0.0,0.0,0.0,0.0,0.0,0.0,0.0,0.0,0.0,0.0,0.0,0.0,0.0,0.0,0.0,0.0,0.0,0.0,0.0,0.0,0.0,0.0,0.0,0.0,0.0,0.0,0.0,0.0,0.0,0.0,0.0,0.0,0.0,0.0,0.0,0.0,0.0,0.0,0.0,0.0,0.0,0.0,0.0,0.0,0.0,0.0,0.0,0.0,0.0,0.0,0.0,0.0,0.0,0.0,0.0,0.0,0.0,0.0,0.0,0.0,0.0,0.0,0.0,0.0,0.0,0.0,0.0,0.0,0.0,0.0,0.0,0.0,0.0,0.0,0.0,0.0,0.0,0.0,0.0,0.0,0.0,0.0,0.0,0.0,0.0,0.0,0.0,0.0,0.0,0.0,0.0,0.0,0.0,0.0,0.0,0.0,0.0,0.0,0.0,0.0,0.0,0.0,0.0,0.0,0.0,0.0,0.0,0.0,0.0,0.0,0.0,0.0,0.0,0.0,0.0,0.0,0.0,0.0,0.0,0.0,0.0,0.0,0.0,0.0,0.0,0.0,0.0,0.0,0.0,0.0,0.0,0.0,0.0,0.0,0.0,0.0,0.0,0.0,0.0,0.0,0.0,0.0,0.0,0.0,0.0,0.0,0.0,0.0,0.0,0.0,0.0,0.0,0.0,0.0,0.0,0.0,0.0,0.0,0.0,0.0,0.0,0.0,0.0,0.0,0.0,0.0,0.0,0.0,0.0,0.0,0.0,0.0,0.0,0.0,0.0,0.0,0.0,0.0,0.0,0.0,0.0,0.0,0.0,0.0,0.0,0.0,0.0,0.0,0.0,0.0,0.0,0.0,0.0,0.0,0.0,0.0,0.0,0.0,0.0,0.0,0.0,0.0,0.0,0.0,0.0,0.0,0.0,0.0,0.0,0.0,0.0,0.0,0.0,0.0,0.0,0.0,0.0,0.0,0.0,0.0,0.0,0.0,0.0,0.0,0.0,0.0,0.0,0.0,0.0,0.0,0.0,0.0,0.0,0.0,0.0,0.0,0.0,0.0,0.0,0.0,0.0,0.0,0.0,0.0,0.0,0.0,0.0,0.0,0.0,0.0,0.0,0.0,0.0,0.0,0.0,0.0,0.0,0.0,0.0,0.0,0.0,0.0,0.0,0.0,0.0,0.0,0.0,0.0,0.0,0.0,0.0,0.0,0.0,0.0,0.0,0.0,0.0,0.0,0.0,0.0,0.0,0.0,0.0,0.0,0.0,0.0,0.0,0.0,0.0,0.0,0.0,0.0,0.0,0.0,0.0,0.0,0.0,0.0,0.0,0.0,0.0,0.0,0.0,0.0,0.0,0.0,0.0,0.0,0.0,0.0,0.0,0.0,0.0,0.0,0.0,0.0,0.0,0.0,0.0,0.0,0.0,0.0,0.0,0.0,0.0,0.0,0.0,0.0,0.0,0.0,0.0,0.0,0.0,0.0,0.0,0.0,0.0,0.0,0.0,0.0,0.0,0.0,0.0,0.0,0.0,0.0,0.0,0.0,0.0,0.0,0.0,0.0,0.0,0.0,0.0,0.0,0.0,0.0,0.0,0.0,0.0,0.0,0.0,0.0,0.0,0.0,0.0,0.0,0.0,0.0,0.0,0.0,0.0,0.0,0.0,0.0,0.0,0.0,0.0,0.0,0.0,0.0,0.0,0.0,0.0,0.0,0.0,0.0,0.0,0.0,0.0,0.0,0.0,0.0,0.0,0.0,0.0,0.0,0.0,0.0,0.0,0.0,0.0,0.0,0.0,0.0,0.0,0.0,0.0,0.0,0.0,0.0,0.0,0.0,0.0,0.0,0.0,0.0,0.0,0.0,0.0,0.0,0.0,0.0,0.0,0.0,0.0,0.0,0.0,0.0,0.0,0.0,0.0,0.0,0.0,0.0,0.0,0.0,0.0,0.0,0.0,0.0,0.0,0.0,0.0,0.0,0.0,0.0,0.0,0.0,0.0,0.0,0.0,0.0,0.0,0.0,0.0,0.0,0.0,0.0,0.0,0.0,0.0,0.0,0.0,0.0,0.0,0.0,0.0,0.0,0.0,0.0,0.0,0.0,0.0,0.0,0.0,0.0,0.0,0.0,0.0,0.0,0.0,0.0,0.0,0.0,0.0,0.0,0.0,0.0,0.0,0.0,0.0,0.0,0.0,0.0,0.0,0.0,0.0,0.0,0.0,0.0,0.0,0.0,0.0,0.0,0.0,0.0,0.0,0.0,0.0,0.0,0.0,0.0,0.0,0.0,0.0,0.0,0.0,0.0,0.0,0.0,0.0,0.0,0.0,0.0,0.0,0.0,0.0,0.0,0.0,0.0,0.0,0.0,0.0,0.0,0.0,0.0,0.0,0.0,0.0,0.0,0.0,0.0,0.0,0.0,0.0,0.0,0.0,0.0,0.0,0.0,0.0,0.0,0.0,0.0,0.0,0.0,0.0,0.0,0.0,0.0,0.0,0.0,0.0,0.0,0.0,0.0,0.0,0.0,0.0,0.0,0.0,0.0,0.0,0.0,0.0,0.0,0.0,0.0,0.0,0.0,0.0,0.0,0.0,0.0,0.0,0.0,0.0,0.0,0.0,0.0,0.0,0.0,0.0,0.0,0.0,0.0,0.0,0.0,0.0,0.0,0.0,0.0,0.0,0.0,0.0,0.0,0.0,0.0,0.0,0.0,0.0,0.0,0.0,0.0,0.0,0.0,0.0,0.0,0.0,0.0,0.0,0.0,0.0,0.0,0.0,0.0,0.0,0.0,0.0,0.0,0.0,0.0,0.0,0.0,0.0,0.0,0.0,0.0,0.0,0.0,0.0,0.0,0.0,0.0,0.0,0.0,0.0,0.0,0.0,0.0,0.0,0.0,0.0,0.0,0.0,0.0,0.0,0.0,0.0,0.0,0.0,0.0,0.0,0.0,0.0,0.0,0.0,0.0,0.0,0.0,0.0,0.0,0.0,0.0,0.0,0.0,0.0,0.0,0.0,0.0,0.0,0.0,0.0,0.0,0.0,0.0,0.0,0.0,0.0,0.0,0.0,0.0,0.0,0.0,0.0,0.0,0.0,0.0,0.0,0.0,0.0,0.0,0.0,0.0,0.0,0.0,0.0,0.0,0.0,0.0,0.0,0.0,0.0,0.0,0.0,0.0,0.0,0.0,0.0,0.0,0.0,0.0,0.0,0.0,0.0,0.0,0.0,0.0,0.0,0.0,0.0,0.0,0.0,0.0,0.0,0.0,0.0,0.0,0.0,0.0,0.0,0.0,0.0,0.0,0.0,0.0,0.0,0.0,0.0,0.0,0.0,0.0,0.0,0.0,0.0,0.0,0.0,0.0,0.0,0.0,0.0,0.0,0.0,0.0,0.0,0.0,0.0,0.0,0.0,0.0,0.0,0.0,0.0,0.0,0.0,0.0,0.0,0.0,0.0,0.0,0.0,0.0,0.0,0.0,0.0,0.0,0.0,0.0,0.0,0.0,0.0,0.0,0.0,0.0,0.0,0.0,0.0,0.0,0.0,0.0,0.0,0.0,0.0,0.0,0.0,0.0,0.0,0.0,0.0,0.0,0.0,0.0,0.0,0.0,0.0,0.0,0.0,0.0,0.0,0.0,0.0,0.0,0.0,0.0,0.0,0.0,0.0,0.0,0.0,0.0,0.0,0.0,0.0,0.0,0.0,0.0,0.0,0.0,0.0,0.0,0.0,0.0,0.0,0.0,0.0,0.0,0.0,0.0,0.0,0.0,0.0,0.0,0.0,0.0,0.0,0.0,0.0,0.0,0.0,0.0,0.0,0.0,0.0,0.0,0.0,0.0,0.0,0.0,0.0,0.0,0.0,0.0,0.0,0.0,0.0,0.0,0.0,0.0,0.0,0.0,0.0,0.0,0.0,0.0,0.0,0.0,0.0,0.0,0.0,0.0,0.0,0.0,0.0,0.0,0.0,0.0,0.0,0.0,0.0,0.0,0.0,0.0,0.0,0.0,0.0,0.0,0.0,0.0,-1.8502,-1.8519,0.0,0.0,0.0,0.0,0.0,0.0,0.0,0.0,0.0,0.0,0.0,0.0,0.0,0.0,0.0,0.0,0.0,0.0,0.0,0.0,0.0,0.0,0.0,0.0,0.0,0.0,0.0,0.0,0.0,0.0,0.0,0.0,0.0,0.0,0.0,0.0,0.0,-1.9815,-1.9622,-1.9745,-2.0178,-1.9756,-1.9461,-1.9228,0.0,0.0,0.0,0.0,0.0,0.0,0.0,0.0,0.0,0.0,0.0,0.0,0.0,0.0,0.0,0.0,0.0,0.0,0.0,0.0,0.0,0.0,0.0,0.0,0.0,0.0,0.0,0.0,0.0,0.0,0.0,0.0,0.0,0.0,0.0,0.0,0.0,0.0,0.0,0.0,0.0,0.0,0.0,0.0,0.0,0.0,0.0,0.0,0.0,0.0,0.0,0.0,0.0,0.0,0.0,0.0,0.0,0.0,0.0,0.0,0.0,0.0,0.0,0.0,0.0,0.0,0.0,0.0,0.0,0.0,-1.967,-1.9391,0.0,0.0,0.0,0.0,0.0,0.0,0.0,0.0,0.0,0.0,0.0,0.0,0.0,0.0,0.0,0.0,0.0,0.0,0.0,0.0,0.0,0.0,0.0,-2.0246,-2.025,-2.0321,-2.0122,-2.0057,0.0,0.0,0.0,0.0,0.0,0.0,0.0,-1.9376,-1.967,-2.0426,-2.064,-2.1011,-2.1522,-2.1546,-2.1553,-2.1485,-1.9875,0.0,0.0,0.0,0.0,0.0,0.0,0.0,0.0,0.0,0.0,0.0,0.0,0.0,0.0,0.0,0.0,0.0,0.0,0.0,0.0,0.0,0.0,0.0,0.0,0.0,0.0,0.0,0.0,0.0,0.0,0.0,0.0,0.0,0.0,0.0,0.0,0.0,0.0,0.0,0.0,0.0,0.0,0.0,0.0,0.0,0.0,0.0,0.0,0.0,0.0,0.0,0.0,0.0,0.0,0.0,0.0,0.0,0.0,0.0,0.0,0.0,0.0,0.0,-2.0532,-2.0653,-2.0825,-2.2268,-2.2844,-2.2621,-2.1339,-2.0797,-2.0723,-1.9634,0.0,0.0,0.0,0.0,0.0,0.0,0.0,0.0,0.0,0.0,0.0,0.0,0.0,0.0,0.0,0.0,0.0,0.0,0.0,0.0,0.0,-2.0289,-2.0537,-2.1173,-2.0474,-2.0304,-2.0998,0.0,0.0,0.0,0.0,0.0,-1.9492,-1.9376,-1.959,-2.0147,-2.227,-2.3673,-2.4392,-2.5556,-2.6129,-2.5942,-2.1396,-2.0042,-2.1026,0.0,0.0,0.0,0.0,0.0,0.0,0.0,0.0,0.0,0.0,0.0,0.0,0.0,0.0,0.0,0.0,0.0,0.0,0.0,0.0,0.0,0.0,0.0,0.0,0.0,0.0,0.0,0.0,0.0,0.0,0.0,0.0,0.0,0.0,0.0,0.0,0.0,0.0,0.0,0.0,0.0,-1.9731,-1.9816,0.0,0.0,0.0,0.0,0.0,0.0,0.0,0.0,0.0,0.0,0.0,0.0,0.0,-2.1589,-2.2238,-2.354,-2.3446,-2.2017,-2.3666,-2.4265,-2.3902,-2.4149,-2.4231,-2.4193,-2.4,0.0,-2.1975,-2.0791,0.0,0.0,0.0,0.0,0.0,0.0,0.0,0.0,0.0,0.0,0.0,0.0,0.0,0.0,0.0,0.0,0.0,0.0,0.0,0.0,0.0,-2.056,-2.0721,-2.1194,-2.1617,-2.1565,-2.0853,-2.129,0.0,0.0,0.0,-1.9594,-1.9398,-1.9636,-2.0753,-2.2802,-2.4753,-2.6208,-2.7231,-2.7828,-2.8117,-2.7998,-2.508,-2.3279,-2.2304,-2.0726,0.0,0.0,0.0,0.0,0.0,0.0,0.0,0.0,0.0,0.0,0.0,0.0,0.0,0.0,0.0,0.0,0.0,0.0,0.0,0.0,0.0,0.0,0.0,0.0,0.0,0.0,0.0,0.0,0.0,0.0,0.0,0.0,0.0,0.0,0.0,0.0,0.0,0.0,0.0,-1.9599,-2.0132,-2.0606,-2.0534,-2.0257,0.0,0.0,0.0,0.0,0.0,0.0,0.0,0.0,0.0,-2.3731,-2.4156,-2.4734,-2.5467,-2.5713,-2.548,-2.4754,-2.3956,-2.5214,-2.8265,-2.8265,-2.8273,-2.8184,-2.6672,-2.568,-2.4926,-2.2508,-2.0918,-1.9929,0.0,0.0,0.0,0.0,-1.9319,-1.9569,0.0,0.0,0.0,0.0,0.0,0.0,0.0,0.0,0.0,0.0,0.0,0.0,-2.1023,-2.129,-2.167,-2.2257,-2.2934,-2.2816,-2.1621,-2.2053,-2.1658,-2.0092,-1.99,-1.9785,-1.9689,-2.0749,-2.2687,-2.5461,-2.7324,-2.8784,-2.9856,-3.0042,-3.0144,-3.0091,-2.918,-2.7083,-2.4091,-2.2435,-2.0791,-1.9257,0.0,0.0,0.0,0.0,0.0,0.0,0.0,0.0,0.0,0.0,0.0,0.0,0.0,0.0,0.0,0.0,0.0,0.0,0.0,0.0,0.0,0.0,0.0,0.0,0.0,0.0,0.0,0.0,0.0,0.0,0.0,0.0,0.0,0.0,0.0,0.0,0.0,-2.039,-2.1038,-2.1508,-2.1958,-2.1914,0.0,0.0,0.0,0.0,0.0,0.0,-2.3893,-2.4543,-2.5486,-2.6725,-2.7283,-2.7926,-2.8652,-2.8293,-2.8173,-2.8202,-2.627,-2.7797,-3.2329,-3.2329,-3.234,-3.2178,-2.9482,-2.8334,-2.8105,-2.4388,-2.2382,-2.1527,-2.0273,-1.9893,-2.0131,-2.0588,-2.0771,-2.09,0.0,0.0,0.0,0.0,0.0,0.0,0.0,0.0,0.0,0.0,0.0,-2.0976,-2.1768,-2.2757,-2.3948,-2.5426,-2.4222,-2.3689,-2.4354,-2.2378,-2.1107,-2.0934,-2.0445,-2.0354,-2.0725,-2.3306,-2.5422,-2.6979,-2.9682,-3.1399,-3.2141,-3.2848,-3.3186,-3.3186,-3.3132,-3.0884,-2.6951,-2.3535,-2.2086,-2.1857,-1.9181,0.0,0.0,0.0,0.0,0.0,0.0,0.0,0.0,0.0,0.0,0.0,0.0,0.0,0.0,0.0,0.0,0.0,0.0,0.0,0.0,0.0,0.0,0.0,0.0,0.0,0.0,0.0,0.0,0.0,0.0,0.0,0.0,0.0,0.0,0.0,0.0,0.0,0.0,-2.2586,-2.3722,0.0,0.0,0.0,0.0,-2.4443,-2.5875,-2.7039,-2.7793,-2.8562,-2.9277,-2.9854,-2.9922,-3.0277,-3.1021,-3.1698,-3.2158,-3.2401,-3.3219,-3.4231,-3.5393,-3.5393,-3.5369,-3.5211,-3.2483,-3.1278,-3.0943,-2.6307,-2.4088,-2.3648,-2.3551,-2.3554,-2.3513,-2.3173,-2.3471,-2.401,0.0,0.0,0.0,0.0,0.0,0.0,0.0,0.0,-2.0072,-1.9752,-2.0702,-2.2068,-2.3768,-2.4716,-2.5741,-2.6976,-2.6552,-2.5632,-2.4241,-2.2923,-2.191,-2.1274,-2.0407,-2.0819,-2.269,-2.4623,-2.7191,-3.0447,-3.2385,-3.4201,-3.591,-3.618,-3.6299,-3.6282,-3.5791,-3.4056,-3.1274,-2.7729,-2.4419,-2.1509,-2.0417,-1.92,0.0,0.0,0.0,0.0,0.0,0.0,0.0,0.0,0.0,0.0,0.0,0.0,0.0,0.0,0.0,0.0,0.0,0.0,0.0,0.0,0.0,0.0,0.0,0.0,0.0,0.0,0.0,0.0,0.0,0.0,0.0,0.0,0.0,0.0,0.0,0.0,0.0,-2.5825,-2.7267,0.0,-2.6988,-2.701,-2.7249,-2.7638,-2.8492,-2.9525,-3.0747,-3.1528,-3.2456,-3.3588,-3.4134,-3.4286,-3.4032,-3.4925,-3.5442,-3.5547,-3.6231,-3.6243,-3.5627,-3.6639,-3.6548,-3.5538,-3.4558,-3.3137,-3.136,-2.9739,-2.7696,-2.5582,-2.5453,-2.4964,-2.4243,-2.367,-2.39,-2.4474,0.0,0.0,0.0,0.0,0.0,0.0,0.0,0.0,-1.9962,-1.9463,-2.1095,-2.3111,-2.5248,-2.6465,-2.7634,-2.884,-2.801,-2.6689,-2.4962,-2.3576,-2.2553,-2.1939,-2.1726,-2.2546,-2.4494,-2.69,-2.9735,-3.3038,-3.4776,-3.6417,-3.7905,-3.7905,-3.7905,-3.7889,-3.7381,-3.6179,-3.4352,-3.2001,-2.7908,-2.2941,-2.2084,-2.0936,-1.964,0.0,0.0,0.0,0.0,0.0,0.0,0.0,0.0,0.0,0.0,0.0,0.0,0.0,0.0,0.0,0.0,0.0,0.0,0.0,0.0,0.0,0.0,0.0,0.0,0.0,0.0,0.0,0.0,0.0,0.0,0.0,0.0,0.0,0.0,-2.5013,-2.7206,-2.8521,-3.04,-3.1288,-3.0476,-3.0683,-3.1014,-3.1404,-3.1998,-3.2899,-3.4117,-3.4658,-3.5385,-3.6343,-3.6891,-3.6924,-3.6377,-3.705,-3.7378,-3.736,-3.7743,-3.7226,-3.603,-3.6791,-3.6749,-3.6079,-3.5442,-3.4121,-3.2415,-3.2092,-3.0617,-2.8526,-2.7735,-2.6823,-2.589,-2.545,-2.542,-2.5585,0.0,0.0,0.0,0.0,0.0,0.0,0.0,-1.9401,-1.9828,-1.9432,-2.1688,-2.4082,-2.6061,-2.7946,-2.9653,-3.1106,-2.8467,-2.6725,-2.6691,-2.4265,-2.2844,-2.2896,-2.4388,-2.5515,-2.6153,-3.0207,-3.3089,-3.4607,-3.684,-3.7956,-3.7973,-3.7973,-3.7973,-3.7973,-3.7973,-3.723,-3.5968,-3.5984,-3.2461,-2.6651,-2.4318,-2.3274,-2.2786,0.0,0.0,0.0,0.0,0.0,0.0,0.0,0.0,0.0,0.0,0.0,0.0,0.0,0.0,0.0,0.0,0.0,0.0,0.0,0.0,0.0,0.0,0.0,0.0,0.0,0.0,0.0,0.0,0.0,0.0,0.0,0.0,0.0,-2.4082,-2.759,-3.0298,-3.0576,-3.2954,-3.4079,-3.2884,-3.3892,-3.4895,-3.5616,-3.6383,-3.7144,-3.7889,-3.7939,-3.7939,-3.7973,-3.7973,-3.7973,-3.7939,-3.7973,-3.7973,-3.7939,-3.7939,-3.755,-3.6766,-3.599,-3.6139,-3.6922,-3.5101,-3.4258,-3.4145,-3.3056,-3.2602,-3.2381,-3.0389,-2.922,-2.8652,-2.8607,-2.8173,-2.751,0.0,0.0,0.0,0.0,0.0,0.0,0.0,-1.8574,-1.9066,-1.8846,-2.1947,-2.5213,-2.7946,-2.9661,-3.0954,-3.1921,-2.9245,-2.7181,-2.6459,-2.3149,-2.1715,-2.278,-2.4774,-2.7079,-2.9713,-3.1958,-3.437,-3.6975,-3.8125,-3.8954,-3.9503,-3.9503,-3.9503,-3.9503,-3.9503,-3.8673,-3.7329,-3.7911,-3.596,-3.2192,-2.9146,-2.6587,-2.4405,0.0,0.0,0.0,0.0,0.0,0.0,0.0,0.0,0.0,0.0,0.0,0.0,0.0,0.0,0.0,0.0,0.0,0.0,0.0,0.0,0.0,0.0,0.0,0.0,0.0,0.0,0.0,0.0,0.0,0.0,0.0,-2.5339,-2.7014,-2.7643,-3.0184,-3.2753,-3.4793,-3.5653,-3.6185,-3.6429,-3.6768,-3.706,-3.7263,-3.7483,-3.7922,-3.865,-3.87,-3.8937,-3.9486,-3.9503,-3.9225,-3.87,-3.9249,-3.9249,-3.87,-3.87,-3.8042,-3.6796,-3.6555,-3.5952,-3.5037,-3.4734,-3.3702,-3.2295,-3.2513,-3.2272,-3.1705,-3.0666,-3.0133,-2.9879,-2.8936,-2.8173,-2.757,0.0,0.0,0.0,0.0,0.0,0.0,0.0,-1.8526,-1.9131,-1.8662,-2.2303,-2.575,-2.781,-2.9382,-3.0448,-3.0871,-2.8339,-2.6303,-2.5345,-2.3404,-2.2876,-2.4213,-2.7,-2.9661,-3.2073,-3.4201,-3.6299,-3.8362,-3.9089,-3.969,-4.0096,-4.0096,-4.0096,-4.0096,-4.0096,-3.9598,-3.8778,-3.9261,-3.8128,-3.5843,-3.3947,-3.1254,-2.8144,-2.6363,-2.5268,-2.4519,-2.2975,-2.275,-2.299,-2.1509,0.0,0.0,0.0,0.0,0.0,0.0,0.0,0.0,0.0,0.0,0.0,0.0,0.0,0.0,0.0,0.0,0.0,0.0,0.0,0.0,0.0,0.0,0.0,0.0,-2.8039,-3.0225,-3.1342,-3.3161,-3.5202,-3.7455,-3.7952,-3.8313,-3.8794,-3.8819,-3.8819,-3.8819,-3.8819,-3.9005,-3.9453,-3.9469,-3.9673,-4.0096,-4.0096,-3.9893,-3.9469,-3.9893,-3.9893,-3.9469,-3.9469,-3.8697,-3.7253,-3.7253,-3.6224,-3.4429,-3.4581,-3.378,-3.2382,-3.2532,-3.2355,-3.1892,0.0,0.0,0.0,0.0,-2.8344,-2.7976,0.0,0.0,0.0,0.0,0.0,0.0,0.0,-1.87,-1.9445,-1.869,-2.2531,-2.5649,-2.6502,-2.7876,-2.8775,-2.8812,-2.6601,-2.4851,-2.4038,-2.449,-2.5397,-2.6729,-3.0177,-3.2636,-3.388,-3.662,-3.8396,-3.9106,-3.9791,-4.0096,-4.0096,-4.0096,-4.0096,-4.0096,-4.0096,-4.0045,-3.9978,-4.007,-3.9268,-3.7943,-3.815,-3.6044,-3.2562,-3.0553,-2.9586,-2.9128,-2.7427,-2.615,-2.5025,-2.3498,0.0,0.0,0.0,0.0,0.0,0.0,0.0,0.0,0.0,0.0,0.0,0.0,0.0,0.0,0.0,0.0,0.0,0.0,0.0,0.0,0.0,0.0,0.0,0.0,-3.052,-3.3339,-3.4836,-3.5989,-3.7218,-3.8707,-3.9514,-3.9952,-3.9952,-4.0045,-4.0096,-4.0096,-4.0096,-4.0096,-4.0096,-4.0096,0.0,0.0,0.0,-4.0096,-4.0096,-4.0096,-4.0096,-4.0096,-3.9919,-3.9109,-3.7773,-3.7591,-3.6406,-3.4488,-3.4407,-3.4025,-3.3408,-3.2738,-3.2492,-3.2394,-3.1664,-3.0987,-3.0242,-2.905,-2.8546,-2.841,0.0,0.0,0.0,0.0,0.0,0.0,0.0,-1.7321,-1.8129,-1.8555,-2.1593,-2.4275,-2.5654,-2.6607,-2.73,-2.7669,-2.6164,-2.4993,-2.4498,-2.5398,-2.7105,-2.9658,-3.1916,-3.4325,-3.6975,-3.8176,-3.914,-3.9893,-4.0028,-4.0096,-4.0096,-4.0096,-4.0096,-4.0096,-4.0096,-3.9756,-3.9166,-3.9808,-3.9553,-3.8737,-3.9435,-3.713,-3.3237,-3.2382,-3.1305,-3.0075,-2.8699,-2.8717,-2.9137,-2.7713,-2.647,-2.5367,-2.4174,-2.212,0.0,0.0,0.0,0.0,0.0,0.0,0.0,0.0,0.0,0.0,0.0,0.0,0.0,0.0,0.0,0.0,0.0,0.0,0.0,-3.1542,-3.2788,-3.4254,-3.684,-3.6868,-3.6959,-3.7923,-3.8679,-3.9139,-3.9139,-3.9731,-4.0096,-4.0096,-4.0096,-4.0096,-4.0096,-4.0096,-4.0096,-4.0096,-4.0096,-4.0096,-4.0096,-4.0096,-4.0096,-4.0096,-3.8853,0.0,-3.6978,-3.5725,-3.4615,-3.3676,-3.3127,-3.2827,-3.2652,-3.1994,-3.171,-3.1637,-3.0968,-3.0306,-2.9674,-2.8893,-2.8263,-2.7851,0.0,0.0,0.0,0.0,0.0,0.0,0.0,-1.6763,-1.7528,-1.8169,-2.0578,-2.2636,-2.3638,-2.4049,-2.4188,-2.4056,-2.3122,-2.3288,-2.5034,-2.6525,-2.8742,-3.1882,-3.4364,-3.6535,-3.8413,-3.9157,-3.974,-4.0096,-4.0096,-4.0096,-4.0096,-4.0096,-4.0096,-4.0096,-4.0096,-3.9876,-3.9489,-3.9489,-3.9262,-3.8935,-3.9342,-3.7954,-3.5613,-3.5338,-3.4338,-3.2932,-3.1923,-3.1317,-3.0852,-2.9792,-2.8458,-2.6988,-2.5855,-2.4048,-2.2177,0.0,0.0,0.0,0.0,0.0,0.0,0.0,0.0,0.0,0.0,0.0,0.0,0.0,0.0,-2.6396,-2.7257,0.0,-3.1331,-3.3537,-3.4516,-3.5599,-3.7356,-3.759,-3.7933,-3.8829,-3.8919,-3.934,-4.0481,-4.0634,-4.0646,-4.0646,-4.0646,-4.0476,-4.013,-4.0096,-4.0096,-4.0096,-4.0096,-4.0096,-4.0096,-4.0096,-4.0096,-4.0096,-3.9336,-3.8375,-3.727,-3.6488,-3.537,-3.3983,-3.3649,-3.332,-3.2976,-3.2647,-3.2512,-3.2392,-3.1376,-3.0829,-3.047,-2.9786,-2.9338,-2.9057,0.0,0.0,0.0,0.0,0.0,0.0,0.0,-1.6326,-1.7034,-1.7537,-1.9432,-2.0849,-2.1161,-2.1266,-2.1137,-2.0658,-2.0293,-2.1813,-2.5843,-2.7742,-3.0328,-3.3901,-3.6671,-3.8531,-3.9411,-4.0028,-4.0383,-4.0536,-4.0536,-4.0451,-4.0316,-4.0316,-4.0248,-4.0113,-4.0265,-4.0231,-4.0062,-3.9412,-3.904,-3.8881,-3.8745,-3.833,-3.7761,-3.7633,-3.6756,-3.5517,-3.4789,-3.3081,-3.1047,-3.0507,-2.9011,-2.7285,-2.6572,-2.5514,-2.423,-2.2801,-2.1639,0.0,0.0,0.0,0.0,0.0,0.0,0.0,0.0,-2.4481,-2.5572,-2.6386,-2.8218,-2.9872,-3.0525,-3.2333,-3.3984,-3.4761,-3.5878,-3.6836,-3.7345,-3.8101,-3.8984,-3.9901,-3.9614,-3.9963,-4.1659,-4.1452,-4.1176,-4.1163,-4.1193,-4.0933,-4.0367,-4.0316,-4.0316,-4.0316,-4.018,-4.0088,-4.0095,-3.9943,-3.9782,-3.9653,-3.9489,-3.8762,-3.7552,-3.7431,-3.6368,-3.4693,-3.4555,-3.412,-3.3499,-3.3499,-3.3499,-3.338,-3.2303,-3.19,-3.1769,-3.0721,-3.0415,-3.0428,0.0,0.0,0.0,0.0,0.0,0.0,0.0,0.0,-1.6103,-1.6499,-1.8036,-1.8956,-1.8642,-1.9241,-1.9837,-2.0228,-2.0637,-2.2787,-2.727,-2.9041,-3.1859,-3.6237,-3.799,-3.9529,-4.0933,-4.1035,-4.1407,-4.2033,-4.2033,-4.1711,-4.1085,-4.1085,-4.073,-4.013,-4.0781,-4.0696,-4.0096,-4.0003,-3.9545,-3.8854,-3.8206,-3.7863,-3.7713,-3.7073,-3.6329,-3.5515,-3.4898,-3.259,-2.9789,-2.9741,-2.8353,-2.6701,-2.66,-2.5956,-2.5014,-2.3729,-2.2387,-2.1337,-2.1359,-2.1173,-2.1328,-2.2839,-2.3418,-2.4503,0.0,-2.8697,-2.8918,-2.978,-3.1097,-3.2134,-3.2241,-3.3875,-3.5464,-3.6166,-3.6851,-3.733,-3.7404,-3.8152,-3.8944,-3.9668,-4.0335,-4.0598,-4.0202,-4.079,-4.1151,-4.1047,-4.1127,-4.117,-4.1085,-4.1085,-4.1085,-4.1085,-4.0426,-4.0101,-4.0106,-3.939,-3.8707,-3.8035,-3.7352,-3.6917,-3.6704,-3.6073,-3.5599,-3.5349,-3.4748,-3.4116,-3.3499,-3.3499,-3.3499,-3.3484,-3.3335,-3.329,-3.2999,-3.0591,-3.0035,-3.0507,0.0,0.0,0.0,0.0,0.0,0.0,0.0,0.0,0.0,-1.588,-1.6512,-1.6998,-1.7291,-1.763,-1.8118,-1.8859,-1.9442,-2.2013,-2.7288,-2.9327,-3.2467,-3.7229,-3.886,-4.0121,-4.1187,-4.1204,-4.1559,-4.2286,-4.2286,-4.1914,-4.1204,-4.1204,-4.1035,-4.0747,-4.1068,-4.1002,-4.0602,-4.0165,-3.9538,-3.8775,-3.8013,-3.7731,-3.7722,-3.6972,-3.553,-3.3783,-3.3294,-3.1726,0.0,-2.8475,-2.7503,-2.6664,-2.6031,-2.5521,-2.4885,-2.3763,-2.2944,-2.2408,-2.2524,-2.3549,-2.4802,-2.5516,-2.6657,-2.8123,-3.0136,-3.0788,-3.1235,-3.2075,-3.2991,-3.3784,-3.4173,-3.4936,-3.5833,-3.6866,-3.724,-3.7674,-3.8431,-3.8545,-3.8821,-3.9603,-3.9692,-4.0076,-4.1146,-4.1213,-4.1182,-4.113,-4.1964,-4.2117,-4.1255,-4.161,-4.183,-4.183,-4.1525,-4.1158,-4.0732,-3.9978,-3.9199,-3.8442,-3.7674,-3.7054,-3.6584,-3.6275,-3.5926,-3.5489,-3.519,-3.4921,-3.4666,-3.4666,-3.4666,-3.4622,-3.4218,-3.4329,-3.4453,-3.2556,-3.203,-3.2205,0.0,0.0,0.0,0.0,0.0,0.0,0.0,0.0,0.0,0.0,-1.5678,-1.6045,-1.6852,-1.6591,-1.6766,-1.7854,-1.8476,-2.0968,-2.6037,-2.8599,-3.1971,-3.6609,-3.8377,-3.9859,-4.1187,-4.1204,-4.166,-4.2591,-4.2388,-4.2016,-4.1508,-4.1305,-4.1204,-4.1195,-4.1153,-4.1011,-4.0688,-3.9927,-3.904,-3.8111,-3.7343,-3.6847,-3.6537,-3.5743,-3.3874,-3.1622,-3.1622,-3.0115,-2.7889,-2.6417,-2.572,-2.5381,-2.4787,-2.4721,-2.4686,-2.3926,-2.3723,-2.3706,-2.362,-2.5419,-2.7363,-2.7665,-2.9208,-3.0853,-3.1708,-3.2427,-3.3134,-3.3891,-3.4427,-3.4906,-3.5415,-3.5654,-3.6133,-3.7225,-3.7569,-3.8093,-3.926,-3.9023,-3.8903,-3.9281,-3.899,-3.9344,-4.0774,-4.0914,-4.0955,-4.1116,-4.2347,-4.2601,-4.1537,-4.2196,-4.2591,-4.2591,-4.2156,-4.1697,-4.1155,-3.9984,-3.9027,-3.8235,-3.7522,-3.6844,-3.6306,-3.6306,-3.6006,-3.5504,-3.5504,-3.5504,-3.5504,-3.5504,-3.5504,-3.5459,-3.4966,-3.507,-3.5385,-3.4412,-3.3923,-3.3637,0.0,0.0,0.0,0.0,0.0,0.0,0.0,0.0,0.0,0.0,0.0,0.0,0.0,-1.6307,-1.6083,-1.7661,-1.8297,-2.0003,-2.3317,-2.6621,-3.0122,-3.3844,-3.5983,-3.8362,-4.1127,-4.1204,-4.1914,-4.3358,-4.2642,-4.2286,-4.2236,-4.1525,-4.1204,-4.1195,-4.1078,-4.0687,-4.0083,-3.9139,-3.7933,-3.6585,-3.5861,-3.4805,-3.3532,-3.2665,-3.1029,-2.9325,-3.0305,-2.7388,-2.3127,-2.3204,-2.2612,-2.1986,-2.2657,-2.3722,-2.4663,-2.4504,-2.4873,-2.523,-2.4699,-2.6278,-2.823,-2.8953,-3.0307,-3.1809,-3.3141,-3.3949,-3.4623,-3.5295,-3.5459,-3.5489,-3.5504,-3.6028,-3.6671,-3.73,-3.7943,-3.8601,-3.932,-3.9535,-3.9349,-3.8552,-3.8731,-3.8593,-3.7794,-3.9201,-4.0353,-4.0876,-4.1768,-4.2293,-4.2162,-4.292,-4.3358,-4.3358,-4.1848,-4.1017,-4.1002,-3.878,-3.7304,-3.6565,-3.5902,-3.5569,-3.5537,-3.5537,-3.5537,-3.5504,-3.5504,-3.5504,-3.5504,-3.5504,-3.5504,-3.5504,-3.5489,-3.5489,-3.5504,-3.5459,-3.5029,-3.4292,0.0,0.0,0.0,0.0,0.0,0.0,0.0,0.0,0.0,0.0,0.0,0.0,0.0,0.0,0.0,0.0,-1.8356,-2.0045,-2.2815,-2.4811,-2.7425,-3.0965,-3.3567,-3.5837,-3.7777,-3.9556,-4.1187,-4.2675,-4.191,-4.1586,-4.1559,-4.0822,-4.0732,-4.1195,-4.0624,-4.025,-3.9909,-3.9047,-3.7076,-3.447,-3.3802,-3.2359,-3.051,-2.9312,-2.779,-2.6227,0.0,-2.4823,-2.2941,-2.1017,-2.0477,-2.0644,-2.114,-2.1778,-2.2657,-2.4094,-2.5342,-2.6445,-2.7245,-2.9146,-3.1042,-3.1743,-3.3047,-3.4277,-3.4726,-3.534,-3.5657,-3.4966,-3.4692,-3.4273,-3.3336,-3.4122,-3.5105,-3.5708,-3.688,-3.7973,-3.8631,-3.8792,-3.8428,-3.7259,-3.7251,-3.7435,-3.7703,-3.9154,-4.017,-4.0377,-4.2028,-4.2786,-4.2232,-4.2916,-4.3076,-4.2486,-4.1952,-4.1432,-4.0942,-3.9203,-3.7959,-3.7223,-3.6034,-3.5504,-3.5504,-3.5504,-3.5504,-3.5504,-3.5504,-3.5504,-3.5504,-3.5504,-3.5504,-3.5504,-3.5504,-3.5504,-3.5504,-3.5504,-3.5365,-3.5041,0.0,0.0,0.0,0.0,0.0,0.0,0.0,0.0,0.0,0.0,0.0,0.0,0.0,0.0,0.0,0.0,0.0,-1.9172,-2.1143,-2.2712,-2.4893,-2.7885,-3.0005,-3.2033,-3.399,-3.5514,-3.7013,-3.851,-3.7552,-3.7369,-3.7911,-3.7152,-3.7208,-3.7887,-3.7337,-3.7198,-3.7279,-3.6158,-3.436,-3.225,-3.1498,-2.9924,-2.7837,-2.6625,-2.507,0.0,-2.2221,-2.1758,-2.1432,-1.9647,-1.9445,-1.9945,-2.0234,-2.1231,-2.2553,-2.4012,-2.5841,-2.7729,-2.9356,-3.1187,-3.2895,-3.3889,-3.482,-3.5504,-3.5504,-3.5639,-3.5385,-3.4053,-3.3547,-3.2933,-3.1536,-3.2007,-3.3038,-3.43,-3.5289,-3.6438,-3.8065,-3.7869,-3.7489,-3.7214,-3.7266,-3.7449,-3.7654,-3.9324,-4.0294,-3.9993,-4.1539,-4.2272,-4.1685,-4.2402,-4.2583,-4.2029,-4.1707,-4.1305,-4.083,-3.934,-3.8142,-3.7284,-3.6064,-3.5504,-3.5504,-3.5504,-3.5504,-3.5504,-3.5504,-3.5504,-3.5504,-3.5504,-3.5504,-3.5504,-3.5504,-3.5504,-3.5504,-3.5504,-3.5504,-3.5412,0.0,0.0,0.0,0.0,0.0,0.0,0.0,0.0,0.0,0.0,0.0,0.0,0.0,0.0,0.0,0.0,0.0,0.0,-1.8305,-2.0312,-2.2442,-2.458,-2.5475,-2.7188,-2.9906,-2.9539,-3.0074,-3.1573,-3.0258,-3.0372,-3.1845,-3.109,-3.1138,-3.185,-3.1643,-3.1951,-3.2477,-3.0829,-3.0063,-2.9843,-2.899,-2.7378,-2.5415,-2.4417,-2.2794,-2.0825,-1.9053,-1.8467,-1.8597,-1.9012,-1.9456,-1.988,-2.0118,-2.2089,-2.4381,-2.4593,-2.6645,-2.9242,-3.1062,-3.2488,-3.3816,-3.524,-3.5581,-3.5534,-3.5474,-3.4921,-3.4069,-3.2691,-3.2068,-3.1381,-3.0099,-2.9905,-3.0754,-3.3092,-3.3418,-3.4485,-3.7621,-3.7012,-3.6806,-3.8237,-3.8713,-3.856,-3.7639,-3.9628,-4.0677,-3.9955,-4.0545,-4.0879,-4.0774,-4.1525,-4.1949,-4.1917,-4.1095,-4.0622,-4.0622,-3.9148,-3.7858,-3.6805,-3.5956,-3.5564,-3.5564,-3.5519,-3.5504,-3.5504,-3.5504,-3.5504,-3.5504,-3.5504,-3.5504,-3.5504,-3.5549,-3.5549,-3.5549,-3.5534,-3.5534,-3.5457,0.0,0.0,0.0,0.0,0.0,0.0,0.0,0.0,0.0,0.0,0.0,0.0,0.0,0.0,0.0,0.0,0.0,0.0,-1.6556,-1.7776,-1.9022,-2.0194,-2.2376,-2.4182,-2.5497,-2.7282,-2.8677,-2.9682,-2.8752,-2.8793,-2.9747,-2.8959,-2.9017,-2.9764,-2.9668,-2.9726,-2.9881,-2.943,-2.8038,-2.6108,-2.5376,-2.37,-2.1553,-2.0792,-1.998,-1.9204,-1.872,-1.8153,-1.7724,-1.8319,-1.9909,-2.1792,-2.2645,-2.4431,-2.6644,-2.8822,-3.0754,-3.2387,-3.3374,-3.4685,-3.5722,-3.5546,-3.5892,-3.5968,-3.4966,-3.4218,-3.3291,-3.1704,-2.997,-2.8534,-2.7936,-2.8814,-3.0166,-3.1774,-3.4075,-3.612,-3.7395,-3.8161,-3.8532,-3.8427,-3.8931,-3.9394,-3.9753,-4.0247,-4.0713,-4.1109,-4.1463,-4.1574,-4.1434,-4.1653,-4.1481,-4.0842,-4.0122,-3.9737,-3.9737,-3.8862,-3.7863,-3.6786,-3.6428,-3.6315,-3.6442,-3.5806,-3.5504,-3.5504,-3.5504,-3.5504,-3.5504,-3.5504,-3.5504,-3.5549,-3.6043,-3.6237,-3.6256,-3.6258,-3.6248,-3.6155,0.0,0.0,0.0,0.0,0.0,0.0,0.0,0.0,0.0,0.0,0.0,0.0,0.0,0.0,0.0,0.0,0.0,0.0,0.0,-1.6606,-1.7429,-1.8219,-1.981,-2.1041,-2.1812,-2.3022,-2.4018,-2.4819,-2.4081,-2.4133,-2.4906,-2.4471,-2.4495,-2.4927,-2.519,-2.5454,-2.5725,-2.5342,-2.4414,0.0,0.0,-2.1047,-1.9446,-1.901,-1.8503,-1.8021,-1.7959,-1.8137,-1.8573,-1.9697,-2.1357,-2.3266,-2.5054,-2.6776,-2.8598,-3.0909,-3.2631,-3.3918,-3.4703,-3.5749,-3.6492,-3.6086,-3.581,-3.5314,-3.412,-3.2855,-3.1403,-2.9439,-2.762,-2.6183,-2.5428,-2.6401,-2.7984,-3.0105,-3.2308,-3.4559,-3.6926,-3.7666,-3.8271,-3.9176,-3.9677,-4.0218,-4.0883,-4.1222,-4.145,-4.1507,-4.1626,-4.165,-4.1565,-4.158,-4.1204,-4.0412,-4.0053,-3.9709,-3.9388,-3.9007,-3.8532,-3.7933,-3.7447,-3.7274,-3.7353,-3.6663,-3.6193,-3.5938,-3.5938,-3.5774,-3.5534,-3.5818,-3.5938,-3.5998,-3.6641,-3.6881,-3.69,-3.6884,-3.6887,-3.6793,0.0,0.0,0.0,0.0,0.0,0.0,0.0,0.0,0.0,0.0,0.0,0.0,0.0,0.0,0.0,0.0,0.0,0.0,0.0,0.0,-1.683,-1.7479,-1.7864,-1.8356,-1.8996,-1.8508,-1.8586,-1.9263,-1.8696,-1.8756,-1.9458,-1.9459,-1.9441,-1.9489,-2.0161,-2.0782,-2.1292,-2.0637,-2.0548,-2.0804,-2.0063,-1.9219,-1.8398,0.0,-1.7831,-1.7257,-1.7133,-1.8136,-1.9815,-2.1753,-2.3203,-2.4697,-2.7327,-2.9107,-3.0535,-3.2205,-3.3577,-3.4731,-3.5618,-3.6228,-3.66,-3.6585,-3.5474,-3.4117,-3.309,-3.1174,-2.8997,-2.6884,-2.5393,-2.4198,-2.3247,-2.3868,-2.5555,-2.8667,-2.9952,-3.2102,-3.6525,-3.6721,-3.7422,-4.0179,-4.0705,-4.1,-4.1618,-4.2345,-4.2478,-4.1715,-4.1639,-4.1609,-4.1557,-4.1504,-4.1205,-4.0546,-4.0442,-4.0127,-3.9559,-3.9465,-3.939,-3.9375,-3.8536,-3.814,-3.8125,-3.7623,-3.712,-3.6611,-3.6611,-3.6282,-3.5804,-3.6372,-3.6611,-3.6671,-3.73,-3.7539,-3.7539,-3.7515,-3.7553,-3.7448,0.0,0.0,0.0,0.0,0.0,0.0,0.0,0.0,0.0,0.0,-1.3769,-1.3209,0.0,0.0,0.0,0.0,0.0,0.0,0.0,0.0,0.0,-1.5967,-1.7173,-1.7912,-1.8031,-1.7946,-1.7951,-1.8087,-1.7986,-1.7991,-1.8137,-1.8138,-1.8129,-1.8162,-1.8881,-1.9282,-1.9419,-1.9878,-1.9705,-1.9122,-1.8972,-1.8327,-1.7437,-1.7425,0.0,0.0,-1.7108,-1.7511,-1.8489,-2.1372,-2.4153,-2.6873,-2.9332,-3.1363,-3.3251,-3.5296,-3.6095,-3.6403,-3.7078,-3.6909,-3.6569,-3.6511,-3.5093,-3.3396,-3.2393,-2.9746,-2.7247,-2.6277,-2.4132,-2.2612,-2.3294,-2.4191,-2.5837,-2.8924,-3.1152,-3.3652,-3.6899,-3.7702,-3.8812,-4.0988,-4.1235,-4.1723,-4.2865,-4.3103,-4.3127,-4.2985,-4.2961,-4.2761,-4.2261,-4.2231,-4.1931,-4.1235,-4.0681,-4.0352,-4.0232,-3.9685,-3.9406,-3.9406,-3.8702,-3.8357,-3.8342,-3.7674,-3.7345,-3.724,-3.724,-3.718,-3.709,-3.721,-3.724,-3.7315,-3.7958,-3.8227,-3.8222,-3.8213,-3.8207,-3.8145,0.0,0.0,0.0,0.0,0.0,0.0,0.0,-1.3782,-1.4456,-1.5408,-1.5129,-1.4686,-1.4235,-1.3826,-1.3401,0.0,0.0,0.0,0.0,0.0,0.0,0.0,-1.7015,-1.7658,-1.7589,-1.7589,-1.7589,-1.7589,0.0,-1.7589,-1.7589,-1.7589,-1.7589,-1.7617,-1.7952,-1.8131,-1.8148,-1.8504,-1.8393,-1.7967,-1.7967,-1.763,-1.715,0.0,0.0,0.0,-1.75,-1.812,-1.9119,-2.1264,-2.3768,-2.6581,-3.0076,-3.249,-3.4315,-3.5714,-3.6358,-3.662,-3.6534,-3.6552,-3.6492,-3.6092,-3.4218,-3.215,-3.0972,-2.8115,-2.5416,-2.4347,-2.2768,-2.1729,-2.2247,-2.3501,-2.5131,-2.7286,-2.952,-3.207,-3.5192,-3.6352,-3.7883,-4.0546,-4.1175,-4.1893,-4.317,-4.329,-4.329,-4.329,-4.329,-4.3155,-4.288,-4.259,-4.2246,-4.1931,-4.1018,-4.0576,-4.0576,-3.9783,-3.9388,-3.9388,-3.908,-3.8931,-3.8916,-3.8601,-3.8257,-3.7913,-3.7913,-3.7719,-3.7434,-3.7778,-3.7913,-3.8018,-3.9035,-3.923,-3.896,-3.932,-3.9211,-3.8799,0.0,0.0,0.0,0.0,0.0,0.0,0.0,-1.447,-1.5147,-1.6436,-1.6859,-1.6635,-1.5523,-1.4567,-1.3642,0.0,0.0,0.0,0.0,0.0,0.0,0.0,0.0,0.0,-1.7396,0.0,0.0,-1.7396,-1.7396,0.0,0.0,0.0,0.0,0.0,-1.7396,-1.7396,-1.7396,-1.7396,-1.7358,0.0,0.0,-1.722,-1.7095,0.0,0.0,0.0,0.0,-1.8467,-1.9431,-2.0808,-2.2617,-2.4977,-2.8907,-3.1622,-3.3547,-3.451,-3.5289,-3.5815,-3.5729,-3.6017,-3.6258,-3.5817,-3.3499,-3.0962,-2.9761,-2.6815,-2.392,-2.2663,-2.1795,-2.1293,-2.1293,-2.2577,-2.415,-2.5656,-2.7464,-2.9904,-3.3513,-3.4815,-3.6573,-3.9798,-4.0891,-4.1848,-4.3015,-4.32,-4.329,-4.329,-4.329,-4.329,-4.329,-4.2851,-4.2605,-4.2605,-4.146,-4.0853,-4.0853,-3.991,-3.9388,-3.9388,-3.9388,-3.9388,-3.9388,-3.9388,-3.92,-3.8811,-3.8676,-3.8392,-3.8078,-3.8452,-3.8691,-3.8916,-3.9993,-4.0172,-3.991,-4.0398,-4.0203,-3.9541,0.0,0.0,0.0,0.0,0.0,0.0,0.0,-1.5027,-1.6414,-1.7746,-1.864,-1.8361,-1.633,-1.5058,-1.3812,0.0,0.0,0.0,0.0,0.0,0.0,0.0,0.0,0.0,0.0,0.0,0.0,-1.7396,-1.7396,0.0,0.0,0.0,0.0,0.0,0.0,-1.7396,-1.7396,-1.7396,0.0,0.0,0.0,0.0,0.0,0.0,0.0,0.0,0.0,-1.7261,-1.7603,-1.9307,-2.0836,-2.236,-2.442,-2.7149,-2.995,-3.1734,-3.2766,-3.3772,-3.5859,-3.6019,-3.5737,-3.6271,-3.3469,-3.0403,-2.9679,-2.645,-2.3384,-2.2551,-2.1795,-2.1293,-2.1293,-2.1973,-2.3288,-2.5539,-2.6635,-2.8778,-3.3373,-3.4607,-3.6161,-3.9161,-4.0621,-4.1707,-4.2425,-4.2985,-4.329,-4.329,-4.329,-4.329,-4.329,-4.3245,-4.32,-4.32,-4.1983,-4.1347,-4.1347,-4.0053,-3.9388,-3.9388,-3.9388,-3.9388,-3.9388,-3.9388,-3.9709,-4.0187,-3.9589,-3.9634,-4.0083,-3.9544,-3.9679,-4.0232,-4.0352,-4.0726,-4.1227,-4.1295,-4.0872,-4.0284,0.0,0.0,0.0,0.0,0.0,0.0,-1.389,-1.4337,-1.5299,-1.7556,-1.8028,-1.7708,-1.6558,-1.5551,-1.416,-1.2237,0.0,0.0,0.0,0.0,0.0,0.0,0.0,0.0,0.0,0.0,-1.6789,-1.6977,-1.6977,0.0,0.0,0.0,0.0,0.0,0.0,-1.7212,-1.7212,-1.7212,0.0,0.0,0.0,0.0,0.0,0.0,0.0,0.0,0.0,0.0,-1.772,-1.7852,-1.8817,-2.0004,-2.0316,-2.2157,-2.4942,-2.8992,-3.1177,-3.2697,-3.4266,-3.5085,-3.5474,-3.5342,-3.272,-2.986,-2.8535,-2.5623,-2.2914,-2.194,-2.1503,-2.1293,-2.1293,-2.1908,-2.2845,-2.4232,-2.5222,-2.6881,-3.0005,-3.1704,-3.3773,-3.6975,-3.9043,-4.0771,-4.2261,-4.2955,-4.329,-4.329,-4.329,-4.329,-4.329,-4.329,-4.329,-4.329,-4.2447,-4.2188,-4.2552,-4.0845,-4.0038,-4.0186,-3.9634,-3.9388,-3.9388,-3.9828,-4.0157,-4.0412,-4.0546,-4.0756,-4.0965,-4.0711,-4.0756,-4.1025,-4.1467,-4.125,-4.0831,-4.1235,-4.0703,-3.9787,0.0,0.0,0.0,0.0,0.0,-1.1904,-1.3666,-1.3853,-1.457,-1.6796,-1.7087,-1.6861,-1.6219,-1.525,-1.3964,-1.2258,-1.1881,0.0,0.0,0.0,0.0,0.0,0.0,0.0,0.0,0.0,-1.6409,-1.662,-1.662,-1.6701,0.0,0.0,-1.6902,-1.6911,0.0,0.0,0.0,0.0,0.0,0.0,0.0,0.0,0.0,0.0,0.0,0.0,0.0,0.0,0.0,0.0,0.0,-1.8344,-1.797,-1.9077,-2.1399,-2.6092,-2.896,-3.0924,-3.2343,-3.3651,-3.4502,-3.4023,-3.1798,-2.9281,-2.7519,-2.4977,-2.266,-2.1424,-2.1246,-2.1277,-2.1198,-2.1666,-2.2377,-2.3334,-2.409,-2.5381,-2.7753,-2.9617,-3.1781,-3.4637,-3.7124,-3.9325,-4.122,-4.2569,-4.329,-4.329,-4.329,-4.329,-4.329,-4.329,-4.329,-4.329,-4.2884,-4.2874,-4.3285,-4.1415,-4.0576,-4.0673,-3.9835,-3.9388,-3.9403,-4.0098,-4.0502,-4.0711,-4.1175,-4.1527,-4.1692,-4.1459,-4.1527,-4.1752,-4.2216,-4.1908,-4.1324,-4.1788,-4.113,-3.9993,0.0,0.0,0.0,0.0,0.0,0.0,-1.262,-1.3878,-1.4915,-1.5529,-1.6196,-1.6233,-1.5213,-1.3919,-1.2979,-1.2623,-1.1994,0.0,0.0,0.0,0.0,0.0,0.0,0.0,0.0,0.0,-1.6207,-1.6396,-1.6396,-1.6342,-1.6217,-1.6342,-1.6436,-1.6499,0.0,0.0,0.0,0.0,0.0,0.0,0.0,0.0,0.0,0.0,0.0,0.0,0.0,0.0,0.0,0.0,0.0,0.0,0.0,-1.8699,-2.0093,-2.3004,-2.5618,-2.8045,-3.0304,-3.171,-3.2542,-3.2512,-3.0815,-2.8645,-2.681,-2.4632,-2.2591,-2.1196,-2.1119,-2.1214,-2.0942,-2.1135,-2.1795,-2.3253,-2.3512,-2.4579,-2.767,-2.9264,-3.0725,-3.2431,-3.5066,-3.734,-3.888,-4.1641,-4.329,-4.329,-4.329,-4.329,-4.329,-4.329,-4.329,-4.329,-4.328,-4.327,-4.3285,-4.1581,-4.0688,-4.0673,-3.9835,-3.9388,-3.9403,-4.0098,-4.0756,-4.1407,-4.1422,-4.1796,-4.2336,-4.1692,-4.1796,-4.2396,-4.2396,-4.2746,-4.326,-4.3275,-4.2476,-4.1392,0.0,0.0,0.0,0.0,0.0,0.0,0.0,-1.1844,-1.2277,-1.3525,-1.3711,-1.3835,-1.4099,-1.3355,-1.2775,-1.2678,-1.1962,0.0,0.0,0.0,0.0,0.0,0.0,0.0,0.0,0.0,-1.5949,-1.6473,-1.6473,-1.6744,-1.7288,-1.6908,-1.6753,-1.6766,-1.6487,-1.6324,0.0,0.0,0.0,0.0,0.0,0.0,-1.6488,0.0,0.0,0.0,0.0,0.0,0.0,0.0,0.0,0.0,0.0,0.0,0.0,-1.895,-2.1585,-2.4664,-2.6612,-2.8771,-3.0086,-2.8631,-2.7581,-2.648,-2.4803,-2.3334,-2.2004,-2.0851,-2.0844,-2.1007,-2.091,-2.1119,-2.1924,-2.3869,-2.4176,-2.5045,-2.7467,-2.9335,-3.1161,-3.307,-3.7199,-4.0266,-4.122,-4.2539,-4.329,-4.329,-4.329,-4.329,-4.329,-4.329,-4.329,-4.329,-4.3319,-4.3004,-4.241,-4.2059,-4.1377,-4.0494,-4.0666,-4.0292,-3.9433,-4.1025,-4.1647,-4.1467,-4.2327,-4.2836,-4.3015,-4.2806,-4.2836,-4.303,-4.303,-4.288,-4.2611,-4.2162,-4.1459,-4.0651,0.0,0.0,0.0,0.0,0.0,0.0,0.0,-1.0691,-1.091,-1.188,-1.1859,-1.2154,-1.3207,-1.2441,-1.2061,-1.258,-1.1841,0.0,0.0,0.0,0.0,0.0,0.0,0.0,-1.5067,-1.5316,-1.5741,-1.6387,-1.6387,-1.6757,-1.7456,-1.7123,-1.6874,-1.6652,-1.6426,-1.6165,0.0,0.0,0.0,0.0,0.0,0.0,-1.6105,0.0,0.0,0.0,0.0,0.0,0.0,0.0,0.0,0.0,0.0,0.0,0.0,0.0,-1.8268,-2.0718,-2.3594,-2.5942,-2.7319,-2.6231,-2.5674,-2.5033,-2.3752,-2.2744,-2.1742,-2.0614,-2.0582,-2.0716,-2.0614,-2.099,-2.1892,-2.3679,-2.4057,-2.4763,-2.6641,-2.8255,-3.0582,-3.4151,-3.7737,-4.0336,-4.1422,-4.2584,-4.329,-4.329,-4.329,-4.329,-4.329,-4.329,-4.329,-4.329,-4.329,-4.305,-4.2503,-4.2333,-4.1893,-4.113,-4.1055,-4.0591,-3.9828,-4.1055,-4.1572,-4.1482,-4.2506,-4.3105,0.0,-4.306,-4.3105,-4.3275,-4.306,-4.2716,-4.2312,-4.1477,-4.0598,-3.9681,0.0,0.0,0.0,0.0,0.0,0.0,0.0,-1.0319,-1.0631,-1.0631,-1.0631,-1.1118,-1.2355,-1.1318,-1.1015,-1.2236,0.0,0.0,0.0,0.0,0.0,0.0,0.0,0.0,-1.4456,-1.4993,-1.56,-1.6232,-1.6232,-1.6498,-1.7021,-1.7104,-1.6862,-1.6333,-1.6418,-1.6233,-1.5866,0.0,0.0,0.0,0.0,0.0,0.0,0.0,0.0,0.0,0.0,0.0,0.0,0.0,0.0,0.0,0.0,0.0,0.0,0.0,0.0,0.0,0.0,-2.3402,-2.4446,-2.4859,-2.4611,-2.4075,-2.3349,-2.2618,0.0,-2.0422,-2.0304,-2.0377,-2.0156,-2.0729,-2.1633,-2.2883,-2.3399,-2.4147,-2.5607,-2.6733,-2.9599,-3.5514,-3.7109,-3.8357,-3.9964,-4.2055,-4.329,-4.329,-4.3245,-4.323,-4.329,-4.3245,-4.3215,-4.3185,-4.3215,-4.323,-4.323,-4.2443,-4.21,-4.2246,-4.107,-4.0472,-4.0337,-4.0427,-4.0771,-4.1392,-4.2051,-4.2641,-4.311,-4.2503,-4.2583,-4.3036,-4.2425,-4.2147,-4.204,-4.0928,-3.9773,-3.8517,0.0,0.0,0.0,0.0,0.0,0.0,0.0,0.0,0.0,0.0,-1.0081,-1.0207,-1.0526,-1.0739,-1.0847,0.0,0.0,0.0,0.0,0.0,0.0,0.0,0.0,0.0,-1.4859,-1.5002,-1.5568,-1.6587,-1.6587,-1.7103,-1.8106,-1.7682,-1.7167,-1.6579,-1.6264,-1.5863,-1.5433,-1.5285,0.0,0.0,0.0,0.0,0.0,0.0,0.0,0.0,-1.5418,-1.5846,0.0,0.0,0.0,0.0,0.0,0.0,0.0,0.0,-1.7846,-1.7331,-1.975,0.0,-2.3224,-2.1163,-2.1356,-2.19,0.0,-2.1042,-2.0682,-1.9963,-1.9849,-1.9987,-2.034,-2.0559,-2.1158,-2.2561,-2.4097,-2.5723,-2.7485,-2.9833,-3.2584,-3.5892,-3.8465,-3.9999,-4.0081,-4.2055,-4.329,-4.329,-4.2682,-4.2608,-4.326,-4.2865,-4.2369,-4.1876,-4.2354,-4.262,-4.262,-4.2402,-4.1818,-4.0876,-4.1602,-4.1115,-3.9694,-4.0696,-4.0965,-4.0666,-4.1324,-4.1698,-4.1825,-4.1232,-4.1116,-4.1152,-4.0161,-3.98,-3.9646,-3.8499,-3.7845,-3.7484,0.0,0.0,0.0,0.0,0.0,0.0,0.0,0.0,0.0,0.0,0.0,-1.0435,-1.052,-1.0894,0.0,0.0,0.0,0.0,0.0,0.0,0.0,0.0,0.0,-1.4181,-1.4313,-1.4579,-1.5235,-1.629,-1.6451,-1.713,-1.8274,-1.8089,-1.7534,-1.6666,-1.5821,-1.5307,-1.5056,-1.4949,-1.4904,0.0,-1.504,0.0,0.0,0.0,0.0,0.0,-1.5132,-1.5501,0.0,-1.6456,-1.6959,-1.756,0.0,0.0,0.0,0.0,-1.7242,-1.6713,-1.765,-1.95,-2.0946,-2.0011,-2.0362,-2.093,-2.0885,-2.0498,-2.0041,-1.9769,-1.9066,-1.8837,-1.9917,-2.112,-2.2072,-2.2574,-2.3768,-2.5222,-2.688,-3.1076,-3.4912,-3.7432,-3.7709,-3.8399,-4.0221,-4.2145,-4.3142,-4.2743,-4.2269,-4.2126,-4.2417,-4.2102,-4.1863,-4.1682,-4.1564,-4.1549,-4.1614,-4.1848,-4.1587,-4.0846,-4.1265,-4.0905,-3.9852,-3.9764,-3.9723,-3.9642,-3.9542,-3.9652,-3.9888,-3.9264,-3.9205,-3.939,-3.8519,-3.8159,-3.8048,-3.6906,-3.6293,-3.5927,0.0,0.0,0.0,0.0,0.0,0.0,0.0,0.0,0.0,0.0,0.0,0.0,0.0,0.0,0.0,0.0,0.0,0.0,0.0,0.0,0.0,0.0,-1.3726,-1.4081,-1.3661,-1.4101,-1.4803,-1.5734,-1.62,-1.6982,-1.8008,-1.8444,-1.7941,-1.6652,-1.5455,-1.4893,-1.4808,-1.4808,-1.4808,-1.4808,-1.4808,0.0,0.0,0.0,0.0,0.0,0.0,0.0,0.0,-1.6494,-1.7081,-1.7654,-1.9069,0.0,0.0,0.0,0.0,0.0,-1.5796,-1.6886,-1.8484,-2.0481,-2.0956,-2.0987,-2.1045,-2.0343,-1.9693,-1.9696,-1.8532,-1.7942,-1.9428,-2.2,-2.3784,-2.3427,-2.4036,-2.5044,-2.6402,-3.1603,-3.6104,-3.8334,-3.6418,-3.6359,-4.0036,-4.2146,-4.2878,-4.1874,-4.1693,-4.1528,-4.1422,-4.1197,-4.1302,-4.1746,-4.0875,-4.0427,-4.0501,-4.0995,-4.1235,-4.122,-4.0502,-4.01,-3.9944,-3.8301,-3.7873,-3.8335,-3.7454,-3.737,-3.7868,-3.7194,-3.7291,-3.7703,-3.6989,-3.6702,-3.6579,-3.5679,-3.4958,-3.433,0.0,0.0,0.0,0.0,0.0,0.0,0.0,0.0,0.0,0.0,0.0,0.0,0.0,0.0,0.0,0.0,0.0,0.0,0.0,0.0,0.0,-1.3181,-1.3528,-1.3915,-1.4337,-1.4163,-1.4521,-1.5466,-1.6534,-1.7413,-1.8101,-1.8882,-1.8343,-1.668,-1.5904,-1.527,-1.4808,-1.4808,-1.4808,-1.4808,-1.4808,0.0,0.0,0.0,0.0,0.0,0.0,0.0,0.0,-1.5955,-1.7185,-1.8779,-1.8708,0.0,0.0,0.0,0.0,0.0,-1.5801,-1.5992,-1.7298,-2.1955,-2.312,-2.2574,-2.0437,-1.9819,-1.9696,-1.97,-1.9492,-1.9372,-1.966,-2.2758,-2.5632,-2.6664,-2.828,-2.9803,-3.0866,-3.2935,-3.4466,-3.4874,-3.7089,-3.8712,-3.8972,-4.1611,-4.2645,-4.1009,-4.0226,-4.0263,-4.1339,-4.0308,-4.001,-4.0628,-4.0472,-4.0121,-3.9591,-4.021,-4.0546,-4.0546,-3.9519,-3.8735,-3.8176,-3.6972,-3.6489,-3.6587,-3.6429,-3.6391,-3.6475,-3.5963,-3.5827,-3.5809,-3.4788,-3.4428,-3.4403,-3.4208,-3.3811,-3.3389,0.0,0.0,0.0,0.0,0.0,0.0,0.0,0.0,0.0,0.0,0.0,0.0,0.0,0.0,0.0,0.0,0.0,0.0,0.0,0.0,-1.296,-1.3342,-1.3438,-1.376,-1.4331,-1.4193,-1.4725,-1.5987,-1.695,-1.7754,-1.8427,-1.8058,-1.7293,-1.6177,-1.5368,-1.4837,-1.4604,-1.4746,-1.4808,-1.4808,0.0,0.0,0.0,0.0,0.0,0.0,0.0,0.0,0.0,0.0,-1.6185,-1.6976,-1.8136,0.0,0.0,0.0,0.0,0.0,-1.57,-1.7487,-1.9967,-2.2869,-2.2537,-2.1184,-1.9981,-1.9695,-1.9697,-1.9711,-2.0817,-2.2253,-2.3697,-2.6602,-2.9372,-3.1187,-3.301,-3.44,-3.4836,-3.6088,-3.6943,-3.6953,-3.8405,-3.9329,-3.9119,-4.0371,-4.086,-4.0077,-3.963,-3.9667,-4.0292,-3.9712,-3.9533,-3.9858,-3.901,-3.84,-3.8121,-3.7837,-3.8118,-3.8986,-3.7925,-3.725,-3.6891,-3.5868,-3.54,-3.5359,-3.4761,-3.4526,-3.4511,-3.4309,-3.4212,-3.414,-3.3662,-3.3458,-3.3476,-3.3455,-3.3525,-3.3533,0.0,0.0,0.0,0.0,0.0,0.0,0.0,0.0,0.0,0.0,0.0,0.0,0.0,0.0,0.0,0.0,0.0,0.0,0.0,-1.2639,-1.2788,-1.3153,-1.3266,-1.3688,-1.4448,-1.4393,-1.5027,-1.6426,-1.7243,-1.8013,-1.8619,-1.7423,-1.6483,-1.5755,-1.5032,-1.4584,-1.4413,-1.4574,-1.4637,-1.4606,0.0,0.0,0.0,0.0,0.0,0.0,0.0,0.0,0.0,0.0,0.0,0.0,0.0,0.0,0.0,-1.4798,-1.4794,-1.49,-1.5431,-1.8223,-2.1226,-2.2173,-2.1048,-2.0112,-2.1665,-2.2243,-2.2287,-2.1672,-2.2636,-2.4433,-2.7121,-3.0252,-3.2855,-3.4131,-3.5982,-3.7254,-3.7266,-3.8138,-3.895,-3.936,-3.9416,-3.9412,-3.9403,-3.939,-3.9414,-3.9388,-3.9388,-3.9313,-3.9185,-3.9007,-3.8802,-3.8608,-3.7338,-3.6548,-3.6442,-3.5363,-3.5645,-3.722,-3.6274,-3.5854,-3.5814,-3.4774,-3.4304,-3.4275,-3.3484,-3.3124,-3.3124,-3.3124,-3.3124,-3.3124,-3.3124,-3.3192,-3.3273,-3.3136,-3.3501,-3.4004,0.0,0.0,0.0,0.0,0.0,0.0,0.0,0.0,0.0,0.0,0.0,0.0,0.0,0.0,0.0,0.0,0.0,0.0,0.0,-1.2413,-1.2443,-1.246,-1.2894,-1.3815,-1.528,-1.5014,-1.5288,-1.6209,-1.7322,-1.81,-1.8513,-1.7903,-1.6974,-1.5796,-1.5661,-1.5163,-1.4397,-1.4211,-1.41,-1.4035,-1.3858,0.0,0.0,0.0,0.0,0.0,0.0,0.0,0.0,0.0,0.0,0.0,0.0,0.0,-1.48,-1.48,-1.4792,-1.4823,-1.4861,-1.6141,-1.7687,-1.8632,-1.9293,-2.1312,-2.7471,-2.9794,-2.997,-2.7531,-2.5209,-2.4421,-2.7115,-3.1778,-3.4721,-3.3187,-3.5137,-3.6841,-3.6854,-3.6918,-3.759,-3.9215,-3.9387,-3.9405,-3.9415,-3.939,-3.939,-3.9394,-3.9388,-3.914,-3.8497,-3.7813,-3.7071,-3.6266,-3.5747,-3.527,-3.4789,-3.3727,-3.3985,-3.5579,-3.5036,-3.4815,-3.4787,-3.3713,-3.324,-3.3197,-3.3111,-3.3124,-3.3124,-3.3124,-3.3124,-3.3124,-3.3124,-3.3422,-3.3789,-3.3285,-3.3758,-3.4581,0.0,0.0,0.0,0.0,0.0,0.0,0.0,0.0,0.0,0.0,0.0,0.0,0.0,0.0,0.0,0.0,0.0,0.0,0.0,-1.1891,-1.2141,-1.2691,-1.2881,-1.3552,-1.4747,-1.5094,-1.5993,-1.7431,-1.7871,-1.7945,-1.7657,-1.6582,-1.5628,-1.4777,-1.4296,-1.4059,-1.4019,-1.408,-1.4183,-1.4301,-1.4179,-1.4,0.0,0.0,0.0,0.0,0.0,0.0,0.0,0.0,-1.5349,-1.6165,-1.512,-1.5851,-1.7098,-1.7099,-1.6565,-1.5813,-1.5016,-1.6514,-1.8369,-1.8716,-1.9893,-2.2251,-2.7218,-3.0623,-3.2335,-3.094,-2.9516,-2.8762,-2.9621,-3.1893,-3.3619,-3.3597,-3.529,-3.661,-3.6622,-3.6937,-3.7325,-3.7736,-3.8271,-3.8187,-3.7092,-3.7222,-3.7417,-3.7422,-3.6584,-3.6212,-3.6539,-3.593,-3.5479,-3.5145,-3.3993,-3.3297,-3.312,-3.2046,-3.1809,-3.2411,-3.289,-3.2982,-3.2675,-3.2954,-3.288,-3.2554,-3.2918,-3.3124,-3.3056,-3.2692,-3.2754,-3.3124,-3.3124,-3.3217,-3.3366,-3.3149,-3.3571,-3.4139,0.0,0.0,0.0,0.0,0.0,0.0,0.0,0.0,0.0,0.0,0.0,0.0,0.0,0.0,0.0,0.0,0.0,0.0,-1.1568,-1.1597,-1.1901,-1.2624,-1.2808,-1.3291,-1.4121,-1.4952,-1.6045,-1.7464,-1.7464,-1.7135,-1.6509,-1.5387,-1.4635,-1.4217,-1.3679,-1.367,-1.4044,-1.3954,-1.4011,-1.4136,-1.3869,-1.3635,0.0,0.0,0.0,0.0,0.0,0.0,0.0,0.0,-1.5249,-1.6244,-1.5604,-1.6287,-1.7409,-1.7822,-1.7323,-1.6452,-1.5558,-1.6959,-1.8715,-1.8977,-2.0316,-2.2606,-2.6445,-2.9652,-3.2072,-3.2879,-3.2229,-3.1414,-3.1091,-3.1839,-3.2826,-3.3759,-3.5383,-3.6417,-3.6207,-3.645,-3.6433,-3.5849,-3.666,-3.6737,-3.5353,-3.5758,-3.5873,-3.524,-3.4785,-3.4602,-3.4839,-3.4362,-3.39,-3.3515,-3.2329,-3.159,-3.1446,-3.0724,-3.0357,-3.0369,-3.1273,-3.1599,-3.1411,-3.219,-3.2328,-3.1976,-3.2365,-3.2641,-3.2767,-3.2378,-3.2554,-3.3124,-3.3124,-3.3124,-3.3124,-3.3124,-3.3341,-3.3584,0.0,0.0,0.0,0.0,0.0,0.0,0.0,0.0,0.0,0.0,0.0,0.0,0.0,0.0,0.0,0.0,0.0,0.0,-1.1568,-1.1586,-1.1744,-1.2077,-1.2601,-1.3107,-1.357,-1.4568,-1.5326,-1.59,-1.59,-1.5624,-1.5073,-1.4541,-1.428,-1.4295,-1.4231,-1.4331,-1.4543,-1.3819,-1.3457,-1.3346,-1.2668,-1.2609,-1.2908,0.0,0.0,0.0,0.0,0.0,0.0,0.0,-1.4302,-1.4593,-1.618,-1.5819,-1.5066,-1.6316,-1.661,-1.6512,-1.6525,-1.7193,-1.8085,-1.8888,-2.0285,-2.2361,-2.5898,-2.7471,-2.9341,-3.336,-3.2777,-3.1394,-3.0998,-3.179,-3.2706,-3.338,-3.5175,-3.6252,-3.5561,-3.52,-3.464,-3.3693,-3.469,-3.5236,-3.4657,-3.5424,-3.5164,-3.3142,-3.4478,-3.482,-3.3645,-3.3201,-3.2405,-3.1206,-3.0791,-3.0344,-2.9804,-2.9792,-2.9792,-2.9804,-3.0344,-3.0871,-3.1373,-3.1386,-3.1386,-3.1386,-3.1386,-3.17,-3.2202,-3.2202,-3.2541,-3.3068,-3.3068,-3.3068,-3.3124,-3.3124,-3.3124,-3.3124,0.0,0.0,0.0,0.0,0.0,0.0,0.0,0.0,0.0,0.0,0.0,0.0,0.0,0.0,0.0,0.0,0.0,0.0,-1.0943,-1.1188,-1.1449,-1.1744,-1.189,-1.2046,-1.2181,-1.2849,-1.3896,-1.5349,-1.5349,-1.4901,-1.4029,-1.3883,-1.3804,-1.3813,-1.38,-1.3812,-1.387,-1.361,-1.3598,-1.3765,-1.368,-1.3496,-1.3295,0.0,0.0,0.0,0.0,0.0,0.0,0.0,0.0,0.0,-1.5029,-1.5518,-1.6029,-1.5512,-1.5976,-1.6908,-1.8086,-1.7941,-1.7712,-1.8647,-2.1564,-2.4638,-2.631,-2.7267,-2.8874,-3.2716,-3.2486,-3.1688,-3.2019,-3.2547,-3.2905,-3.2867,-3.3926,-3.468,-3.4457,-3.437,-3.396,-3.3003,-3.3663,-3.4084,-3.3899,-3.4375,-3.3788,-3.1681,-3.198,-3.2017,-3.1537,-3.1021,-3.0586,-3.0241,-3.0111,-2.9955,-2.9792,-2.9792,-2.9792,-2.9792,-2.9955,-3.0118,-3.0294,-3.1047,-3.1185,-3.0871,-3.1235,-3.1486,-3.1637,-3.1637,-3.1743,-3.1925,-3.2343,-3.2716,-3.3124,-3.3124,-3.3124,-3.3124,0.0,0.0,0.0,0.0,0.0,0.0,0.0,0.0,0.0,0.0,-1.0303,-1.0303,0.0,0.0,0.0,0.0,0.0,0.0,0.0,-1.1,-1.1274,-1.1431,-1.1531,-1.1648,-1.1714,-1.2174,-1.2871,-1.3836,-1.419,-1.3992,-1.3337,-1.3584,-1.3684,-1.3624,-1.4017,-1.4086,-1.3933,-1.3873,-1.3843,-1.3793,-1.3915,-1.3859,-1.3739,0.0,0.0,0.0,0.0,0.0,0.0,0.0,0.0,0.0,-1.4026,-1.4528,-1.528,-1.5188,-1.5522,-1.6179,-1.7182,-1.7756,-1.8353,-1.9577,-2.2347,-2.5208,-2.6869,-2.8731,-3.0564,-3.2095,-3.2295,-3.2175,-3.2078,-3.2295,-3.2534,-3.2582,-3.3075,-3.3449,-3.3449,-3.3136,-3.2664,-3.2105,-3.2418,-3.2502,-3.2121,-3.2804,-3.2488,-3.0596,-3.0675,-3.0626,-3.0291,-3.0002,-2.9792,-2.9792,-2.9792,-2.9792,-2.9792,-2.9792,-2.9792,-2.9792,-2.9792,-2.9792,-2.9817,-3.047,-3.0583,-3.0319,-3.0846,-3.1085,-3.1097,-3.1304,-3.1399,-3.1443,-3.1975,-3.2439,-3.2767,-3.2993,-3.3124,-3.3124,0.0,0.0,0.0,0.0,0.0,0.0,0.0,0.0,0.0,0.0,-1.0264,-1.0283,0.0,0.0,0.0,0.0,0.0,0.0,0.0,-1.0973,-1.1161,-1.1161,-1.1394,-1.16,-1.1798,-1.2086,-1.2106,-1.1849,-1.2698,-1.3044,-1.2873,-1.3609,-1.3844,-1.3728,-1.4729,-1.4855,-1.4337,-1.4337,-1.4017,-1.3544,-1.3564,-1.3775,-1.4053,-1.3593,0.0,0.0,0.0,0.0,0.0,0.0,0.0,0.0,-1.3196,-1.3195,-1.3527,-1.5131,-1.5576,-1.55,-1.5218,-1.7289,-1.9886,-2.1296,-2.2917,-2.4886,-2.7643,-3.1083,-3.3262,-3.1506,-3.2081,-3.2573,-3.1406,-3.142,-3.1748,-3.2368,-3.2464,-3.2464,-3.2464,-3.1742,-3.118,-3.1068,-3.1068,-3.0733,-2.9895,-3.1022,-3.1254,-2.9907,-3.0265,-3.0301,-2.9829,-2.9792,-2.9792,-2.9792,-2.9792,-2.9792,-2.9792,-2.9792,-2.9792,-2.9792,-2.9792,-2.9792,-2.9792,-2.9792,-2.9792,-2.9817,-3.0319,-3.0545,-3.0557,-3.1059,-3.1271,-3.1361,-3.1858,-3.2135,-3.2277,-3.2835,-3.3061,-3.3124,0.0,0.0,0.0,0.0,0.0,0.0,0.0,0.0,0.0,0.0,0.0,0.0,0.0,0.0,0.0,0.0,0.0,0.0,0.0,-1.0649,-1.0821,-1.0821,-1.0867,-1.0919,-1.0965,-1.1042,-1.1157,-1.1348,-1.2173,-1.2549,-1.2519,-1.3735,-1.4263,-1.4258,-1.528,-1.5004,-1.3765,-1.3765,-1.3498,-1.3058,-1.3221,-1.3317,-1.3344,-1.3435,-1.3289,0.0,0.0,0.0,0.0,0.0,0.0,0.0,-1.3195,-1.3194,-1.3447,-1.4638,-1.7983,-2.0793,-1.8355,-1.9925,-2.2339,-2.2673,-2.4786,-2.7246,-2.9038,-3.0664,-3.1548,-3.0735,-3.1135,-3.1535,-3.1265,-3.1259,-3.1353,-3.1473,-3.1499,-3.1499,-3.1499,-3.1315,-3.0932,-3.0177,-3.0113,-3.0037,-2.983,-3.0073,-3.0125,-2.983,-2.9917,-2.9903,-2.9804,-2.9792,-2.9792,-2.9792,-2.9792,-2.9792,-2.9792,-2.9792,-2.9792,-2.9792,-2.9792,-2.9792,-2.9792,-2.9792,-2.9792,-2.9804,-2.9917,-2.9967,-2.998,-3.0082,-3.0396,-3.0783,-3.0884,-3.1449,-3.2215,-3.2349,-3.2701,-3.3124,0.0,0.0,0.0,0.0,0.0,0.0,0.0,0.0,0.0,0.0,0.0,0.0,0.0,0.0,0.0,0.0,0.0,0.0,0.0,0.0,-1.0696,-1.0696,-1.0696,-1.0649,-1.0515,-1.063,-1.0791,-1.0962,-1.1386,-1.1865,-1.2432,-1.3866,-1.4596,-1.4775,-1.5774,-1.5406,-1.3971,-1.3971,-1.3567,-1.2931,-1.3267,-1.3439,-1.3506,-1.3374,-1.3262,-1.3156,-1.2882,0.0,0.0,0.0,0.0,0.0,0.0,0.0,-1.3303,-1.3876,-1.6093,-1.8687,-2.0291,-2.1878,-2.3351,-2.4463,-2.6174,-2.7902,-2.9114,-2.9974,-3.0442,-3.0159,-3.0712,-3.1082,-3.062,-3.052,-3.052,-3.052,-3.052,-3.052,-3.052,-3.052,-3.0343,-2.9869,-2.9792,-2.9792,-2.9792,-2.9792,-2.9792,-2.9792,-2.9792,-2.9792,-2.9792,-2.9792,-2.9792,-2.9792,-2.9792,-2.9792,-2.9792,-2.9792,-2.9792,-2.9792,-2.9792,-2.9792,-2.9792,-2.9792,-2.9792,-2.9792,-2.9792,-2.9792,-2.9792,-2.9792,-2.9967,-3.0244,-3.0507,-3.0959,-3.1499,-3.1996,-3.2227,-3.2364,0.0,0.0,0.0,0.0,0.0,0.0,0.0,0.0,0.0,0.0,0.0,0.0,0.0,0.0,0.0,0.0,0.0,0.0,0.0,0.0,0.0,-1.063,-1.063,-1.0534,-1.0303,-1.0525,-1.063,-1.063,-1.0687,-1.1305,-1.2494,-1.3916,-1.4709,-1.5062,-1.6045,-1.5612,-1.4161,-1.4225,-1.3682,-1.2797,-1.3187,-1.346,-1.3615,-1.3112,-1.3097,-1.3273,-1.2836,-1.2437,-1.2188,-1.2811,0.0,0.0,0.0,0.0,-1.3765,-1.3771,-1.3502,-1.4465,-2.0361,-2.2523,-2.3554,-2.5428,-2.6658,-2.7589,-2.8312,-2.9026,-2.9528,-2.9628,-3.0355,-3.0733,-2.9934,-2.9792,-2.9792,-2.9792,-2.9792,-2.9754,-2.9654,-2.9729,-2.9754,-2.9654,-2.9729,-2.9792,-2.9792,-2.9792,-2.9792,-2.9792,-2.9792,-2.9792,-2.9792,-2.9792,-2.9792,-2.9792,-2.9691,-2.9641,-2.9641,-2.9553,-2.9553,-2.9641,-2.9741,-2.9792,-2.9792,-2.9792,-2.9792,-2.9792,-2.9792,-2.9792,-2.9792,-2.9792,-2.9792,-2.9842,-3.0294,-3.0505,-3.0693,-3.1584,-3.1693,-3.1538,0.0,0.0,0.0,0.0,0.0,0.0,0.0,0.0,0.0,0.0,-0.9277,-0.9496,0.0,0.0,0.0,0.0,0.0,0.0,0.0,0.0,0.0,-1.0351,-1.0351,-1.0341,-1.0303,-1.0341,-1.0351,-1.0351,-1.0592,-1.1399,-1.2762,-1.3619,-1.4244,-1.4703,-1.5598,-1.496,-1.3208,-1.3551,-1.313,-1.2199,-1.2286,-1.2321,-1.2346,-1.2258,-1.2255,-1.2281,-1.2229,-1.2148,-1.2107,-1.2201,-1.2669,0.0,0.0,0.0,-1.6058,-1.605,-1.4701,-1.3822,-1.6632,-2.0181,-2.318,-2.3475,-2.5119,-2.6691,-2.6799,-2.7614,-2.8461,-2.89,-2.9555,-2.9934,-2.983,-2.9792,-2.9792,-2.9792,-2.9792,-2.9616,-2.9076,-2.9478,-2.9603,-2.9063,-2.949,-2.9792,-2.9792,-2.9792,-2.9792,-2.9792,-2.9792,-2.9792,-2.9792,-2.9792,-2.9792,-2.9792,-2.9302,-2.9001,-2.9001,-2.8574,-2.8574,-2.9013,-2.9553,-2.9792,-2.9792,-2.9792,-2.9792,-2.9792,-2.9792,-2.9792,-2.9792,-2.9792,-2.9792,-2.9804,-2.988,-3.0165,-3.0641,-3.0746,-3.1063,-3.1436,0.0,0.0,0.0,0.0,0.0,0.0,0.0,0.0,0.0,0.0,0.0,-0.891,0.0,0.0,0.0,0.0,0.0,0.0,0.0,0.0,0.0,-1.0303,-1.0303,-1.0303,-1.0303,-1.0303,-1.037,-1.0515,-1.0486,-1.1366,-1.3087,-1.3221,-1.4026,-1.5404,-1.5794,-1.5309,-1.4192,-1.378,-1.3199,-1.2509,-1.221,-1.2291,-1.2519,-1.221,-1.2098,-1.21,-1.2093,-1.2099,-1.2259,-1.34,-1.434,-1.5009,-1.4737,0.0,0.0,0.0,-1.3953,-1.3942,-1.7412,-1.9763,-2.1628,-2.3189,-2.4569,-2.5703,-2.6364,-2.711,-2.7795,-2.8348,-2.8662,-2.9038,-2.9679,-2.9528,-2.9415,-2.9741,-2.9515,-2.9176,-2.8925,-2.8888,-2.875,-2.8499,-2.8963,-2.9315,-2.9315,-2.9603,-2.9792,-2.9792,-2.9792,-2.9651,-2.9321,-2.9315,-2.9151,-2.8849,-2.8587,-2.8461,-2.8461,-2.8235,-2.8235,-2.8461,-2.8725,-2.9013,-2.9315,-2.9315,-2.9478,-2.9792,-2.9792,-2.9792,-2.9792,-2.9792,-2.9792,-2.9792,-2.9792,-2.9928,-3.0179,-3.0494,-3.0549,-3.0602,0.0,0.0,0.0,0.0,0.0,0.0,0.0,0.0,0.0,0.0,0.0,0.0,0.0,0.0,0.0,0.0,0.0,0.0,0.0,0.0,0.0,-1.0303,-1.0303,-1.0303,-1.0303,-1.0303,-1.039,-1.0592,-1.0498,-1.1397,-1.32,-1.304,-1.3991,-1.5849,-1.5831,-1.5526,-1.4975,-1.3948,-1.3406,-1.3225,-1.2599,-1.2575,-1.2936,-1.2701,-1.2712,-1.2818,-1.2573,-1.2641,-1.3082,-1.4591,-1.5451,-1.5653,-1.4151,-1.3452,0.0,0.0,0.0,-1.4254,-1.7792,-1.8955,-1.9821,-2.2489,-2.3678,-2.4469,-2.5619,-2.6298,-2.6816,-2.7356,-2.7369,-2.7607,-2.8737,-2.8825,-2.8825,-2.9289,-2.9001,-2.8637,-2.8499,-2.8285,-2.8059,-2.7908,-2.8386,-2.8687,-2.8687,-2.9114,-2.9351,-2.9372,-2.9384,-2.9181,-2.8737,-2.871,-2.8524,-2.8125,-2.7961,-2.7896,-2.7896,-2.7896,-2.7896,-2.7896,-2.8034,-2.8323,-2.8687,-2.8687,-2.9038,-2.9578,-2.9729,-2.9792,-2.9792,-2.9792,-2.9792,-2.9792,-2.9792,-2.9792,-2.9855,-3.0252,-3.0124,-2.9919,0.0,0.0,0.0,0.0,0.0,0.0,0.0,0.0,0.0,0.0,0.0,0.0,-0.9574,-0.9852,-0.998,-1.0,-1.0,0.0,0.0,0.0,0.0,-1.0283,-1.0303,0.0,-1.0303,-1.0303,-1.0322,-1.0322,-1.0684,-1.1562,-1.2939,-1.3287,-1.4158,-1.5429,-1.5353,-1.5078,-1.4581,-1.3636,-1.3641,-1.424,-1.34,-1.3069,-1.316,-1.3746,-1.4389,-1.482,-1.3852,-1.413,-1.496,-1.505,-1.4749,-1.4405,-1.4859,-1.4161,-1.3206,0.0,0.0,0.0,-1.5616,-1.6706,-1.8066,-2.0314,-2.1644,-2.2736,-2.3866,-2.4556,-2.5096,-2.5624,-2.5335,-2.5322,-2.6461,-2.7469,-2.816,-2.8185,-2.816,-2.7959,-2.7444,-2.7795,-2.7908,-2.7394,-2.7808,-2.8147,-2.8147,-2.8172,-2.8189,-2.821,-2.8181,-2.8169,-2.8118,-2.8136,-2.8121,-2.8107,-2.7601,-2.7318,-2.7318,-2.7318,-2.7318,-2.7331,-2.7858,-2.8122,-2.8147,-2.8147,-2.8448,-2.8963,-2.9553,-2.9792,-2.9792,-2.9792,-2.9792,-2.9792,-2.9792,-2.9792,-2.9792,-2.9843,-2.9804,-2.9792,0.0,0.0,0.0,0.0,0.0,0.0,0.0,0.0,0.0,0.0,0.0,0.0,0.0,-0.9099,-0.9388,-0.9773,-0.9931,0.0,0.0,0.0,0.0,-1.0098,-1.0225,-1.0303,-1.0303,-1.0303,-1.0303,-1.0303,-1.043,-1.1182,-1.2437,-1.2593,-1.3485,-1.4944,-1.4926,-1.4992,-1.5044,-1.4011,-1.3782,-1.4076,-1.394,-1.3659,-1.3464,-1.4401,-1.5331,-1.6149,-1.6346,-1.5841,-1.5157,-1.5599,-1.5315,-1.4804,-1.5021,-1.4321,-1.3326,-1.2986,-1.313,-1.3715,-1.5132,-1.6161,-1.7275,-1.9145,-2.0715,-2.1983,-2.2749,-2.3627,-2.4443,-2.4996,-2.4913,-2.4913,-2.5335,-2.6,-2.6728,-2.7457,-2.6967,-2.6553,-2.6763,-2.6314,-2.605,-2.6189,-2.6703,-2.7228,-2.7544,-2.7896,-2.81,-2.8102,-2.8089,-2.7952,-2.7609,-2.7589,-2.7438,-2.7069,-2.6886,-2.6788,-2.6788,-2.6788,-2.6788,-2.6788,-2.6989,-2.7271,-2.7599,-2.7954,-2.8373,-2.8938,-2.9554,-2.9792,-2.9792,-2.9792,-2.9792,-2.9792,-2.9792,-2.9792,-2.9792,-2.9792,-2.9792,-2.9792,0.0,0.0,0.0,0.0,0.0,0.0,0.0,0.0,0.0,-0.7648,0.0,0.0,0.0,0.0,-0.9139,-0.9525,-0.9763,-0.9891,-0.9891,-0.9961,-1.0019,-1.0098,-1.0225,-1.0303,-1.0303,-1.0303,-1.0303,-1.0303,-1.0449,-1.1016,-1.2012,-1.2314,-1.3091,-1.4308,-1.4308,-1.4773,-1.5533,-1.4387,-1.4182,-1.4602,-1.465,-1.4681,-1.4814,-1.5729,-1.6531,-1.723,-1.7795,-1.7154,-1.6106,-1.6228,-1.5895,-1.5406,-1.5164,-1.4357,-1.343,-1.3051,-1.2919,-1.3146,-1.4265,-1.5251,-1.6371,-1.803,-1.9447,-2.0727,-2.202,-2.2749,-2.3364,-2.4073,-2.4224,-2.4224,-2.4224,-2.4512,-2.5146,-2.6276,-2.5824,-2.5473,-2.585,-2.5285,-2.4913,-2.5297,-2.5674,-2.605,-2.6427,-2.6791,-2.7047,-2.7264,-2.7253,-2.717,-2.7049,-2.7023,-2.6857,-2.6499,-2.6499,-2.6499,-2.6499,-2.6499,-2.6499,-2.6499,-2.6499,-2.6678,-2.7049,-2.7387,-2.7957,-2.8648,-2.9076,-2.944,-2.9792,-2.9792,-2.9792,-2.9792,-2.9792,-2.9792,-2.9792,-2.9792,-2.9792,-2.9792,0.0,0.0,0.0,0.0,0.0,0.0,0.0,0.0,-0.7627,-0.7979,0.0,0.0,0.0,0.0,0.0,-0.9317,-0.9563,-0.9692,-0.9683,-0.9872,-1.0078,-1.0264,0.0,0.0,-1.0303,-1.0303,-1.0303,-1.0303,-1.0693,-1.1123,-1.1626,-1.2465,-1.3076,-1.3506,-1.3506,-1.4401,-1.5837,-1.459,-1.4794,-1.5932,-1.5578,-1.6087,-1.7138,-1.7781,-1.8039,-1.8109,-1.8018,-1.7986,-1.7849,-1.6916,-1.6404,-1.6008,-1.5313,-1.4372,-1.3509,-1.3438,-1.3186,-1.2927,0.0,0.0,0.0,-1.6923,-1.7777,-1.8882,-2.1553,-2.1832,-2.1794,-2.2832,-2.3083,-2.3108,-2.3108,-2.3108,-2.3459,-2.4562,-2.4738,-2.475,-2.4763,-2.475,-2.475,-2.4763,-2.4763,-2.4775,-2.4788,-2.4788,-2.5008,-2.5571,-2.561,-2.5859,-2.6487,-2.6499,-2.6499,-2.6499,-2.6499,-2.6499,-2.6499,-2.6499,-2.6499,-2.6499,-2.6499,-2.6499,-2.6499,-2.6533,-2.709,-2.8121,-2.8122,-2.8775,-2.9792,-2.9792,-2.9792,-2.9792,-2.9792,-2.9792,-2.9792,-2.9792,-2.9792,-2.9792,0.0,0.0,0.0,0.0,0.0,-0.7189,-0.7328,-0.7648,-0.7979,0.0,0.0,0.0,-0.9082,-0.9471,-0.9742,-0.9742,-0.9804,-0.973,-0.9426,-0.9645,-0.9812,-0.9872,-1.0127,-1.0303,-1.0303,-1.0303,-1.0303,-1.0303,-1.042,-1.0851,-1.1606,-1.1861,-1.2514,-1.3506,-1.3506,-1.3761,-1.4166,-1.3756,-1.4185,-1.5182,-1.5638,-1.6113,-1.6615,-1.7684,-1.8061,-1.8018,-1.8046,-1.783,-1.7463,-1.7173,-1.6825,-1.6298,-1.5394,-1.4547,-1.3868,-1.3633,-1.358,-1.363,-1.363,0.0,0.0,0.0,0.0,0.0,-1.8883,-2.0318,-2.1525,-2.1642,-2.2426,-2.3108,-2.3108,-2.3108,-2.3208,-2.3521,-2.3572,-2.371,-2.4167,-2.3835,-2.3722,-2.418,-2.423,-2.4381,-2.475,-2.4788,-2.5013,-2.5553,-2.5608,-2.5859,-2.6487,-2.6499,-2.6499,-2.6499,-2.6499,-2.6499,-2.6499,-2.6499,-2.6499,-2.6499,-2.6499,-2.6499,-2.6499,-2.6904,-2.7442,-2.8129,-2.8499,-2.911,-2.9792,-2.9792,-2.9792,-2.9792,-2.9792,-2.9792,-2.9792,-2.9792,-2.9792,-2.9792,0.0,0.0,0.0,0.0,-0.7468,-0.7681,-0.7695,-0.8284,-0.8708,0.0,0.0,0.0,-0.947,-0.9917,-1.0179,-1.0005,-0.9934,-0.9804,-0.9565,-0.9645,-0.9742,-0.9812,-1.0039,-1.0205,-1.0303,-1.0303,-1.0303,-1.0303,-1.0303,-1.0655,-1.131,-1.1518,-1.2093,-1.2964,-1.3164,-1.3242,-1.3257,-1.3213,-1.3601,-1.4353,-1.5548,-1.6237,-1.6658,-1.7959,-1.8397,-1.8392,-1.8436,-1.8244,-1.7916,-1.7684,-1.729,-1.6718,-1.5778,-1.5048,-1.4446,-1.385,-1.3798,-1.3951,-1.3906,-1.4429,-1.5082,-1.5469,0.0,0.0,-1.856,-1.9801,-2.0917,-2.1741,-2.2568,-2.3108,-2.3108,-2.3108,-2.3108,-2.3108,-2.3108,-2.3221,-2.359,-2.3321,-2.3233,-2.3572,-2.364,-2.3735,-2.4061,-2.4086,-2.4318,-2.4906,-2.5144,-2.5622,-2.6461,-2.6499,-2.6499,-2.6499,-2.6499,-2.6499,-2.6499,-2.6499,-2.6499,-2.6499,-2.6499,-2.6499,-2.6499,-2.6831,-2.7263,-2.7799,-2.8323,-2.8898,-2.9448,-2.9715,-2.9792,-2.9792,-2.9792,-2.9792,-2.9792,-2.9792,-2.9792,-2.9792,0.0,0.0,-0.7118,-0.744,-0.8076,-0.8445,-0.8157,-0.9019,-0.9567,0.0,-0.9538,-0.995,-1.0331,-1.0602,-1.0619,-1.0268,-1.0078,-0.9955,-0.991,-0.9817,-0.9819,-0.999,-1.0019,-1.0117,-1.0303,-1.0352,-1.0371,-1.0371,-1.042,-1.0645,-1.1044,-1.1477,-1.1897,-1.2301,-1.2705,-1.2876,-1.2837,-1.2935,-1.3164,-1.3643,-1.5292,-1.6337,-1.7083,-1.8455,-1.8962,-1.89,-1.8913,-1.8849,-1.8713,-1.8184,-1.7689,-1.7162,-1.6335,-1.5758,-1.5162,-1.4234,-1.4082,-1.4194,-1.4159,-1.461,-1.5209,-1.568,-1.5823,0.0,-1.9118,-1.9478,-1.9904,-2.1981,-2.2555,-2.2643,-2.2643,-2.2643,-2.2643,-2.2643,-2.2785,-2.294,-2.3083,-2.3108,-2.3108,-2.3108,-2.3108,-2.3108,-2.3108,-2.3108,-2.3341,-2.3935,-2.4558,-2.5365,-2.6436,-2.6499,-2.6499,-2.6499,-2.6499,-2.6499,-2.6499,-2.6499,-2.6499,-2.6499,-2.6499,-2.6499,-2.6499,-2.6499,-2.6784,-2.7327,-2.7799,-2.8313,-2.8864,-2.9333,-2.9651,-2.9792,-2.9792,-2.9792,-2.9779,-2.9651,-2.96,-2.9588,0.0,-0.7,-0.7101,-0.7445,-0.7879,-0.8342,-0.8738,-0.932,-0.975,-0.9864,-1.0248,-1.0877,-1.1858,-1.1482,-1.1155,-1.1078,-1.0735,-1.0354,-0.9924,-1.0041,-1.0077,-0.9999,-1.0157,-1.0264,-1.0303,-1.0615,-1.0791,-1.0791,-1.1164,-1.1565,-1.195,-1.2038,-1.2334,-1.2778,-1.2866,-1.2686,-1.2379,-1.3096,-1.3437,-1.3594,-1.4619,-1.6148,-1.7908,-1.9083,-1.9267,-1.8894,-1.8889,-1.8606,-1.8163,-1.8102,-1.7729,-1.7216,-1.6707,-1.6437,-1.6146,-1.5265,-1.5254,-1.5539,-1.5576,-1.5706,-1.5779,-1.5726,-1.5955,0.0,-1.5995,-1.6991,-1.8017,-1.8223,-1.9131,-1.9873,-1.9873,-1.9873,-1.9873,-1.9873,-2.08,-2.1878,-2.2952,-2.3108,-2.3108,-2.3108,-2.3108,-2.3108,-2.3108,-2.3108,-2.3351,-2.3959,-2.4912,-2.5754,-2.6474,-2.6499,-2.6499,-2.6499,-2.6499,-2.6499,-2.6499,-2.6499,-2.6499,-2.6499,-2.6499,-2.6499,-2.6499,-2.6499,-2.6784,-2.7323,-2.7398,-2.7773,-2.8232,-2.7917,-2.856,-2.9792,-2.9792,-2.9792,-2.9703,-2.8762,-2.8433,-2.8307,-0.721,-0.7252,-0.7475,-0.8165,-0.8424,-0.8784,-0.9439,-1.0051,-1.0499,-1.0623,-1.1353,-1.1987,-1.2355,-1.2262,-1.2074,-1.1876,-1.1319,-1.0888,-1.0617,-1.0162,-1.0016,-1.0239,-1.0274,-1.0449,-1.0741,-1.1091,-1.1252,-1.1252,-1.1477,-1.1809,-1.2203,-1.2203,-1.2662,-1.3486,-1.3066,-1.2988,-1.3159,-1.3193,-1.3367,-1.3729,-1.5167,-1.6648,-1.8141,-1.9354,-1.9766,-1.972,-1.9458,-1.909,-1.865,-1.8701,-1.8381,-1.7894,-1.7236,-1.7027,-1.6795,-1.5662,-1.5632,-1.5911,-1.5725,-1.5661,-1.5622,-1.5534,-1.5468,0.0,0.0,-1.63,-1.6991,-1.7705,-1.823,-1.8622,-1.8815,-1.8862,-1.8862,-1.8862,-2.0153,-2.1151,-2.1151,-2.2273,-2.3108,-2.3108,-2.3108,-2.3108,-2.3108,-2.3108,-2.3472,-2.4341,-2.4896,-2.5576,-2.644,-2.6499,-2.6261,-2.5787,-2.5741,-2.5505,-2.5,-2.5505,-2.5741,-2.5741,-2.6261,-2.6499,-2.6499,-2.6499,-2.6665,-2.6904,-2.6665,-2.6706,-2.6907,-2.6469,-2.6878,-2.7847,-2.8071,-2.8169,-2.8055,-2.749,-2.7292,-2.7215,-0.744,-0.7565,-0.7876,-0.8739,-0.9018,-0.9361,-1.0011,-1.0735,-1.128,-1.142,-1.2254,-1.2767,-1.256,-1.2735,-1.2735,-1.2426,-1.1791,-1.1376,-1.1285,-1.0445,-1.0129,-1.0588,-1.0461,-1.064,-1.114,-1.1462,-1.1645,-1.1645,-1.1777,-1.2025,-1.233,-1.233,-1.2876,-1.3851,-1.335,-1.3457,-1.3948,-1.3467,-1.3656,-1.4437,-1.6138,-1.7227,-1.7944,-1.9102,-1.9966,-2.0559,-2.0044,-1.9627,-1.9277,-1.9189,-1.8943,-1.8544,-1.7652,-1.7513,-1.7387,-1.6029,-1.6004,-1.6304,-1.5845,-1.5704,-1.5641,-1.5405,-1.5112,-1.5073,0.0,0.0,0.0,-1.7447,-1.7465,-1.7341,-1.7755,-1.7755,-1.7715,-1.7715,-1.9177,-1.9888,-1.8635,-2.0559,-2.2228,-2.2459,-2.2847,-2.3027,-2.2885,-2.2785,-2.3255,-2.455,-2.4402,-2.4852,-2.6249,-2.6321,-2.5918,-2.5046,-2.5011,-2.4529,-2.3524,-2.4307,-2.4729,-2.4719,-2.5517,-2.5918,-2.5918,-2.5918,-2.5918,-2.5906,-2.5517,-2.5361,-2.5334,-2.4897,-2.4925,-2.5285,-2.6064,-2.6427,-2.649,-2.6251,-2.616,-2.616,-0.7495,-0.7745,-0.7981,-0.8099,-0.8942,-0.9734,-1.006,-1.0781,-1.1515,-1.218,-1.2241,-1.243,-1.3049,-1.2727,-1.2441,-1.2402,-1.2004,-1.1616,-1.1327,-1.1173,-1.1071,-1.0956,-1.0818,-1.0837,-1.1014,-1.1524,-1.1779,-1.1779,-1.242,-1.2788,-1.2812,-1.2812,-1.2905,-1.3047,-1.3701,-1.3812,-1.3623,-1.4287,-1.5254,-1.6422,-1.707,-1.7265,-1.7286,-1.7968,-1.9198,-2.0518,-1.9925,-1.9521,-1.9228,-1.8812,-1.8648,-1.8463,-1.765,-1.789,-1.8208,-1.6939,-1.7112,-1.7685,-1.7265,-1.7144,-1.6889,-1.5759,-1.5718,-1.5546,-1.408,0.0,-1.4368,-1.4486,0.0,-1.458,-1.4989,0.0,0.0,-1.4529,-1.599,-1.681,-1.5944,-1.7409,-1.9002,-2.0112,-2.1944,-2.2817,-2.2125,-2.1601,-2.2097,-2.3966,-2.2997,-2.3313,-2.5573,-2.5682,-2.5505,-2.5,-2.4999,-2.4514,-2.349,-2.3594,-2.3679,-2.3674,-2.379,-2.3847,-2.3847,-2.3847,-2.3847,-2.3847,-2.379,-2.3773,-2.37,-2.3193,-2.3013,-2.3261,-2.5126,-2.6131,-2.6379,-2.5389,-2.4989,-2.4864,-0.7835,-0.8062,-0.8427,-0.8847,-0.9141,-0.9567,-1.0331,-1.1294,-1.2142,-1.2691,-1.2844,-1.3122,-1.3655,-1.3515,-1.3332,-1.3207,-1.2852,-1.2483,-1.2128,-1.1672,-1.1529,-1.1794,-1.149,-1.1521,-1.192,-1.2104,-1.2287,-1.2431,-1.2745,-1.2905,-1.2905,-1.2905,-1.3145,-1.3633,-1.4238,-1.4687,-1.5058,-1.5654,-1.5524,-1.5102,-1.6754,-1.7298,-1.7288,-1.888,-1.9947,-2.0581,-2.0313,-2.0172,-2.0038,-1.9814,-1.9403,-1.8978,-1.888,-1.8572,-1.8158,-1.7615,-1.7559,-1.7576,-1.7108,-1.7181,-1.7163,-1.6118,-1.5988,-1.576,-1.4516,-1.3979,-1.3821,-1.4033,0.0,0.0,0.0,0.0,0.0,0.0,-1.5316,-1.5928,-1.4807,-1.6573,-1.8193,-1.8725,-1.9408,-1.9953,-2.0352,-2.1117,-2.2036,-2.3173,-2.2717,-2.3087,-2.4683,-2.5294,-2.4883,-2.3305,-2.3821,-2.3367,-2.1845,-2.2359,-2.2635,-2.2635,-2.3228,-2.3501,-2.3501,-2.3501,-2.3501,-2.3453,-2.2896,-2.2638,-2.2569,-2.1808,-2.1769,-2.2325,-2.3223,-2.3802,-2.4156,-2.3911,-2.3803,-2.374,-0.8331,-0.8483,-0.8774,-0.9224,-0.9296,-0.9688,-1.0826,-1.1695,-1.2415,-1.294,-1.3169,-1.3526,-1.4116,-1.3966,-1.3839,-1.3901,-1.3396,-1.2946,-1.2653,-1.2071,-1.1934,-1.2303,-1.2027,-1.2044,-1.2369,-1.2485,-1.2569,-1.2676,-1.2832,-1.2905,-1.2905,-1.2905,-1.3271,-1.3968,-1.4658,-1.54,-1.6134,-1.667,-1.6249,-1.5355,-1.6945,-1.7754,-1.8231,-1.9693,-2.04,-2.0605,-2.0605,-2.0605,-2.0586,-2.0468,-1.9989,-1.9513,-1.9691,-1.917,-1.8484,-1.8395,-1.8232,-1.7959,-1.7369,-1.7457,-1.7461,-1.6369,-1.6095,-1.584,-1.4834,-1.4219,-1.3906,-1.4065,-1.374,0.0,0.0,0.0,-1.3714,-1.3899,0.0,-1.509,-1.378,-1.5316,-1.6713,-1.7059,-1.7172,-1.7695,-1.8827,-1.9968,-2.1068,-2.2038,-2.1774,-2.2223,-2.3714,-2.4306,-2.3769,-2.1876,-2.2664,-2.2302,-2.0605,-2.1288,-2.1612,-2.1651,-2.2351,-2.2727,-2.2727,-2.2727,-2.2727,-2.2678,-2.1927,-2.1612,-2.1553,-2.0868,-2.1024,-2.1712,-2.184,-2.2154,-2.2562,-2.2974,-2.3091,-2.3091,-0.8982,-0.9023,-0.8895,-0.8578,-0.9394,-1.045,-1.1584,-1.1815,-1.2105,-1.2906,-1.2849,-1.3154,-1.4281,-1.3635,-1.3423,-1.4118,-1.3352,-1.2743,-1.2509,-1.241,-1.2287,-1.2123,-1.2284,-1.2212,-1.1835,-1.2325,-1.2445,-1.2126,-1.2652,-1.2905,-1.2905,-1.2905,-1.3115,-1.3584,-1.4834,-1.5644,-1.6153,-1.7024,-1.8057,-1.9049,-1.8289,-1.9003,-2.04,-1.9609,-1.9881,-2.0605,-2.0605,-2.0605,-2.0537,-2.0078,-1.9902,-1.9805,-1.9424,-1.9551,-1.9756,-1.9365,-1.9521,-1.9648,-1.8773,-1.8549,-1.8159,-1.6515,-1.6095,-1.5762,-1.4416,-1.4463,-1.4629,-1.4192,-1.4453,-1.4764,-1.4756,-1.4404,-1.3958,-1.3594,-1.3877,0.0,0.0,-1.2714,-1.35,-1.4676,-1.6008,-1.714,-1.795,-1.7667,-1.8346,-2.049,-1.946,-1.9915,-2.2609,-2.236,-2.1913,-2.1444,-2.1823,-2.1592,-2.0605,-2.0615,-2.0654,-2.0654,-2.0664,-2.0702,-2.0702,-2.0702,-2.0702,-2.0702,-2.0654,-2.0654,-2.0654,-2.0605,-2.0858,-2.1252,-2.174,-2.2167,-2.2562,-2.2974,-2.3091,-2.3091,-0.9451,-0.9605,-0.9619,-0.9296,-0.9529,-1.014,-1.1293,-1.2107,-1.2772,-1.3281,-1.3493,-1.3965,-1.4827,-1.4672,-1.4477,-1.4417,-1.4099,-1.3705,-1.3193,-1.33,-1.3354,-1.3219,-1.3421,-1.3442,-1.3324,-1.3377,-1.3295,-1.3085,-1.3224,-1.3154,-1.2905,-1.2905,-1.2983,-1.3164,-1.4717,-1.582,-1.6602,-1.8037,-1.8896,-1.9268,-1.8983,-1.9306,-2.0031,-2.0127,-2.0351,-2.0605,-2.0605,-2.0605,-2.0586,-2.0429,-2.0156,-1.9941,-2.0126,-1.9844,-1.9531,-1.9668,-1.9609,-1.9434,-1.9141,-1.9268,-1.9104,-1.7705,-1.7353,-1.7012,-1.5703,-1.5303,-1.5078,-1.4648,-1.4687,-1.4813,-1.4813,-1.4434,-1.4065,-1.3919,-1.3782,-1.3467,0.0,-1.2807,-1.3052,-1.3459,-1.4915,-1.5763,-1.5434,-1.6853,-1.8067,-1.8802,-1.8997,-1.9586,-2.0787,-2.1571,-2.1505,-2.0446,-2.1425,-2.1553,-2.0605,-2.0605,-2.0605,-2.0605,-2.0605,-2.0605,-2.0605,-2.0605,-2.0605,-2.0605,-2.0605,-2.0761,-2.1014,-2.1014,-2.1435,-2.2062,-2.2242,-2.2518,-2.2921,-2.3038,-2.3091,-2.3091,-1.0214,-1.014,-1.0038,-0.9816,-1.0017,-1.0583,-1.173,-1.276,-1.3479,-1.3673,-1.418,-1.4746,-1.5358,-1.5209,-1.5018,-1.4999,-1.4614,-1.423,-1.3867,-1.3774,-1.3756,-1.3719,-1.3907,-1.3895,-1.3676,-1.3956,-1.3909,-1.3521,-1.3659,-1.3594,-1.332,-1.3174,-1.3287,-1.3639,-1.4853,-1.6074,-1.7233,-1.8525,-1.9316,-1.9774,-1.9774,-1.9855,-2.0022,-2.0198,-2.0304,-2.0352,-2.0546,-2.0605,-2.0605,-2.0605,-2.0419,-2.0195,-2.0517,-2.0224,-1.9795,-2.0068,-1.9951,-1.9744,-1.9551,-1.9707,-1.9639,-1.8516,-1.8198,-1.7891,-1.6592,-1.6201,-1.5996,-1.5566,-1.5352,-1.541,-1.584,-1.5078,-1.4387,-1.4533,-1.3948,-1.3359,0.0,-1.2905,-1.2905,-1.2905,-1.3841,-1.4399,-1.4128,-1.561,-1.6984,-1.7943,-1.8238,-1.8764,-1.963,-2.0565,-2.0624,-1.9725,-2.0865,-2.1229,-2.0605,-2.0605,-2.0605,-2.0605,-2.0761,-2.0751,-2.0605,-2.0761,-2.0751,-2.0605,-2.0605,-2.0761,-2.1015,-2.1121,-2.1635,-2.23,-2.2432,-2.2751,-2.3091,-2.3091,-2.3091,-2.3091,-1.1233,-1.072,-1.0234,-1.0254,-1.0874,-1.173,-1.2863,-1.3626,-1.4103,-1.4151,-1.4787,-1.5381,-1.5745,-1.5245,-1.5112,-1.5807,-1.4815,-1.4266,-1.4505,-1.391,-1.3608,-1.3615,-1.377,-1.3565,-1.3007,-1.4034,-1.4234,-1.3449,-1.3895,-1.4107,-1.4077,-1.3704,-1.3945,-1.4735,-1.5176,-1.6338,-1.7978,-1.8383,-1.9365,-2.0605,-2.0605,-2.0586,-2.0518,-1.9936,-1.9822,-1.9971,-2.0449,-2.0605,-2.0605,-2.0605,-2.0605,-2.0605,-2.0605,-2.0605,-2.0605,-2.0605,-2.0605,-2.0517,-2.0059,-1.9941,-1.9746,-1.887,-1.8646,-1.8305,-1.7077,-1.7148,-1.7324,-1.6853,-1.6475,-1.6584,-1.7725,-1.6269,-1.499,-1.5322,-1.4326,-1.3359,-1.2964,-1.2925,-1.2944,-1.2964,-1.2983,-1.3262,-1.3977,-1.4124,-1.5199,-1.7664,-1.715,-1.7454,-1.9156,-1.9257,-1.9258,-1.9323,-2.0155,-2.0605,-2.0605,-2.0605,-2.0596,-2.0625,-2.1006,-2.1006,-2.0684,-2.1055,-2.1015,-2.0615,-2.0654,-2.0654,-2.0684,-2.1109,-2.1537,-2.2001,-2.2393,-2.2751,-2.3091,-2.3091,-2.3091,-2.3091,-1.1336,-1.1593,-1.1987,-1.2515,-1.2346,-1.2389,-1.3245,-1.3775,-1.4318,-1.4851,-1.5113,-1.5426,-1.5773,-1.5654,-1.5535,-1.5513,-1.5234,-1.4932,-1.4536,-1.4511,-1.4377,-1.3988,-1.4369,-1.4451,-1.4112,-1.4478,-1.4547,-1.428,-1.4248,-1.4069,-1.3738,-1.3864,-1.376,-1.3443,-1.45,-1.5732,-1.7077,-1.7828,-1.9102,-2.0605,-2.0605,-2.0313,-1.9964,-2.0275,-2.0177,-1.9971,-2.0449,-2.0605,-2.0605,-2.0605,-2.0605,-2.0605,-2.0605,-2.0605,-2.0605,-2.0605,-2.0605,-2.0576,-2.0468,-2.0439,-2.0273,-1.9727,-1.9346,-1.8955,-1.8266,-1.8198,-1.8159,-1.774,-1.7808,-1.775,-1.7145,-1.658,-1.5947,-1.5088,-1.4141,-1.3359,-1.2964,-1.3154,-1.3467,-1.3753,-1.4102,-1.4014,-1.3271,-1.4346,-1.535,-1.6028,-1.644,-1.7301,-1.871,-1.8503,-1.8789,-1.9703,-2.0308,-2.0605,-2.0605,-2.0605,-2.0734,-2.1033,-2.1135,-2.1326,-2.157,-2.1663,-2.145,-2.1073,-2.1396,-2.1553,-2.1593,-2.1999,-2.2423,-2.2804,-2.2921,-2.3028,-2.3091,-2.3091,-2.3091,-2.3091,-1.2261,-1.2869,-1.3476,-1.3716,-1.3571,-1.3567,-1.3973,-1.4503,-1.4937,-1.5162,-1.5531,-1.5805,-1.5778,-1.5812,-1.5718,-1.5598,-1.5471,-1.528,-1.4897,-1.4778,-1.4614,-1.431,-1.4457,-1.4462,-1.4317,-1.4697,-1.4812,-1.4692,-1.466,-1.4472,-1.4123,-1.4305,-1.4036,-1.3477,-1.457,-1.5684,-1.6794,-1.8208,-1.9394,-2.0303,-2.0527,-2.041,0.0,-2.0459,-2.0449,-2.0234,-2.0517,-2.0605,-2.0605,-2.0605,-2.0605,-2.0635,-2.0791,-2.0859,-2.0898,-2.1124,-2.1006,-2.0859,-2.0859,-2.0713,-2.0546,-2.0254,-2.0019,-1.9678,-1.9062,-1.8926,-1.8848,-1.8613,-1.8457,-1.8334,-1.8408,-1.7334,-1.6016,-1.4707,-1.4065,-1.3675,-1.3467,-1.3633,-1.3841,-1.4075,-1.4328,-1.4141,-1.3242,-1.4521,-1.541,-1.541,-1.6045,-1.6758,-1.7471,-1.7991,-1.86,-1.9323,-2.0343,-2.079,-2.0605,-2.0987,-2.1188,-2.1196,-2.1589,-2.1788,-2.1911,-2.1884,-2.1662,-2.1222,-2.1469,-2.158,-2.1639,-2.2247,-2.2616,-2.2858,-2.3038,-2.3091,-2.3091,-2.3091,-2.3091,-2.3091,-1.3528,-1.4179,-1.459,-1.4298,-1.4543,-1.4772,-1.4835,-1.5353,-1.5632,-1.5307,-1.5876,-1.6177,-1.5831,-1.579,-1.5784,-1.5784,-1.5598,-1.5445,-1.54,-1.4902,-1.4543,-1.4501,-1.4254,-1.4088,-1.4088,-1.4792,-1.5057,-1.4808,-1.5101,-1.5069,-1.4729,-1.4785,-1.4521,-1.4065,-1.4923,-1.5918,-1.6999,-1.9026,-1.998,-2.0079,-2.045,-2.0644,-2.0683,-2.0625,-2.0605,-2.0605,-2.0605,-2.0644,-2.0693,-2.0693,-2.0732,-2.084,-2.1093,-2.119,-2.1268,-2.1689,-2.1533,-2.121,-2.1268,-2.1035,-2.0762,-2.0703,-2.0693,-2.0478,-1.9639,-1.9453,-1.9453,-1.9453,-1.8867,-1.8769,-2.0184,-1.8198,-1.5928,-1.4572,-1.4455,-1.4513,-1.4455,-1.4494,-1.4494,-1.4377,-1.4465,0.0,-1.3652,-1.4648,-1.5312,-1.5215,-1.5596,-1.5987,-1.633,-1.7605,-1.8526,-1.8854,-2.0324,-2.0964,-2.0692,-2.1413,-2.1671,-2.1387,-2.2126,-2.2345,-2.2036,-2.2051,-2.1797,-2.1387,-2.1451,-2.1413,-2.142,-2.2254,-2.2572,-2.2625,-2.2974,-2.3091,-2.3091,-2.3091,-2.3091,-2.3091,-1.3982,-1.4367,-1.4752,-1.4983,-1.5051,-1.5235,-1.5568,-1.549,-1.5459,-1.5654,-1.5815,-1.5892,-1.5806,-1.5812,-1.5784,-1.5784,-1.5785,-1.5651,-1.5394,-1.5107,-1.4774,-1.4505,-1.4224,-1.4088,-1.4088,-1.5016,-1.5286,-1.4809,-1.5601,-1.5425,-1.4317,-1.4636,-1.4365,-1.3627,-1.4512,-1.5967,-1.7881,-1.9307,-2.0294,-2.0966,-2.0718,-2.0806,-2.1074,-2.0742,-2.0605,-2.0605,-2.0605,-2.0801,-2.1073,-2.1073,-2.1357,-2.1611,-2.1288,-2.119,-2.121,-2.1288,-2.1249,-2.1268,-2.167,-2.1709,-2.1572,-2.1211,-2.1073,-2.0986,-2.0498,-2.038,-2.038,-2.038,-2.0263,-2.0038,-1.958,-1.8506,-1.7246,-1.5968,-1.6338,-1.6689,-1.6297,-1.6592,-1.6543,-1.584,-1.6367,-1.6084,-1.4182,-1.4551,-1.4746,-1.4358,-1.4406,-1.5381,-1.7559,-1.7274,-1.8012,-2.0188,-2.0557,-2.0816,-2.1105,-2.1244,-2.1646,-2.2289,-2.2432,-2.2634,-2.2911,-2.2882,-2.2666,-2.2301,-2.2643,-2.2565,-2.231,-2.2788,-2.2984,-2.2984,-2.3091,-2.3091,-2.3091,-2.3091,-2.3091,-2.3091,-1.53,-1.5411,-1.557,-1.5801,-1.5648,-1.5566,-1.576,-1.5653,-1.5635,-1.5761,-1.5819,-1.5778,-1.5778,-1.5785,-1.5784,-1.5784,-1.5784,-1.5705,-1.5418,-1.5264,-1.5246,-1.5332,-1.5212,-1.5345,-1.576,-1.6244,-1.6236,-1.5688,-1.6111,-1.5577,-1.4214,-1.4839,-1.4531,-1.3574,-1.5107,-1.6621,-1.8105,-1.9619,-2.0528,-2.0891,-2.1163,-2.13,-2.1291,-2.1278,-2.129,-2.129,-2.129,-2.1533,-2.1826,-2.1346,-2.1523,-2.1885,-2.1894,-2.1853,-2.1902,-2.2116,-2.2029,-2.1902,-2.2148,-2.2051,-2.1836,-2.1621,-2.1572,-2.1455,-2.1016,-2.0908,-2.084,-2.0654,-2.0605,-2.0341,-1.9443,-1.8584,-1.7803,-1.7178,-1.7061,-1.7129,-1.733,-1.7578,-1.7549,-1.7119,-1.7061,-1.6543,-1.5264,-1.479,-1.4512,-1.4465,-1.4473,-1.541,-1.7568,-1.7295,-1.7939,-1.9881,-2.0566,-2.0883,-2.0876,-2.1546,-2.1984,-2.221,-2.2619,-2.2896,-2.3091,-2.2867,-2.2679,-2.2493,-2.272,-2.2686,-2.2546,-2.2941,-2.3091,-2.3091,-2.3091,-2.3091,-2.3091,-2.3091,-2.3091,-2.3091,-1.6382,-1.6353,-1.633,-1.6277,-1.5996,-1.5802,-1.5788,-1.5807,-1.5799,-1.5819,-1.5802,-1.5802,-1.5802,-1.5824,-1.5784,-1.5784,-1.5784,-1.5732,-1.5504,-1.5431,-1.554,-1.5944,-1.5908,-1.6144,-1.6686,-1.6917,-1.6842,-1.6402,-1.6465,-1.586,-1.462,-1.5148,-1.4952,-1.4277,-1.6132,-1.7545,-1.8643,-2.004,-2.0749,-2.106,-2.1834,-2.196,-2.1675,-2.1914,-2.1936,-2.1885,-2.1885,-2.2158,-2.2412,-2.1697,-2.1797,-2.2197,-2.2441,-2.251,-2.2578,-2.2867,-2.2773,-2.2529,-2.2617,-2.2402,-2.2129,-2.2041,-2.2021,-2.1904,-2.1434,-2.1327,-2.125,-2.0801,-2.0674,-2.0341,-1.9443,-1.8887,-1.8496,-1.8311,-1.7871,-1.7783,-1.8457,-1.8555,-1.8447,-1.8174,-1.7594,-1.6992,-1.6279,-1.5476,-1.5013,-1.5119,-1.4944,-1.5546,-1.7158,-1.7367,-1.7969,-1.9248,-2.0283,-2.0732,-2.0605,-2.1777,-2.2305,-2.2158,-2.2822,-2.3091,-2.3081,-2.275,-2.264,-2.2627,-2.2639,-2.2633,-2.2633,-2.2985,-2.3091,-2.3091,-2.3091,-2.3091,-2.3091,-2.3091,-2.3091,-2.3091,-1.6478,-1.6378,-1.6301,-1.5934,-1.5848,-1.5802,-1.5814,-1.5807,-1.5812,-1.5799,-1.5792,-1.5792,-1.5792,-1.5792,-1.5784,-1.5784,-1.5784,-1.5771,-1.5744,-1.5538,-1.5417,-1.5448,-1.5237,-1.4998,-1.4779,-1.5726,-1.6178,-1.6065,-1.665,-1.6603,-1.5907,-1.5547,-1.5751,-1.6443,-1.7451,-1.8799,-2.0352,-2.0514,-2.1267,-2.235,-2.2794,-2.2742,-2.2402,-2.2308,-2.2109,-2.1885,-2.1885,-2.2158,-2.25,-2.2422,-2.2676,-2.2916,-2.2617,-2.251,-2.2519,-2.2559,-2.2539,-2.2598,-2.2935,-2.3013,-2.2886,-2.2549,-2.2451,-2.2344,-2.1924,-2.1826,-2.1699,-2.122,-2.085,-2.0341,-1.9443,-1.9891,-2.0106,-1.9297,-1.9756,-2.0273,-2.0351,-2.037,-1.993,-1.8685,-1.8857,-1.8418,-1.6794,-1.6921,-1.6844,-1.6195,-1.543,-1.5492,-1.6707,-1.7168,-1.7969,-1.9248,-1.9404,-1.9862,-2.0595,-2.1484,-2.2305,-2.2984,-2.3052,-2.3091,-2.3091,-2.3052,-2.3033,-2.3023,-2.3037,-2.3041,-2.3036,-2.3086,-2.3091,-2.3091,-2.3091,-2.3091,-2.3091,-2.3091,-2.3091,-2.3091,-1.6718,-1.6544,-1.6331,-1.6177,-1.5963,-1.5821,-1.5787,-1.5812,-1.5784,-1.5784,-1.5784,-1.5784,-1.5784,-1.5784,-1.5784,-1.5784,-1.5784,-1.5784,-1.5784,-1.5718,-1.5844,-1.6327,-1.6959,-1.7342,-1.7417,-1.8852,-1.9181,-1.8383,-1.8378,-1.7875,-1.6933,-1.6954,-1.7432,-1.8311,-1.916,-1.9963,-2.0641,-2.1334,-2.2084,-2.2891,-2.3016,-2.3006,-2.2828,-2.282,-2.2699,-2.2637,-2.2637,-2.2701,-2.2847,-2.2847,-2.2955,-2.3062,-2.2896,-2.2847,-2.2847,-2.2847,-2.2847,-2.2877,-2.3052,-2.3091,-2.3052,-2.2886,-2.2847,-2.274,-2.2353,-2.2266,-2.2139,-2.1709,-2.1269,-2.0859,-2.0518,-2.0098,-1.9891,-2.0067,-1.995,-2.0018,-2.0537,-2.0605,-2.041,-1.9853,-1.9492,-1.9023,-1.834,-1.7779,-1.7432,-1.7344,-1.651,-1.6256,-1.6854,-1.7663,-1.8486,-1.9268,-1.9822,-2.0352,-2.0957,-2.1582,-2.2178,-2.2721,-2.2974,-2.3091,-2.3091,-2.3091,-2.3091,-2.3091,-2.3091,-2.3091,-2.3091,-2.3091,-2.3091,-2.3091,-2.3091,-2.3091,-2.3091,-2.3091,-2.3091,-2.3091,-1.6773,-1.658,-1.6345,-1.6253,-1.5979,-1.5796,-1.5812,-1.5784,-1.5784,-1.5784,-1.5784,-1.5784,-1.5784,-1.5784,-1.5784,-1.5784,-1.5784,-1.5784,-1.5784,-1.5784,-1.6054,-1.66,-1.7447,-1.8024,-1.8201,-1.9392,-1.9859,-1.9542,-1.906,-1.8723,-1.8404,-1.8527,-1.9033,-1.9893,-2.0664,-2.11,-2.1409,-2.2171,-2.2755,-2.3091,-2.3091,-2.3091,-2.3091,-2.3091,-2.3091,-2.3091,-2.3091,-2.3091,-2.3091,-2.3091,-2.3091,-2.3091,-2.3091,-2.3091,-2.3091,-2.3091,-2.3091,-2.3091,-2.3091,-2.3091,-2.3091,-2.3091,-2.3091,-2.3013,-2.2721,-2.2695,-2.2578,-2.2158,-2.1728,-2.1426,-2.1426,-2.0566,-2.0059,-2.0664,-2.0146,-1.9911,-2.0517,-2.0605,-2.0469,-2.011,-1.9621,-1.9251,-1.9178,-1.8482,-1.8043,-1.81,-1.7954,-1.7813,-1.7692,-1.8401,-1.8965,-1.9277,-1.999,-2.0586,-2.1035,-2.1728,-2.2275,-2.2705,-2.2955,-2.3091,-2.3091,-2.3091,-2.3091,-2.3091,-2.3091,-2.3091,-2.3091,-2.3091,-2.3091,-2.3091,-2.3091,-2.3091,-2.3091,-2.3091,-2.3091,-2.3091,-1.6466,-1.6387,-1.6257,-1.5866,-1.5818,-1.5818,-1.5784,-1.5784,-1.5784,-1.5784,-1.5784,-1.5784,-1.5784,-1.5784,-1.5784,-1.5784,-1.5784,-1.5784,-1.5784,-1.5784,-1.5778,-1.5825,-1.5825,-1.5732,-1.5437,-1.5483,-1.6435,-1.8407,-1.8002,-1.874,-2.0556,-2.0088,-2.0323,-2.119,-2.167,-2.2334,-2.3071,-2.3081,-2.3091,-2.3091,-2.3091,-2.3091,-2.3091,-2.3091,-2.3091,-2.3091,-2.3091,-2.3091,-2.3091,-2.3091,-2.3091,-2.3091,-2.3091,-2.3091,-2.3091,-2.3091,-2.3091,-2.3091,-2.3091,-2.3091,-2.3091,-2.3091,-2.3091,-2.3091,-2.3091,-2.3091,-2.2974,-2.2598,-2.2168,-2.1875,-2.1875,-2.1514,-2.1171,-2.1181,-2.084,-2.0595,-2.0605,-2.0605,-2.0177,-1.8963,-1.9114,-1.9178,-1.8858,-1.9095,-1.9029,-1.8353,-1.9692,-2.0194,-1.9307,-1.9277,-1.9277,-1.9287,-1.9697,-2.0127,-2.0605,-2.1855,-2.2672,-2.3091,-2.3091,-2.3091,-2.3091,-2.3091,-2.3091,-2.3091,-2.3091,-2.3091,-2.3091,-2.3091,-2.3091,-2.3091,-2.3091,-2.3091,-2.3091,-2.3091,-2.3091,-2.3091,-1.5993,-1.5967,-1.5953,-1.5812,-1.5784,-1.5784,-1.5784,-1.5784,-1.5784,-1.5784,-1.5784,-1.5784,-1.5784,-1.5784,-1.5784,-1.5784,-1.5784,-1.5784,-1.5784,-1.5784,-1.5784,-1.5784,-1.7436,-1.8148,-1.7717,-1.9639,-2.0844,-2.1206,-2.0806,-2.0917,-2.1465,-2.1328,-2.1719,-2.2496,-2.2633,-2.2847,-2.3091,-2.3091,-2.3091,-2.3091,-2.3091,-2.3091,-2.3091,-2.3091,-2.3091,-2.3091,-2.3091,-2.3091,-2.3091,-2.3091,-2.3091,-2.3091,-2.3091,-2.3091,-2.3091,-2.3091,-2.3091,-2.3091,-2.3091,-2.3091,-2.3091,-2.3091,-2.3091,-2.3091,-2.3091,-2.3091,-2.3052,-2.2925,-2.2607,-2.2314,-2.2314,-2.1963,-2.168,-2.168,-2.1309,-2.1025,-2.1025,-2.0762,-2.0469,-2.0071,-2.0118,-2.0156,-2.0052,-2.0118,-1.9867,-1.9153,-1.9266,-1.8908,-1.7798,-1.9547,-2.0303,-1.9736,-2.0723,-2.1465,-2.1885,-2.2305,-2.2682,-2.3091,-2.3091,-2.3091,-2.3091,-2.3091,-2.3091,-2.3091,-2.3091,-2.3091,-2.3091,-2.3091,-2.3091,-2.3091,-2.3091,-2.3091,-2.3091,-2.3091,-2.3091,-2.3091,-1.5972,-1.5905,-1.5784,-1.5784,-1.5784,-1.5784,-1.5784,-1.5784,-1.5784,-1.5784,-1.5784,-1.5784,-1.5784,-1.5784,-1.5784,-1.5784,-1.5784,-1.5784,-1.5784,-1.6244,-1.6527,-1.6527,-1.8442,-1.9336,-1.9068,-2.0829,-2.1875,-2.2068,-2.2258,-2.2353,-2.2353,-2.2353,-2.2637,-2.3091,-2.3091,-2.3091,-2.3091,-2.3091,-2.3091,-2.3091,-2.3091,-2.3091,-2.3091,-2.3091,-2.3091,-2.3091,-2.3091,-2.3091,-2.3091,-2.3091,-2.3091,-2.3091,-2.3091,-2.3091,-2.3091,-2.3091,-2.3091,-2.3091,-2.3091,-2.3091,-2.3091,-2.3091,-2.3091,-2.3091,-2.3091,-2.3091,-2.3091,-2.3091,-2.2886,-2.2744,-2.2744,-2.2402,-2.2119,-2.2119,-2.1758,-2.1385,-2.122,-2.1133,-2.0879,-2.0275,-2.043,-2.0566,-2.0411,-2.0527,-2.045,-2.0159,-2.0024,-1.9543,-1.8627,-1.9859,-2.0605,-2.0654,-2.1611,-2.2246,-2.251,-2.2666,-2.2838,-2.3091,-2.3091,-2.3091,-2.3091,-2.3091,-2.3091,-2.3091,-2.3091,-2.3091,-2.3091,-2.3091,-2.3091,-2.3091,-2.3091,-2.3091,-2.3091,-2.3091,-2.3091,-2.3091,-1.6246,-1.6066,-1.5811,-1.5811,-1.5811,-1.5852,-1.5784,-1.5784,-1.5784,-1.5784,-1.5784,-1.5784,-1.5784,-1.5784,-1.5784,-1.5784,-1.5784,-1.5784,-1.5784,-1.6897,-1.7552,-1.7552,-1.8726,-1.936,-1.936,-1.9542,-2.0215,-2.1426,-2.2536,-2.3091,-2.3091,-2.3091,-2.3091,-2.3091,-2.3091,-2.3091,-2.3091,-2.3091,-2.3091,-2.3091,-2.3091,-2.3091,-2.3091,-2.3091,-2.3091,-2.3091,-2.3091,-2.3091,-2.3091,-2.3091,-2.3091,-2.3091,-2.3091,-2.3091,-2.3091,-2.3091,-2.3091,-2.3091,-2.3091,-2.3091,-2.3091,-2.3091,-2.3091,-2.3091,-2.3091,-2.3091,-2.3091,-2.3091,-2.3091,-2.3091,-2.3091,-2.2779,-2.2549,-2.2519,-2.2158,-2.1738,-2.1259,-2.1582,-2.1316,-1.9793,-2.0246,-2.0576,-2.0272,-2.0508,-2.0801,-2.1082,-2.1522,-2.159,-2.117,-2.0159,-2.0303,-2.1885,-2.2334,-2.2559,-2.2559,-2.2896,-2.3091,-2.3091,-2.3091,-2.3091,-2.3091,-2.3091,-2.3091,-2.3091,-2.3091,-2.3091,-2.3091,-2.3091,-2.3091,-2.3091,-2.3091,-2.3091,-2.3091,-2.3091,-2.3091,-2.3091,-1.6547,-1.6366,-1.6166,-1.6166,-1.6166,-1.6092,-1.5865,-1.5784,-1.5784,-1.5784,-1.5784,-1.5784,-1.5784,-1.5784,-1.5784,-1.5784,-1.5784,-1.5784,-1.5784,-1.6062,-1.6244,-1.6244,-1.7451,-1.8141,-1.8141,-1.9943,-2.148,-2.2677,-2.296,-2.3091,-2.3091,-2.3091,-2.3091,-2.3091,-2.3091,-2.3091,-2.3091,-2.3091,-2.3091,-2.3091,-2.3091,-2.3091,-2.3091,-2.3091,-2.3091,-2.3091,-2.3091,-2.3091,-2.3091,-2.3091,-2.3091,-2.3091,-2.3091,-2.3091,-2.3091,-2.3091,-2.3091,-2.3091,-2.3091,-2.3091,-2.3091,-2.3091,-2.3091,-2.3091,-2.3091,-2.3091,-2.3091,-2.3091,-2.3091,-2.3091,-2.3091,-2.3013,-2.2847,-2.2568,-2.2158,-2.1738,-2.1259,-2.1288,-2.1239,-2.0848,-2.1268,-2.1572,-2.1491,-2.1531,-2.1257,-2.0417,-2.0465,-2.0619,-2.079,-2.0577,-2.1024,-2.2334,-2.273,-2.2945,-2.2945,-2.3042,-2.3091,-2.3091,-2.3091,-2.3091,-2.3091,-2.3091,-2.3091,-2.3091,-2.3091,-2.3091,-2.3091,-2.3091,-2.3091,-2.3091,-2.3091,-2.3091,-2.3091,-2.3091,-2.3091,-2.3091,-1.6854,-1.6673,-1.6426,-1.6342,-1.638,-1.6326,-1.5844,-1.5945,-1.5985,-1.5798,-1.5784,-1.5879,-1.6019,-1.6032,-1.6086,-1.6219,-1.5985,-1.5784,-1.5784,-1.6339,-1.6889,-1.7483,-1.8672,-1.9588,-2.0141,-2.1445,-2.2448,-2.3091,-2.3091,-2.3091,-2.3091,-2.3091,-2.3091,-2.3091,-2.3091,-2.3091,-2.3091,-2.3091,-2.3091,-2.3091,-2.3091,-2.3091,-2.3091,-2.3091,-2.3091,-2.3091,-2.3091,-2.3091,-2.3091,-2.3091,-2.3091,-2.3091,-2.3091,-2.3091,-2.3091,-2.3091,-2.3091,-2.3091,-2.3091,-2.3091,-2.3091,-2.3091,-2.3091,-2.3091,-2.3091,-2.3091,-2.3091,-2.3091,-2.3091,-2.3091,-2.3091,-2.3091,-2.3023,-2.2789,-2.2116,-2.1658,-2.1785,-2.1487,-2.1387,-2.1756,-2.2197,-2.2461,-2.2461,-2.2461,-2.2094,-2.1269,-2.1354,-2.1469,-2.1508,-2.1691,-2.2094,-2.274,-2.2974,-2.3091,-2.3091,-2.3091,-2.3091,-2.3091,-2.3091,-2.3091,-2.3091,-2.3091,-2.3091,-2.3091,-2.3091,-2.3091,-2.3091,-2.3091,-2.3091,-2.3091,-2.3091,-2.3091,-2.3091,-2.3091,-2.3091,-2.3091,-1.7206,-1.6974,-1.6693,-1.6496,-1.6607,-1.6587,-1.5997,-1.6172,-1.6246,-1.5992,-1.5959,-1.6059,-1.6313,-1.6339,-1.644,-1.6687,-1.6246,-1.5945,-1.5899,-1.6831,-1.7956,-1.9177,-2.0215,-2.1302,-2.2545,-2.2731,-2.2906,-2.3091,-2.3091,-2.3091,-2.3091,-2.3091,-2.3091,-2.3091,-2.3091,-2.3091,-2.3091,-2.3091,-2.3091,-2.3091,-2.3091,-2.3091,-2.3091,-2.3091,-2.3091,-2.3091,-2.3091,-2.3091,-2.3091,-2.3091,-2.3091,-2.3091,-2.3091,-2.3091,-2.3091,-2.3091,-2.3091,-2.3091,-2.3091,-2.3091,-2.3091,-2.3091,-2.3091,-2.3091,-2.3091,-2.3091,-2.3091,-2.3091,-2.3091,-2.3091,-2.3091,-2.3091,-2.3033,-2.2794,-2.2015,-2.1646,-2.2062,-2.1736,-2.1723,-2.2428,-2.2838,-2.3091,-2.3091,-2.3091,-2.2945,-2.2637,-2.2896,-2.2945,-2.2627,-2.2896,-2.3091,-2.3091,-2.3091,-2.3091,-2.3091,-2.3091,-2.3091,-2.3091,-2.3091,-2.3091,-2.3091,-2.3091,-2.3091,-2.3091,-2.3091,-2.3091,-2.3091,-2.3091,-2.3091,-2.3091,-2.3091,-2.3091,-2.3091,-2.3091,-2.3091,-2.3091,-1.7462,-1.7333,-1.7119,-1.7072,-1.7099,-1.7018,-1.662,-1.6607,-1.662,-1.6573,-1.6573,-1.6587,-1.6633,-1.664,-1.6653,-1.67,-1.662,-1.6466,-1.6219,-1.6157,-1.6662,-1.7909,-1.8141,-1.8818,-2.0042,-2.1078,-2.2076,-2.3091,-2.3091,-2.3091,-2.3091,-2.3091,-2.3091,-2.3091,-2.3091,-2.3091,-2.3091,-2.3091,-2.3091,-2.3091,-2.3091,-2.3091,-2.3091,-2.3091,-2.3091,-2.3091,-2.3091,-2.3091,-2.3091,-2.3091,-2.3091,-2.3091,-2.3091,-2.3091,-2.3091,-2.3091,-2.3091,-2.3091,-2.3091,-2.3091,-2.3091,-2.3091,-2.3091,-2.3091,-2.3091,-2.3091,-2.3091,-2.3091,-2.3091,-2.3091,-2.3091,-2.3091,-2.2654,-2.1297,-2.1781,-2.1874,-2.0558,-2.1501,-2.2357,-2.251,-2.2838,-2.3091,-2.3091,-2.3091,-2.3062,-2.3003,-2.3062,-2.3062,-2.3003,-2.3062,-2.3091,-2.3091,-2.3091,-2.3091,-2.3091,-2.3091,-2.3091,-2.3091,-2.3091,-2.3091,-2.3091,-2.3091,-2.3091,-2.3091,-2.3091,-2.3091,-2.3091,-2.3091,-2.3091,-2.3091,-2.3091,-2.3091,-2.3091,-2.3091,-2.3091,-2.3091,-1.7555,-1.7475,-1.7387,-1.7233,-1.7333,-1.7228,-1.6774,-1.684,-1.6887,-1.6727,-1.6707,-1.6767,-1.6927,-1.6947,-1.7007,-1.7161,-1.7034,-1.682,-1.6526,-1.6233,-1.6559,-1.7652,-1.7692,-1.8549,-2.044,-2.1025,-2.1889,-2.3091,-2.3091,-2.3091,-2.3091,-2.3091,-2.3091,-2.3091,-2.3091,-2.3091,-2.3091,-2.3091,-2.3091,-2.3047,-2.2394,-2.212,-2.2076,-2.14,-2.1177,-2.1177,-2.1177,-2.1177,-2.1266,-2.1898,-2.212,-2.2262,-2.2906,-2.3091,-2.3091,-2.3091,-2.3091,-2.3091,-2.3091,-2.3091,-2.3091,-2.3091,-2.3091,-2.3091,-2.3091,-2.3091,-2.3091,-2.3091,-2.3091,-2.3091,-2.3091,-2.3091,-2.2862,-2.2109,-2.1913,-2.1816,-2.1672,-2.1778,-2.208,-2.275,-2.2974,-2.3091,-2.3091,-2.3091,-2.3091,-2.3091,-2.3091,-2.3091,-2.3091,-2.3091,-2.3091,-2.3091,-2.3091,-2.3091,-2.3091,-2.3091,-2.3091,-2.3091,-2.3091,-2.3091,-2.3091,-2.3091,-2.3091,-2.3091,-2.3091,-2.3091,-2.3091,-2.3091,-2.3091,-2.3091,-2.3091,-2.3261,-2.3495,-2.3495,-2.3622,-2.3803,-1.7582,-1.7582,-1.7515,-1.734,-1.7435,-1.7428,-1.6981,-1.7152,-1.7219,-1.6941,-1.6907,-1.6994,-1.7273,-1.73,-1.7393,-1.7562,-1.7434,-1.7179,-1.6827,-1.66,-1.6856,-1.766,-1.7963,-1.9131,-2.1248,-2.1293,-2.1889,-2.3091,-2.3091,-2.3091,-2.3091,-2.3091,-2.3091,-2.3091,-2.3091,-2.3091,-2.3091,-2.3091,-2.3091,-2.3003,-2.18,-2.1293,-2.1159,-1.9943,-1.9497,-1.9497,-1.9497,-1.9497,-1.9625,-2.0576,-2.089,-2.1025,-2.1952,-2.2271,-2.2271,-2.2271,-2.2457,-2.2721,-2.3003,-2.3091,-2.3091,-2.3091,-2.2906,-2.2765,-2.3047,-2.2677,-2.2315,-2.2633,-2.2457,-2.2359,-2.2633,-2.2677,-2.2663,-2.2698,-2.2121,-2.1943,-2.2601,-2.2111,-2.2063,-2.2969,-2.3091,-2.3003,-2.2721,-2.295,-2.3003,-2.2677,-2.295,-2.3091,-2.3091,-2.3091,-2.3091,-2.3091,-2.3091,-2.3091,-2.3091,-2.3091,-2.3091,-2.3091,-2.3091,-2.3091,-2.3091,-2.3091,-2.3091,-2.3091,-2.3091,-2.3091,-2.3091,-2.3091,-2.3091,-2.3091,-2.3091,-2.3403,-2.3806,-2.3781,-2.4053,-2.4411,-1.7582,-1.7582,-1.7575,-1.7555,-1.7569,-1.7569,-1.7522,-1.7535,-1.7542,-1.7522,-1.7515,-1.7528,-1.7549,-1.7549,-1.7562,-1.7582,-1.7562,-1.7428,-1.7186,-1.7146,-1.7299,-1.7682,-1.8772,-1.9988,-2.1293,-2.1293,-2.1889,-2.3091,-2.3091,-2.3091,-2.3091,-2.3091,-2.3091,-2.3091,-2.3091,-2.3091,-2.3091,-2.3091,-2.3091,-2.3003,-2.18,-2.1293,-2.1159,-1.9943,-1.9497,-1.9497,-1.9497,-1.9497,-1.9488,-1.9579,-1.9625,-1.9633,-1.9724,-1.9761,-1.9761,-1.9761,-2.0576,-2.1658,-2.2818,-2.3091,-2.3091,-2.3091,-2.2262,-2.1712,-2.2862,-2.1364,-2.0079,-2.1203,-2.0531,-2.0124,-2.1248,-2.1426,-2.142,-2.1451,-2.2312,-2.262,-2.1558,-2.2331,-2.2979,-2.3091,-2.3091,-2.2677,-2.1525,-2.2448,-2.2633,-2.1525,-2.2492,-2.3091,-2.3091,-2.3091,-2.3091,-2.3091,-2.3091,-2.3091,-2.3091,-2.3091,-2.3091,-2.3091,-2.3091,-2.3091,-2.3091,-2.3091,-2.3091,-2.3091,-2.3091,-2.3091,-2.3091,-2.3091,-2.3091,-2.3091,-2.3091,-2.3368,-2.3786,-2.3785,-2.4044,-2.4409,-1.7582,-1.7582,-1.7582,-1.7582,-1.7582,-1.7582,-1.7582,-1.7582,-1.7582,-1.7582,-1.7582,-1.7582,-1.7582,-1.7582,-1.7582,-1.7582,-1.7582,-1.7514,-1.7219,-1.7199,-1.7086,-1.6848,-1.7976,-1.9126,-2.0169,-2.0935,-2.1889,-2.3091,-2.3091,-2.3091,-2.3091,-2.3091,-2.3091,-2.3091,-2.3091,-2.3091,-2.3091,-2.3091,-2.2677,-2.1898,-2.0666,-1.9716,-1.8948,-1.7662,-1.7203,-1.7203,-1.7203,-1.7203,-1.7343,-1.8133,-1.8365,-1.8503,-1.9268,-1.9497,-1.9497,-1.9497,-1.9807,-2.026,-2.0719,-2.14,-2.1987,-2.1987,-2.1658,-2.1203,-2.0944,-2.0764,-2.0522,-2.026,-1.9807,-1.9625,-2.0079,-2.0169,-2.0165,-2.0165,-2.1201,-2.1831,-2.1351,-2.2345,-2.3091,-2.3091,-2.3091,-2.2633,-2.1436,-2.1712,-2.1489,-2.026,-2.0629,-2.1177,-2.1943,-2.2677,-2.3091,-2.3091,-2.3091,-2.3091,-2.3091,-2.3091,-2.3091,-2.3091,-2.3091,-2.3091,-2.311,-2.3418,-2.3398,-2.311,-2.3428,-2.3389,-2.312,-2.3428,-2.3545,-2.3574,-2.3828,-2.4205,-2.4604,-2.4609,-2.4862,-2.5227,-1.7582,-1.7582,-1.7582,-1.7582,-1.7582,-1.7582,-1.7582,-1.7582,-1.7582,-1.7582,-1.7582,-1.7582,-1.7582,-1.7582,-1.7582,-1.7582,-1.7582,-1.7502,-1.7347,-1.734,-1.7032,-1.6348,-1.7364,-1.8285,-1.891,-2.0348,-2.1517,-2.2346,-2.2113,-2.2113,-2.2346,-2.1836,-2.1719,-2.1952,-2.1952,-2.1952,-2.1952,-2.1952,-2.1489,-2.0621,-1.9405,-1.8457,-1.7552,-1.6298,-1.5784,-1.5784,-1.5784,-1.5784,-1.592,-1.681,-1.7084,-1.7264,-1.8079,-1.8349,-1.8349,-1.8349,-1.8626,-1.8948,-1.8948,-1.9542,-2.026,-2.0621,-2.044,-2.0034,-1.9579,-1.9534,-1.9434,-1.9039,-1.8634,-1.8442,-1.8856,-1.8948,-1.9039,-1.9451,-2.0215,-2.0747,-2.0747,-2.1445,-2.2129,-2.2492,-2.2183,-2.1632,-2.08,-2.0747,-2.0215,-1.9047,-1.9625,-2.044,-2.1248,-2.2448,-2.2916,-2.2545,-2.2906,-2.2974,-2.2701,-2.3119,-2.3305,-2.3305,-2.3432,-2.35,-2.351,-2.3848,-2.3818,-2.351,-2.3857,-2.3818,-2.352,-2.3867,-2.3984,-2.4014,-2.4307,-2.4694,-2.5079,-2.5108,-2.535,-2.5693,-1.7589,-1.7589,-1.7582,-1.7589,-1.7582,-1.7582,-1.7582,-1.7582,-1.7582,-1.7582,-1.7582,-1.7582,-1.7582,-1.7589,-1.7589,-1.7582,-1.7589,-1.7589,-1.7582,-1.7582,-1.7188,-1.6362,-1.7217,-1.7692,-1.7692,-1.9691,-2.072,-2.0674,-1.9882,-1.9882,-2.0666,-1.905,-1.872,-1.9497,-1.9497,-1.9497,-1.9497,-1.9497,-1.9488,-1.936,-1.8187,-1.7684,-1.7552,-1.6292,-1.5784,-1.5784,-1.5784,-1.5784,-1.5784,-1.5784,-1.5784,-1.5784,-1.5784,-1.5784,-1.5784,-1.5784,-1.6716,-1.7692,-1.7692,-1.7692,-1.7956,-1.9177,-1.8596,-1.8002,-1.9177,-1.7569,-1.615,-1.7412,-1.6669,-1.6204,-1.7451,-1.7692,-1.8095,-1.9268,-1.9497,-1.9497,-1.9497,-1.9488,-1.9943,-2.1159,-2.0215,-1.9497,-1.9497,-1.9497,-1.9001,-1.7777,-1.9898,-2.1293,-2.1293,-2.2403,-2.2536,-2.1337,-2.2448,-2.2666,-2.1786,-2.3138,-2.3799,-2.3799,-2.4219,-2.4414,-2.4414,-2.4424,-2.4424,-2.4414,-2.4424,-2.4424,-2.4368,-2.4368,-2.4378,-2.4368,-2.4378,-2.4641,-2.5068,-2.5068,-2.5304,-2.5684,-1.8136,-1.7876,-1.7649,-1.7869,-1.7729,-1.7582,-1.7582,-1.7582,-1.7582,-1.7582,-1.7582,-1.7582,-1.7582,-1.7776,-1.7822,-1.7602,-1.7782,-1.7816,-1.7595,-1.7194,-1.6847,-1.6587,-1.7652,-1.8225,-1.8132,-1.9808,-2.044,-1.9874,-1.905,-1.8774,-1.8996,-1.9104,-1.9273,-1.9497,-1.9497,-1.9497,-1.9497,-1.9497,-1.8993,-1.8187,-1.7824,-1.7178,-1.6339,-1.592,-1.5784,-1.5784,-1.5784,-1.5784,-1.5784,-1.5784,-1.5784,-1.5784,-1.5784,-1.5784,-1.5784,-1.5784,-1.6062,-1.6386,-1.6386,-1.6386,-1.6662,-1.7909,-1.7963,-1.7544,-1.703,-1.703,-1.699,-1.648,-1.6062,-1.592,-1.6292,-1.6386,-1.6473,-1.6842,-1.763,-1.8234,-1.8234,-1.8956,-1.9625,-1.9988,-1.9716,-1.9177,-1.8319,-1.8234,-1.7723,-1.648,-1.7855,-1.8772,-1.8772,-1.9906,-2.0404,-2.0034,-2.0404,-2.0456,-2.0166,-2.2616,-2.3472,-2.2815,-2.3884,-2.4414,-2.4424,-2.4736,-2.4707,-2.4434,-2.4746,-2.4173,-2.3008,-2.3284,-2.2859,-2.2047,-2.2365,-2.2589,-2.2693,-2.2693,-2.2772,-2.2868,-1.8243,-1.7916,-1.7642,-1.7829,-1.7709,-1.7582,-1.7582,-1.7582,-1.7582,-1.7582,-1.7582,-1.7629,-1.7756,-1.7923,-1.8009,-1.7943,-1.8003,-1.7916,-1.7602,-1.7248,-1.7001,-1.6887,-1.7566,-1.7724,-1.7337,-1.9233,-1.9486,-1.8033,-1.7721,-1.7451,-1.7326,-1.7946,-1.8232,-1.8224,-1.8087,-1.8178,-1.836,-1.814,-1.7697,-1.7122,-1.6994,-1.648,-1.5784,-1.5784,-1.5784,-1.5784,-1.5784,-1.5784,-1.5784,-1.5784,-1.5784,-1.5784,-1.5784,-1.5784,-1.5784,-1.5784,-1.5784,-1.5784,-1.5784,-1.5784,-1.5967,-1.6763,-1.6943,-1.6791,-1.6116,-1.6566,-1.6982,-1.6298,-1.6179,-1.6179,-1.6179,-1.6179,-1.6139,-1.6025,-1.6661,-1.7087,-1.6965,-1.7576,-1.8211,-1.8726,-1.8349,-1.7948,-1.7738,-1.7225,-1.685,-1.6574,-1.7271,-1.7692,-1.7692,-1.8945,-1.9415,-1.8826,-1.9353,-1.9426,-1.8932,-2.1184,-2.2104,-2.1687,-2.2654,-2.3189,-2.3354,-2.365,-2.3584,-2.3363,-2.3611,-2.3138,-2.2157,-2.2383,-2.2025,-2.1287,-2.1611,-2.1702,-2.1702,-2.1702,-2.1702,-2.1702,-1.8069,-1.7876,-1.7662,-1.7662,-1.7662,-1.7662,-1.7662,-1.7642,-1.7635,-1.7662,-1.7642,-1.7742,-1.7995,-1.8096,-1.8203,-1.847,-1.8217,-1.7916,-1.7602,-1.7555,-1.7428,-1.7213,-1.7056,-1.6613,-1.5878,-1.808,-1.8127,-1.5858,-1.6289,-1.6276,-1.5912,-1.6186,-1.6362,-1.6299,-1.6025,-1.6192,-1.6633,-1.6099,-1.6025,-1.6253,-1.5979,-1.5824,-1.5872,-1.5851,-1.5831,-1.5784,-1.5811,-1.5852,-1.5784,-1.5784,-1.5784,-1.5784,-1.5784,-1.5784,-1.5784,-1.5784,-1.5798,-1.5824,-1.5824,-1.5838,-1.5858,-1.5858,-1.5858,-1.5972,-1.6219,-1.6342,-1.6386,-1.6653,-1.6707,-1.6707,-1.6707,-1.6707,-1.662,-1.6359,-1.6362,-1.6219,-1.5898,-1.5858,-1.6327,-1.7446,-1.6583,-1.6292,-1.7456,-1.6522,-1.6333,-1.7503,-1.7626,-1.7626,-1.7596,-1.8863,-1.8997,-1.7641,-1.8934,-1.9091,-1.7975,-1.9186,-2.0019,-2.0482,-2.0949,-2.1396,-2.1702,-2.1702,-2.1702,-2.1702,-2.1702,-2.1651,-2.1499,-2.1499,-2.1448,-2.1347,-2.1347,-2.1347,-2.1347,-2.1347,-2.1347,-2.1347,-1.8635,-1.8497,-1.8297,-1.8297,-1.8297,-1.8297,-1.8297,-1.8096,-1.8029,-1.8263,-1.809,-1.8063,-1.8364,-1.8591,-1.8664,-1.8504,-1.8217,-1.7916,-1.7602,-1.7309,-1.7091,-1.7032,-1.6863,-1.6657,-1.652,-1.7035,-1.7035,-1.6513,-1.6749,-1.6749,-1.6513,-1.658,-1.6613,-1.6607,-1.6547,-1.646,-1.6359,-1.6233,-1.6213,-1.6315,-1.6206,-1.6179,-1.6199,-1.6426,-1.6233,-1.5811,-1.6092,-1.6025,-1.5784,-1.5784,-1.5784,-1.5784,-1.5784,-1.5784,-1.5784,-1.5784,-1.5999,-1.6179,-1.6179,-1.6339,-1.6513,-1.6513,-1.6513,-1.6473,-1.6306,-1.6446,-1.6627,-1.6693,-1.6707,-1.6707,-1.6707,-1.6707,-1.6687,-1.662,-1.6613,-1.6587,-1.6526,-1.6513,-1.6612,-1.6902,-1.6508,-1.6318,-1.656,-1.6366,-1.6318,-1.656,-1.6821,-1.6855,-1.6615,-1.7127,-1.7253,-1.6908,-1.7253,-1.7288,-1.7004,-1.7288,-1.8123,-1.9529,-2.067,-2.1396,-2.1702,-2.1702,-2.1702,-2.1702,-2.1702,-2.1092,-2.0084,-2.0084,-1.942,-1.8499,-1.8499,-1.8499,-1.8499,-1.8499,-1.8499,-1.8499,-1.8718,-1.8597,-1.8397,-1.811,-1.8297,-1.8444,-1.8303,-1.827,-1.831,-1.847,-1.8357,-1.837,-1.8664,-1.8831,-1.8804,-1.8517,-1.8217,-1.7916,-1.7602,-1.7383,-1.7289,-1.7289,-1.7201,-1.7121,-1.7121,-1.7121,-1.7045,-1.682,-1.7019,-1.6962,-1.6707,-1.6847,-1.6914,-1.6914,-1.6767,-1.6774,-1.6881,-1.66,-1.656,-1.673,-1.654,-1.648,-1.65,-1.6647,-1.6513,-1.6266,-1.6426,-1.638,-1.6246,-1.6246,-1.6246,-1.6246,-1.6246,-1.6246,-1.6246,-1.6246,-1.6353,-1.648,-1.648,-1.6587,-1.6707,-1.6707,-1.6814,-1.6874,-1.6777,-1.6857,-1.6954,-1.7094,-1.7121,-1.7121,-1.7121,-1.7121,-1.7081,-1.6941,-1.6914,-1.6867,-1.6727,-1.6707,-1.6707,-1.6707,-1.6573,-1.648,-1.648,-1.648,-1.648,-1.648,-1.662,-1.664,-1.6486,-1.676,-1.6854,-1.6707,-1.684,-1.6847,-1.6707,-1.6707,-1.72,-1.8245,-1.877,-1.9127,-1.9308,-1.9466,-1.9541,-1.9549,-1.9707,-1.9317,-1.8655,-1.8655,-1.8251,-1.7582,-1.7582,-1.7582,-1.7582,-1.7582,-1.7582,-1.7582,-1.8617,-1.8604,-1.8464,-1.7909,-1.827,-1.8557,-1.8255,-1.8437,-1.8584,-1.8631,-1.8597,-1.8677,-1.8965,-1.8998,-1.8885,-1.8591,-1.8282,-1.7989,-1.7682,-1.7655,-1.7583,-1.7589,-1.7582,-1.7582,-1.7582,-1.7582,-1.7459,-1.7089,-1.7217,-1.7146,-1.686,-1.7159,-1.728,-1.7266,-1.6967,-1.7094,-1.7475,-1.6987,-1.6978,-1.7179,-1.6881,-1.678,-1.6787,-1.684,-1.6794,-1.6714,-1.6767,-1.6747,-1.6707,-1.6707,-1.6707,-1.6707,-1.6707,-1.6707,-1.6707,-1.6707,-1.674,-1.678,-1.678,-1.682,-1.6854,-1.6854,-1.7041,-1.728,-1.728,-1.728,-1.734,-1.7528,-1.7582,-1.7582,-1.7582,-1.7582,-1.7554,-1.7313,-1.728,-1.7186,-1.6887,-1.6854,-1.6854,-1.6854,-1.6814,-1.678,-1.678,-1.678,-1.678,-1.678,-1.6827,-1.6834,-1.678,-1.7112,-1.7159,-1.686,-1.7094,-1.7152,-1.686,-1.6854,-1.6954,-1.7199,-1.6901,-1.6807,-1.686,-1.7159,-1.728,-1.7286,-1.7475,-1.7582,-1.7582,-1.7582,-1.7582,-1.7582,-1.7582,-1.7582,-1.7582,-1.7582,-1.7582,-1.7582,-1.8925,-1.9072,-1.9138,-1.8804,-1.9025,-1.9239,-1.9199,-1.9005,-1.8958,-1.9212,-1.9025,-1.8978,-1.9279,-1.9305,-1.9185,-1.8891,-1.8768,-1.8502,-1.7996,-1.7734,-1.7622,-1.7589,-1.7582,-1.7582,-1.7582,-1.7582,-1.7594,-1.7521,-1.7554,-1.7502,-1.7468,-1.7508,-1.7522,-1.7522,-1.7482,-1.7368,-1.7253,-1.7172,-1.7166,-1.7199,-1.7159,-1.7139,-1.7166,-1.7368,-1.7148,-1.674,-1.7052,-1.6978,-1.6707,-1.6707,-1.6707,-1.6707,-1.6707,-1.6707,-1.6707,-1.6707,-1.6887,-1.7139,-1.7139,-1.7326,-1.7468,-1.7468,-1.7495,-1.7522,-1.7522,-1.7522,-1.7535,-1.7575,-1.7582,-1.7582,-1.7582,-1.7582,-1.7569,-1.7528,-1.7522,-1.7508,-1.7468,-1.7468,-1.7468,-1.7468,-1.7293,-1.7139,-1.7139,-1.7139,-1.7139,-1.7139,-1.7373,-1.7407,-1.7152,-1.742,-1.7508,-1.7468,-1.7502,-1.7508,-1.7468,-1.7468,-1.7355,-1.7199,-1.7159,-1.7273,-1.7468,-1.7508,-1.7522,-1.7522,-1.7562,-1.7582,-1.7582,-1.7582,-1.7582,-1.7582,-1.7582,-1.7582,-1.7582,-1.7582,-1.7582,-1.7582,-1.8985,-1.9165,-1.9219,-1.8764,-1.9065,-1.9312,-1.9145,-1.9152,-1.9219,-1.941,-1.9252,-1.9225,-1.9352,-1.9219,-1.9065,-1.8875,-1.8715,-1.8373,-1.782,-1.7952,-1.7961,-1.7602,-1.7749,-1.7762,-1.7589,-1.7582,-1.7582,-1.7582,-1.7582,-1.7582,-1.7582,-1.7582,-1.7582,-1.7582,-1.7582,-1.7508,-1.744,-1.744,-1.744,-1.744,-1.744,-1.744,-1.746,-1.7528,-1.7422,-1.7215,-1.7393,-1.7308,-1.7194,-1.7194,-1.7194,-1.7194,-1.7194,-1.7194,-1.7194,-1.7194,-1.7288,-1.744,-1.744,-1.7482,-1.7582,-1.7582,-1.7582,-1.7629,-1.7802,-1.7709,-1.7582,-1.7582,-1.7582,-1.7582,-1.7582,-1.7582,-1.7582,-1.7582,-1.7582,-1.7582,-1.7582,-1.7582,-1.7582,-1.7582,-1.7521,-1.744,-1.744,-1.744,-1.744,-1.744,-1.7508,-1.7522,-1.7454,-1.7515,-1.7582,-1.7582,-1.7582,-1.7582,-1.7582,-1.7582,-1.7515,-1.744,-1.744,-1.7288,-1.7094,-1.7313,-1.7393,-1.74,-1.7508,-1.7582,-1.7582,-1.7582,-1.7582,-1.7582,-1.7582,-1.7582,-1.7582,-1.7582,-1.7582,-1.7582]},{"header":{"parameterUnit":"m.s-1","parameterCategory":1,"la1":30.6,"la2":28.766,"lo1":-90.7593,"lo2":-88.6598,"dy":0.0162,"dx":0.0183,"nx":116,"ny":114,"refTime":"2023-10-27T06:00:00:Z","depth":0,"parameterNumber":3,"parameterNumberName":"V-component_of_WINDS"},"data":[0.0,0.0,0.0,0.0,0.0,0.0,0.0,0.0,0.0,0.0,0.0,0.0,0.0,0.0,0.0,0.0,0.0,0.0,0.0,0.0,0.0,0.0,0.0,0.0,0.0,0.0,0.0,0.0,0.0,0.0,0.0,0.0,0.0,0.0,0.0,0.0,0.0,0.0,0.0,0.0,0.0,0.0,0.0,0.0,0.0,0.0,0.0,0.0,0.0,0.0,0.0,0.0,0.0,0.0,0.0,0.0,0.0,0.0,0.0,0.0,0.0,0.0,0.0,0.0,0.0,0.0,0.0,0.0,0.0,0.0,0.0,0.0,0.0,0.0,0.0,0.0,0.0,0.0,0.0,0.0,0.0,0.0,0.0,0.0,0.0,0.0,0.0,0.0,0.0,0.0,0.0,0.0,0.0,0.0,0.0,0.0,0.0,0.0,0.0,0.0,0.0,0.0,0.0,0.0,0.0,0.0,0.0,0.0,0.0,0.0,0.0,0.0,0.0,0.0,0.0,0.0,0.0,0.0,0.0,0.0,0.0,0.0,0.0,0.0,0.0,0.0,0.0,0.0,0.0,0.0,0.0,0.0,0.0,0.0,0.0,0.0,0.0,0.0,0.0,0.0,0.0,0.0,0.0,0.0,0.0,0.0,0.0,0.0,0.0,0.0,0.0,0.0,0.0,0.0,0.0,0.0,0.0,0.0,0.0,0.0,0.0,0.0,0.0,0.0,0.0,0.0,0.0,0.0,0.0,0.0,0.0,0.0,0.0,0.0,0.0,0.0,0.0,0.0,0.0,0.0,0.0,0.0,0.0,0.0,0.0,0.0,0.0,0.0,0.0,0.0,0.0,0.0,0.0,0.0,0.0,0.0,0.0,0.0,0.0,0.0,0.0,0.0,0.0,0.0,0.0,0.0,0.0,0.0,0.0,0.0,0.0,0.0,0.0,0.0,0.0,0.0,0.0,0.0,0.0,0.0,0.0,0.0,0.0,0.0,0.0,0.0,0.0,0.0,0.0,0.0,0.0,0.0,0.0,0.0,0.0,0.0,0.0,0.0,0.0,0.0,0.0,0.0,0.0,0.0,0.0,0.0,0.0,0.0,0.0,0.0,0.0,0.0,0.0,0.0,0.0,0.0,0.0,0.0,0.0,0.0,0.0,0.0,0.0,0.0,0.0,0.0,0.0,0.0,0.0,0.0,0.0,0.0,0.0,0.0,0.0,0.0,0.0,0.0,0.0,0.0,0.0,0.0,0.0,0.0,0.0,0.0,0.0,0.0,0.0,0.0,0.0,0.0,0.0,0.0,0.0,0.0,0.0,0.0,0.0,0.0,0.0,0.0,0.0,0.0,0.0,0.0,0.0,0.0,0.0,0.0,0.0,0.0,0.0,0.0,0.0,0.0,0.0,0.0,0.0,0.0,0.0,0.0,0.0,0.0,0.0,0.0,0.0,0.0,0.0,0.0,0.0,0.0,0.0,0.0,0.0,0.0,0.0,0.0,0.0,0.0,0.0,0.0,0.0,0.0,0.0,0.0,0.0,0.0,0.0,0.0,0.0,0.0,0.0,0.0,0.0,0.0,0.0,0.0,0.0,0.0,0.0,0.0,0.0,0.0,0.0,0.0,0.0,0.0,0.0,0.0,0.0,0.0,0.0,0.0,0.0,0.0,0.0,0.0,0.0,0.0,0.0,0.0,0.0,0.0,0.0,0.0,0.0,0.0,0.0,0.0,0.0,0.0,0.0,0.0,0.0,0.0,0.0,0.0,0.0,0.0,0.0,0.0,0.0,0.0,0.0,0.0,0.0,0.0,0.0,0.0,0.0,0.0,0.0,0.0,0.0,0.0,0.0,0.0,0.0,0.0,0.0,0.0,0.0,0.0,0.0,0.0,0.0,0.0,0.0,0.0,0.0,0.0,0.0,0.0,0.0,0.0,0.0,0.0,0.0,0.0,0.0,0.0,0.0,0.0,0.0,0.0,0.0,0.0,0.0,0.0,0.0,0.0,0.0,0.0,0.0,0.0,0.0,0.0,0.0,0.0,0.0,0.0,0.0,0.0,0.0,0.0,0.0,0.0,0.0,0.0,0.0,0.0,0.0,0.0,0.0,0.0,0.0,0.0,0.0,0.0,0.0,0.0,0.0,0.0,0.0,0.0,0.0,0.0,0.0,0.0,0.0,0.0,0.0,0.0,0.0,0.0,0.0,0.0,0.0,0.0,0.0,0.0,0.0,0.0,0.0,0.0,0.0,0.0,0.0,0.0,0.0,0.0,0.0,0.0,0.0,0.0,0.0,0.0,0.0,0.0,0.0,0.0,0.0,0.0,0.0,0.0,0.0,0.0,0.0,0.0,0.0,0.0,0.0,0.0,0.0,0.0,0.0,0.0,0.0,0.0,0.0,0.0,0.0,0.0,0.0,0.0,0.0,0.0,0.0,0.0,0.0,0.0,0.0,0.0,0.0,0.0,0.0,0.0,0.0,0.0,0.0,0.0,0.0,0.0,0.0,0.0,0.0,0.0,0.0,0.0,0.0,0.0,0.0,0.0,0.0,0.0,0.0,0.0,0.0,0.0,0.0,0.0,0.0,0.0,0.0,0.0,0.0,0.0,0.0,0.0,0.0,0.0,0.0,0.0,0.0,0.0,0.0,0.0,0.0,0.0,0.0,0.0,0.0,0.0,0.0,0.0,0.0,0.0,0.0,0.0,0.0,0.0,0.0,0.0,0.0,0.0,0.0,0.0,0.0,0.0,0.0,0.0,0.0,0.0,0.0,0.0,0.0,0.0,0.0,0.0,0.0,0.0,0.0,0.0,0.0,0.0,0.0,0.0,0.0,0.0,0.0,0.0,0.0,0.0,0.0,0.0,0.0,0.0,0.0,0.0,0.0,0.0,0.0,0.0,0.0,0.0,0.0,0.0,0.0,0.0,0.0,0.0,0.0,0.0,0.0,0.0,0.0,0.0,0.0,0.0,0.0,0.0,0.0,0.0,0.0,0.0,0.0,0.0,0.0,0.0,0.0,0.0,0.0,0.0,0.0,0.0,0.0,0.0,0.0,0.0,0.0,0.0,0.0,0.0,0.0,0.0,0.0,0.0,0.0,0.0,0.0,0.0,0.0,0.0,0.0,0.0,0.0,0.0,0.0,0.0,0.0,0.0,0.0,0.0,0.0,0.0,0.0,0.0,0.0,0.0,0.0,0.0,0.0,0.0,0.0,0.0,0.0,0.0,0.0,0.0,0.0,0.0,0.0,0.0,0.0,0.0,0.0,0.0,0.0,0.0,0.0,0.0,0.0,0.0,0.0,0.0,0.0,0.0,0.0,0.0,0.0,0.0,0.0,0.0,0.0,0.0,0.0,0.0,0.0,0.0,0.0,0.0,0.0,0.0,0.0,0.0,0.0,0.0,0.0,0.0,0.0,0.0,0.0,0.0,0.0,0.0,0.0,0.0,0.0,0.0,0.0,0.0,0.0,0.0,0.0,0.0,0.0,0.0,0.0,0.0,0.0,0.0,0.0,0.0,0.0,0.0,0.0,0.0,0.0,0.0,0.0,0.0,0.0,0.0,0.0,0.0,0.0,0.0,0.0,0.0,0.0,0.0,0.0,0.0,0.0,0.0,0.0,0.0,0.0,0.0,0.0,0.0,0.0,0.0,0.0,0.0,0.0,0.0,0.0,0.0,0.0,0.0,0.0,0.0,0.0,0.0,0.0,0.0,0.0,0.0,0.0,0.0,0.0,0.0,0.0,0.0,0.0,0.0,0.0,0.0,0.0,0.0,0.0,0.0,0.0,0.0,0.0,0.0,0.0,0.0,0.0,0.0,0.0,0.0,0.0,0.0,0.0,0.0,0.0,0.0,0.0,0.0,0.0,0.0,0.0,0.0,0.0,0.0,0.0,0.0,0.0,0.0,0.0,0.0,0.0,0.0,0.0,0.0,0.0,0.0,0.0,0.0,0.0,0.0,0.0,0.0,0.0,0.0,0.0,0.0,0.0,0.0,0.0,0.0,0.0,0.0,0.0,0.0,0.0,0.0,0.0,0.0,0.0,0.0,0.0,0.0,0.0,0.0,0.0,0.0,0.0,0.0,0.0,0.0,0.0,0.0,0.0,0.0,0.0,0.0,0.0,0.0,0.0,0.0,0.0,0.0,0.0,0.0,0.0,0.0,0.0,0.0,0.0,0.0,0.0,0.0,0.0,0.0,0.0,0.0,0.0,0.0,0.0,0.0,0.0,0.0,0.0,0.0,0.0,0.0,0.0,0.0,0.0,0.0,0.0,0.0,0.0,0.0,0.0,0.0,0.0,0.0,0.0,0.0,0.0,0.0,0.0,0.0,0.0,0.0,0.0,0.0,0.0,0.0,0.0,0.0,0.0,0.0,0.0,0.0,0.0,0.0,0.0,0.0,0.0,0.0,0.0,0.0,0.0,0.0,0.0,0.0,0.0,0.0,0.0,0.0,0.0,0.0,0.0,0.0,0.0,0.0,0.0,0.0,0.0,0.0,0.0,0.0,0.0,0.0,0.0,0.0,0.0,0.0,0.0,0.0,0.0,0.0,0.0,0.0,0.0,0.0,0.0,0.0,0.0,0.0,0.0,0.0,0.0,0.0,0.0,0.0,0.0,0.0,0.0,0.0,0.0,0.0,0.0,0.0,0.0,0.0,0.0,0.0,0.0,0.0,0.0,0.0,0.0,0.0,0.0,0.0,0.0,0.0,0.0,0.0,0.0,0.0,0.0,0.0,0.0,0.0,0.0,0.0,0.0,0.0,0.0,0.0,0.0,0.0,0.0,0.0,0.0,0.0,0.0,0.0,0.0,0.0,0.0,0.0,0.0,0.0,0.0,0.0,0.0,0.0,0.0,0.0,0.0,0.0,0.0,0.0,0.0,0.0,0.0,0.0,0.0,0.0,0.0,0.0,0.0,0.0,0.0,0.0,0.0,0.0,0.0,0.0,0.0,0.0,0.0,0.0,0.0,0.0,0.0,0.0,0.0,0.0,0.0,0.0,0.0,0.0,0.0,0.0,0.0,0.0,0.0,0.0,0.0,0.0,0.0,0.0,0.0,0.0,0.0,0.0,0.0,0.0,0.0,0.0,0.0,0.0,0.0,0.0,0.0,0.0,0.0,0.0,0.0,0.0,0.0,0.0,0.0,0.0,0.0,0.0,0.0,0.0,0.0,0.0,0.0,0.0,0.0,0.0,0.0,0.0,0.0,0.0,0.0,0.0,0.0,0.0,0.0,0.0,0.0,0.0,0.0,0.0,0.0,0.0,0.0,0.0,0.0,0.0,0.0,0.0,0.0,0.0,0.0,0.0,0.0,0.0,0.0,0.0,0.0,0.0,0.0,0.0,0.0,0.0,0.0,0.0,0.0,0.0,0.0,0.0,0.0,0.0,0.0,0.0,0.0,0.0,0.0,0.0,0.0,0.0,0.0,0.0,0.0,0.0,0.0,0.0,0.0,0.0,0.0,0.0,0.0,0.0,0.0,0.0,0.0,0.0,0.0,0.0,0.0,0.0,0.0,0.0,0.0,0.0,0.0,0.0,0.0,0.0,0.0,0.0,0.0,0.0,0.0,0.0,0.0,0.0,0.0,0.0,0.0,0.0,0.0,0.0,0.0,0.0,0.0,0.0,0.0,0.0,0.0,0.0,0.0,0.0,0.0,0.0,0.0,0.0,0.0,0.0,0.0,0.0,0.0,0.0,0.0,0.0,0.0,0.0,0.0,0.0,0.0,0.0,0.0,0.0,0.0,0.0,0.0,0.0,0.0,0.0,0.0,0.0,0.0,0.0,0.0,0.0,0.0,0.0,0.0,0.0,0.0,0.0,0.0,0.0,0.0,0.0,0.0,0.0,0.0,0.0,0.0,0.0,0.0,0.0,0.0,0.0,0.0,0.0,0.0,0.0,0.0,0.0,0.0,0.0,0.0,0.0,0.0,0.0,0.0,0.0,0.0,0.0,0.0,0.0,0.0,0.0,0.0,0.0,0.0,0.0,0.0,0.0,0.0,0.0,0.0,0.0,0.0,0.0,0.0,0.0,0.0,0.0,0.0,0.0,0.0,0.0,0.0,0.0,0.0,0.0,0.0,0.0,0.0,0.0,0.0,0.0,1.1338,1.1045,0.0,0.0,0.0,0.0,0.0,0.0,0.0,0.0,0.0,0.0,0.0,0.0,0.0,0.0,0.0,0.0,0.0,0.0,0.0,0.0,0.0,0.0,0.0,0.0,0.0,0.0,0.0,0.0,0.0,0.0,0.0,0.0,0.0,0.0,0.0,0.0,0.0,0.7458,0.7953,0.8714,0.9733,0.9529,0.973,1.0224,0.0,0.0,0.0,0.0,0.0,0.0,0.0,0.0,0.0,0.0,0.0,0.0,0.0,0.0,0.0,0.0,0.0,0.0,0.0,0.0,0.0,0.0,0.0,0.0,0.0,0.0,0.0,0.0,0.0,0.0,0.0,0.0,0.0,0.0,0.0,0.0,0.0,0.0,0.0,0.0,0.0,0.0,0.0,0.0,0.0,0.0,0.0,0.0,0.0,0.0,0.0,0.0,0.0,0.0,0.0,0.0,0.0,0.0,0.0,0.0,0.0,0.0,0.0,0.0,0.0,0.0,0.0,0.0,0.0,0.0,1.1936,1.168,0.0,0.0,0.0,0.0,0.0,0.0,0.0,0.0,0.0,0.0,0.0,0.0,0.0,0.0,0.0,0.0,0.0,0.0,0.0,0.0,0.0,0.0,0.0,0.3502,0.3913,0.4157,0.4438,0.4723,0.0,0.0,0.0,0.0,0.0,0.0,0.0,0.6838,0.7232,0.7663,0.8708,0.9659,1.0497,1.1187,1.1551,1.1635,1.1159,0.0,0.0,0.0,0.0,0.0,0.0,0.0,0.0,0.0,0.0,0.0,0.0,0.0,0.0,0.0,0.0,0.0,0.0,0.0,0.0,0.0,0.0,0.0,0.0,0.0,0.0,0.0,0.0,0.0,0.0,0.0,0.0,0.0,0.0,0.0,0.0,0.0,0.0,0.0,0.0,0.0,0.0,0.0,0.0,0.0,0.0,0.0,0.0,0.0,0.0,0.0,0.0,0.0,0.0,0.0,0.0,0.0,0.0,0.0,0.0,0.0,0.0,0.0,1.2398,1.2687,1.3331,1.2759,1.3089,1.3998,1.2949,1.2713,1.2981,1.1768,0.0,0.0,0.0,0.0,0.0,0.0,0.0,0.0,0.0,0.0,0.0,0.0,0.0,0.0,0.0,0.0,0.0,0.0,0.0,0.0,0.0,0.3486,0.376,0.4476,0.4562,0.4781,0.5235,0.0,0.0,0.0,0.0,0.0,0.6498,0.6838,0.7446,0.8371,1.0922,1.2389,1.2867,1.384,1.4298,1.4232,1.2856,1.1923,1.1416,0.0,0.0,0.0,0.0,0.0,0.0,0.0,0.0,0.0,0.0,0.0,0.0,0.0,0.0,0.0,0.0,0.0,0.0,0.0,0.0,0.0,0.0,0.0,0.0,0.0,0.0,0.0,0.0,0.0,0.0,0.0,0.0,0.0,0.0,0.0,0.0,0.0,0.0,0.0,0.0,0.0,1.1797,1.1614,0.0,0.0,0.0,0.0,0.0,0.0,0.0,0.0,0.0,0.0,0.0,0.0,0.0,1.1813,1.2295,1.3048,1.357,1.3858,1.4573,1.4979,1.5081,1.498,1.5437,1.628,1.6112,0.0,1.2912,1.2835,0.0,0.0,0.0,0.0,0.0,0.0,0.0,0.0,0.0,0.0,0.0,0.0,0.0,0.0,0.0,0.0,0.0,0.0,0.0,0.0,0.0,0.4889,0.5528,0.6886,0.747,0.732,0.6276,0.6585,0.0,0.0,0.0,0.6249,0.6774,0.7488,0.8943,1.1214,1.2851,1.4193,1.5211,1.5664,1.5867,1.584,1.5294,1.4195,1.2813,1.3014,0.0,0.0,0.0,0.0,0.0,0.0,0.0,0.0,0.0,0.0,0.0,0.0,0.0,0.0,0.0,0.0,0.0,0.0,0.0,0.0,0.0,0.0,0.0,0.0,0.0,0.0,0.0,0.0,0.0,0.0,0.0,0.0,0.0,0.0,0.0,0.0,0.0,0.0,0.0,1.1864,1.177,1.1927,1.15,1.1113,0.0,0.0,0.0,0.0,0.0,0.0,0.0,0.0,0.0,1.3426,1.3667,1.3994,1.4482,1.5071,1.5576,1.596,1.635,1.6649,1.6858,1.6858,1.7072,1.7441,1.7737,1.7078,1.5689,1.4898,1.401,1.3097,0.0,0.0,0.0,0.0,1.3339,1.3766,0.0,0.0,0.0,0.0,0.0,0.0,0.0,0.0,0.0,0.0,0.0,0.0,0.5756,0.6585,0.7674,0.9248,0.9853,0.948,0.7923,0.8163,0.7936,0.6918,0.6634,0.6909,0.7731,0.9049,1.1004,1.3645,1.4758,1.5955,1.7194,1.7301,1.736,1.7373,1.7533,1.6435,1.4475,1.4258,1.3599,1.2626,0.0,0.0,0.0,0.0,0.0,0.0,0.0,0.0,0.0,0.0,0.0,0.0,0.0,0.0,0.0,0.0,0.0,0.0,0.0,0.0,0.0,0.0,0.0,0.0,0.0,0.0,0.0,0.0,0.0,0.0,0.0,0.0,0.0,0.0,0.0,0.0,0.0,1.2101,1.2116,1.2199,1.2234,1.1991,0.0,0.0,0.0,0.0,0.0,0.0,1.3176,1.3815,1.4567,1.543,1.5752,1.6123,1.6584,1.7,1.7349,1.7708,1.7845,1.8052,1.8338,1.8338,1.8437,1.8719,1.9329,1.9428,1.9002,1.7235,1.6112,1.5461,1.4729,1.442,1.4492,1.4993,1.537,1.5785,0.0,0.0,0.0,0.0,0.0,0.0,0.0,0.0,0.0,0.0,0.0,0.6139,0.6422,0.8171,0.9706,1.0629,1.0219,1.0025,1.0306,0.9413,0.8959,0.9211,0.8364,0.8483,0.9719,1.1907,1.3553,1.4534,1.675,1.8037,1.851,1.8965,1.916,1.916,1.9177,1.8146,1.6314,1.5541,1.5002,1.4501,1.2847,0.0,0.0,0.0,0.0,0.0,0.0,0.0,0.0,0.0,0.0,0.0,0.0,0.0,0.0,0.0,0.0,0.0,0.0,0.0,0.0,0.0,0.0,0.0,0.0,0.0,0.0,0.0,0.0,0.0,0.0,0.0,0.0,0.0,0.0,0.0,0.0,0.0,0.0,1.2391,1.3082,0.0,0.0,0.0,0.0,1.3514,1.4232,1.4872,1.5406,1.5791,1.6354,1.7236,1.7275,1.748,1.791,1.8301,1.852,1.8566,1.8986,1.922,1.9217,1.9217,1.9706,2.0535,2.1449,2.2003,2.2071,1.9644,1.811,1.726,1.7229,1.7191,1.728,1.7862,1.8338,1.8758,0.0,0.0,0.0,0.0,0.0,0.0,0.0,0.0,0.4107,0.4902,0.5961,0.7599,1.0089,1.1231,1.245,1.408,1.4006,1.3237,1.1693,1.0964,1.0043,0.8812,0.861,0.9515,1.1655,1.3058,1.4879,1.7182,1.8556,1.9746,2.0732,2.0889,2.0957,2.0947,2.0664,2.0111,1.9353,1.844,1.7258,1.5916,1.542,1.4046,0.0,0.0,0.0,0.0,0.0,0.0,0.0,0.0,0.0,0.0,0.0,0.0,0.0,0.0,0.0,0.0,0.0,0.0,0.0,0.0,0.0,0.0,0.0,0.0,0.0,0.0,0.0,0.0,0.0,0.0,0.0,0.0,0.0,0.0,0.0,0.0,0.0,1.476,1.5545,0.0,1.4844,1.5126,1.5338,1.5242,1.5997,1.679,1.7485,1.7929,1.855,1.9441,1.9707,1.9795,1.9648,2.0367,2.0566,2.0265,2.076,2.0819,2.0518,2.0835,2.0836,2.0673,2.191,2.2509,2.2628,2.2359,2.159,2.0486,1.9797,1.9504,1.9501,1.9339,1.9614,2.0085,0.0,0.0,0.0,0.0,0.0,0.0,0.0,0.0,0.47,0.5881,0.7186,0.922,1.2348,1.3667,1.4965,1.6609,1.6212,1.5138,1.3377,1.211,1.0787,0.9397,0.9787,1.1027,1.3092,1.472,1.6695,1.9026,2.0078,2.1025,2.1885,2.1885,2.1885,2.1875,2.1582,2.1471,2.1466,2.0831,1.9496,1.7683,1.6907,1.5705,1.4237,0.0,0.0,0.0,0.0,0.0,0.0,0.0,0.0,0.0,0.0,0.0,0.0,0.0,0.0,0.0,0.0,0.0,0.0,0.0,0.0,0.0,0.0,0.0,0.0,0.0,0.0,0.0,0.0,0.0,0.0,0.0,0.0,0.0,0.0,1.5253,1.6307,1.6342,1.7463,1.7837,1.685,1.736,1.7726,1.7632,1.8288,1.8994,1.9697,2.001,2.043,2.1036,2.1299,2.1318,2.1055,2.1607,2.1743,2.1461,2.1736,2.1655,2.1223,2.151,2.1271,2.0673,2.1932,2.2477,2.2592,2.391,2.3974,2.3151,2.2359,2.1964,2.1773,2.1355,2.133,2.1468,0.0,0.0,0.0,0.0,0.0,0.0,0.0,0.486,0.5313,0.6244,0.8625,1.0975,1.2994,1.5331,1.7077,1.7959,1.6436,1.5391,1.5332,1.2732,1.1173,1.1198,1.206,1.3036,1.4089,1.7091,1.9056,1.998,2.1269,2.1914,2.1924,2.1924,2.1924,2.1924,2.1924,2.2149,2.253,2.254,2.1588,1.9901,1.7266,1.7143,1.8165,0.0,0.0,0.0,0.0,0.0,0.0,0.0,0.0,0.0,0.0,0.0,0.0,0.0,0.0,0.0,0.0,0.0,0.0,0.0,0.0,0.0,0.0,0.0,0.0,0.0,0.0,0.0,0.0,0.0,0.0,0.0,0.0,0.0,1.5379,1.6578,1.7405,1.6992,1.874,1.9527,1.8228,1.9224,2.0146,2.0615,2.1006,2.1445,2.1875,2.1904,2.1904,2.1924,2.1924,2.1924,2.1904,2.1924,2.1924,2.1904,2.1904,2.168,2.128,2.1253,2.1076,2.073,2.1668,2.2088,2.2227,2.4182,2.5016,2.5015,2.4884,2.4519,2.4042,2.4004,2.364,2.3032,0.0,0.0,0.0,0.0,0.0,0.0,0.0,0.4374,0.5287,0.7471,0.9429,1.1925,1.5331,1.6867,1.7871,1.8383,1.6885,1.53,1.3847,1.17,1.0768,1.1389,1.2725,1.4512,1.6854,1.8358,1.9844,2.1348,2.2012,2.249,2.275,2.275,2.275,2.275,2.275,2.3123,2.3667,2.2836,2.2689,2.2909,2.1224,1.9495,1.7813,0.0,0.0,0.0,0.0,0.0,0.0,0.0,0.0,0.0,0.0,0.0,0.0,0.0,0.0,0.0,0.0,0.0,0.0,0.0,0.0,0.0,0.0,0.0,0.0,0.0,0.0,0.0,0.0,0.0,0.0,0.0,1.7784,1.9136,1.7823,1.9648,2.0816,2.0088,2.1475,2.2066,2.0926,2.1121,2.1396,2.1514,2.1641,2.1894,2.2314,2.2344,2.248,2.274,2.275,2.2646,2.2344,2.2604,2.2604,2.2344,2.2344,2.2464,2.2714,2.2732,2.2739,2.2754,2.3319,2.3818,2.4225,2.4779,2.5441,2.602,2.5561,2.5285,2.5071,2.428,2.364,2.3083,0.0,0.0,0.0,0.0,0.0,0.0,0.0,0.4405,0.5486,0.797,0.993,1.2386,1.5774,1.6921,1.7535,1.7779,1.583,1.4059,1.281,1.1226,1.0881,1.2105,1.3906,1.6021,1.8471,1.9746,2.0957,2.2148,2.2568,2.2857,2.3091,2.3091,2.3091,2.3091,2.3091,2.3325,2.3705,2.3011,2.3308,2.412,2.3331,2.2037,2.0542,1.9731,1.9302,1.8899,1.751,1.6834,1.6437,1.552,0.0,0.0,0.0,0.0,0.0,0.0,0.0,0.0,0.0,0.0,0.0,0.0,0.0,0.0,0.0,0.0,0.0,0.0,0.0,0.0,0.0,0.0,0.0,0.0,2.0653,2.2263,2.1946,2.2473,2.2643,2.1843,2.2692,2.3078,2.2454,2.2412,2.2412,2.2412,2.2412,2.2519,2.2721,2.273,2.2847,2.3091,2.3091,2.2974,2.273,2.2974,2.2974,2.273,2.273,2.2737,2.2717,2.2717,2.2745,2.2896,2.3161,2.3708,2.4402,2.485,2.5335,2.5884,0.0,0.0,0.0,0.0,2.3679,2.3113,0.0,0.0,0.0,0.0,0.0,0.0,0.0,0.4684,0.5737,0.8006,1.009,1.2371,1.5032,1.6054,1.6488,1.6384,1.3996,1.2357,1.2018,1.1257,1.1574,1.3363,1.5501,1.7582,1.9561,2.1143,2.2168,2.2578,2.2916,2.3091,2.3091,2.3091,2.3091,2.3091,2.3091,2.3178,2.3256,2.3135,2.3536,2.423,2.4013,2.4312,2.4649,2.2045,2.2043,2.3118,2.1236,1.9885,1.8944,1.8112,0.0,0.0,0.0,0.0,0.0,0.0,0.0,0.0,0.0,0.0,0.0,0.0,0.0,0.0,0.0,0.0,0.0,0.0,0.0,0.0,0.0,0.0,0.0,0.0,2.3845,2.5467,2.637,2.5083,2.3768,2.3028,2.3159,2.3299,2.3299,2.3178,2.3091,2.3091,2.3091,2.3091,2.3091,2.3091,0.0,0.0,0.0,2.3091,2.3091,2.3091,2.3091,2.3091,2.3163,2.2922,2.2305,2.242,2.2528,2.2665,2.2612,2.3113,2.3995,2.4838,2.5158,2.5252,2.6102,2.6059,2.5489,2.4539,2.3742,2.3108,0.0,0.0,0.0,0.0,0.0,0.0,0.0,0.4319,0.5435,0.7972,0.9557,1.1578,1.4588,1.5361,1.5288,1.4442,1.3224,1.2022,1.0907,1.1945,1.344,1.5357,1.7555,1.9569,2.1348,2.2041,2.2598,2.2974,2.3052,2.3091,2.3091,2.3091,2.3091,2.3091,2.3091,2.3594,2.4414,2.3507,2.3707,2.4619,2.3637,2.4228,2.5504,2.4402,2.4458,2.4958,2.371,2.2945,2.2408,2.1409,2.0174,1.8813,1.7766,1.6405,0.0,0.0,0.0,0.0,0.0,0.0,0.0,0.0,0.0,0.0,0.0,0.0,0.0,0.0,0.0,0.0,0.0,0.0,0.0,2.334,2.5732,2.7247,2.6582,2.691,2.6852,2.5821,2.4999,2.4457,2.4457,2.3637,2.3091,2.3091,2.3091,2.3091,2.3091,2.3091,2.3091,2.3091,2.3091,2.3091,2.3091,2.3091,2.3091,2.3091,2.3693,0.0,2.4883,2.5423,2.6144,2.6907,2.6468,2.6405,2.6559,2.6315,2.6198,2.6195,2.587,2.5656,2.5344,2.4514,2.3715,2.3112,0.0,0.0,0.0,0.0,0.0,0.0,0.0,0.4747,0.5527,0.7272,0.8655,1.0286,1.2371,1.2888,1.2794,1.2027,1.1091,1.0644,1.0853,1.2758,1.5002,1.7536,1.9541,2.1094,2.2178,2.2607,2.2886,2.3091,2.3091,2.3091,2.3091,2.3091,2.3091,2.3091,2.3091,2.343,2.3963,2.3963,2.4296,2.4745,2.4168,2.4825,2.6112,2.5793,2.5993,2.6431,2.6432,2.5816,2.4872,2.4071,2.2738,2.1228,1.9884,1.8453,1.6978,0.0,0.0,0.0,0.0,0.0,0.0,0.0,0.0,0.0,0.0,0.0,0.0,0.0,0.0,1.9981,2.1009,0.0,2.4866,2.6202,2.8075,2.928,2.8989,2.8974,2.8197,2.619,2.5275,2.4762,2.4625,2.3875,2.3467,2.3467,2.3467,2.3369,2.311,2.3091,2.3091,2.3091,2.3091,2.3091,2.3091,2.3091,2.3091,2.3091,2.346,2.4096,2.4903,2.5254,2.6113,2.7336,2.7066,2.7224,2.767,2.7394,2.7281,2.7241,2.6386,2.564,2.5062,2.4663,2.3917,2.3113,0.0,0.0,0.0,0.0,0.0,0.0,0.0,0.5246,0.572,0.6688,0.79,0.9065,1.0122,1.0487,1.0395,0.977,0.9115,0.9541,1.1439,1.3869,1.6552,1.9524,2.1172,2.2246,2.2754,2.3052,2.3257,2.3344,2.3344,2.3296,2.3218,2.3218,2.3179,2.3101,2.3188,2.3169,2.3188,2.4389,2.4871,2.483,2.5041,2.5672,2.6502,2.6412,2.6766,2.7377,2.8172,2.7452,2.6109,2.5598,2.4343,2.2693,2.1374,2.0069,1.8634,1.6566,1.5506,0.0,0.0,0.0,0.0,0.0,0.0,0.0,0.0,1.7543,1.8367,2.0155,2.1457,2.2767,2.428,2.5834,2.7397,2.8975,3.0105,3.0909,3.1336,3.0443,2.8912,2.6661,2.5603,2.5093,2.5093,2.4295,2.3953,2.4247,2.3963,2.3633,2.3247,2.3218,2.3218,2.3218,2.314,2.3261,2.3559,2.347,2.3551,2.3767,2.3963,2.4398,2.4973,2.5188,2.6001,2.7227,2.7119,2.7446,2.8109,2.8109,2.8109,2.8009,2.7165,2.6121,2.5101,2.4878,2.4356,2.3773,0.0,0.0,0.0,0.0,0.0,0.0,0.0,0.0,0.5782,0.7067,0.7795,0.8564,0.9575,0.999,0.9675,0.843,0.8866,1.0235,1.2644,1.5482,1.8255,2.0869,2.1934,2.2822,2.3633,2.3691,2.3906,2.4268,2.4268,2.4082,2.3721,2.3721,2.3516,2.311,2.3545,2.3496,2.3208,2.4695,2.5132,2.4872,2.5891,2.6389,2.6468,2.6019,2.6455,2.7252,2.69,2.5982,2.4996,2.4901,2.3791,2.2355,2.2172,2.0925,1.928,1.8003,1.6005,1.4156,1.3837,1.4014,1.4761,1.6746,1.721,1.8339,0.0,2.3032,2.2849,2.4549,2.5806,2.6666,2.6874,2.8299,2.9626,3.0279,3.0922,3.1323,3.1386,3.0348,2.9681,2.9824,2.7657,2.6491,2.7437,2.5242,2.4421,2.5899,2.4651,2.3769,2.3721,2.3721,2.3721,2.3721,2.334,2.374,2.5122,2.4793,2.5136,2.6141,2.7075,2.7567,2.7721,2.8694,2.928,2.9399,2.89,2.8437,2.8109,2.8109,2.8109,2.8097,2.7971,2.726,2.619,2.5161,2.537,2.6113,0.0,0.0,0.0,0.0,0.0,0.0,0.0,0.0,0.0,0.6315,0.6734,0.7193,0.7743,0.7988,0.7901,0.7334,0.8911,1.0915,1.3199,1.6424,1.9268,2.1494,2.2379,2.3164,2.3779,2.3789,2.3994,2.4414,2.4414,2.4199,2.3789,2.3789,2.3691,2.3525,2.3711,2.4212,2.5064,2.6333,2.6606,2.6339,2.7428,2.7351,2.6352,2.4996,2.4476,2.4545,2.4748,2.4071,0.0,2.3059,2.2024,2.0786,2.0799,1.9805,1.8414,1.7068,1.6028,1.5293,1.5157,1.6185,1.7528,1.8411,1.9861,2.1677,2.4079,2.4545,2.4957,2.6677,2.7682,2.8348,2.8674,2.9315,3.0068,3.0934,3.1248,3.1612,3.2319,3.1633,3.0949,3.0457,2.9103,2.7997,2.7363,2.6003,2.5051,2.4836,2.4657,2.4316,2.3818,2.4023,2.415,2.415,2.3975,2.4063,2.4474,2.4921,2.5274,2.5504,2.6625,2.7481,2.8136,2.8597,2.9157,2.9779,2.9528,2.9302,2.9089,2.9089,2.9089,2.9051,2.8712,2.8487,2.8275,2.7137,2.6639,2.6489,0.0,0.0,0.0,0.0,0.0,0.0,0.0,0.0,0.0,0.0,0.6295,0.6585,0.683,0.6745,0.6731,0.6898,0.8763,1.0944,1.3302,1.6637,1.9448,2.1511,2.255,2.3304,2.3779,2.3789,2.4053,2.459,2.4473,2.4258,2.3965,2.3848,2.3789,2.3844,2.4302,2.507,2.6172,2.7698,2.804,2.7626,2.8719,2.8274,2.6668,2.4337,2.2848,2.2091,2.2193,2.1382,2.0262,2.0179,1.9514,1.8695,1.8806,1.8209,1.7286,1.6291,1.5964,1.5953,1.6045,1.784,1.979,2.0238,2.2412,2.4652,2.5335,2.5967,2.6771,2.825,2.8888,2.9289,2.9716,2.9917,3.0319,3.1235,3.1524,3.1964,3.2943,3.2311,3.1503,3.0967,2.9716,2.852,2.7567,2.6506,2.5716,2.5196,2.5007,2.4844,2.4651,2.4608,2.459,2.459,2.4832,2.4992,2.5096,2.5966,2.6386,2.6401,2.7074,2.7827,2.8557,2.8557,2.9028,2.9792,2.9792,2.9792,2.9792,2.9792,2.9792,2.9754,2.934,2.9428,2.9691,2.8875,2.8089,2.7422,0.0,0.0,0.0,0.0,0.0,0.0,0.0,0.0,0.0,0.0,0.0,0.0,0.0,0.7069,0.6848,0.7429,0.8266,1.0,1.2925,1.5838,1.8504,2.0841,2.2321,2.3336,2.3805,2.3789,2.4199,2.5096,2.4619,2.4414,2.4385,2.3975,2.3789,2.3844,2.5482,2.592,2.5597,2.8371,2.8976,2.8199,2.93,2.9075,2.7703,2.4448,2.2286,2.0773,1.9353,1.7786,1.6345,1.6134,1.6092,1.6158,1.6499,1.638,1.6208,1.6412,1.5884,1.5385,1.6116,1.8145,2.0557,2.2519,2.4707,2.6691,2.7747,2.8424,2.8988,2.9616,2.9754,2.9779,2.9792,3.0231,3.0771,3.1298,3.1838,3.239,3.2993,3.1589,3.0881,3.1992,2.9186,2.7591,2.874,2.6754,2.6331,2.8489,2.6036,2.5099,2.6731,2.5725,2.5096,2.5096,2.5833,2.6956,2.8444,2.8695,2.9342,3.0411,2.9925,2.9714,2.9753,2.9753,2.9753,2.9792,2.9792,2.9792,2.9792,2.9792,2.9792,2.9792,2.9779,2.9779,2.9792,2.9754,2.9719,2.9678,0.0,0.0,0.0,0.0,0.0,0.0,0.0,0.0,0.0,0.0,0.0,0.0,0.0,0.0,0.0,0.0,0.9102,1.0518,1.2131,1.4945,1.722,1.8697,2.062,2.1961,2.2643,2.3126,2.3779,2.4639,2.5244,2.4987,2.3994,2.4589,2.4474,2.3844,2.5139,2.6201,2.7173,2.8893,2.9032,2.81,2.8113,2.6793,2.4487,2.169,1.9323,1.7277,0.0,1.4658,1.437,1.4176,1.365,1.3215,1.3992,1.3907,1.3715,1.4621,1.5835,1.705,1.7862,2.079,2.3873,2.4912,2.694,2.8762,2.9139,2.9654,2.9853,2.934,2.8661,2.8002,2.7297,2.7879,2.8682,2.924,3.0673,3.1863,3.2416,3.1978,3.1467,3.1195,3.0098,2.8855,2.7456,2.6162,2.5714,2.6472,2.5503,2.5455,2.684,2.6817,2.7113,2.7921,2.8231,2.8475,2.8735,2.9141,2.9391,2.9476,2.9704,2.9792,2.9792,2.9792,2.9792,2.9792,2.9792,2.9792,2.9792,2.9792,2.9792,2.9792,2.9792,2.9792,2.9792,2.9792,2.9806,2.9796,0.0,0.0,0.0,0.0,0.0,0.0,0.0,0.0,0.0,0.0,0.0,0.0,0.0,0.0,0.0,0.0,0.0,1.0329,1.1569,1.385,1.5706,1.6921,1.8432,1.9534,2.0222,2.0401,2.0888,2.1732,2.2675,2.2788,2.2109,2.3215,2.342,2.299,2.4305,2.5566,2.6775,2.7309,2.7209,2.6526,2.5564,2.3749,2.1408,1.9211,1.7109,0.0,1.3187,1.2626,1.2719,1.2307,1.2004,1.1895,1.2399,1.2788,1.3318,1.4607,1.6581,1.8616,1.9801,2.2867,2.5817,2.6417,2.8196,2.9792,2.9792,2.9905,2.9691,2.8574,2.7532,2.6491,2.5424,2.5804,2.6516,2.7284,2.8641,3.0104,3.1448,3.1286,3.1041,3.1157,3.011,2.9061,2.831,2.6712,2.5918,2.6345,2.64,2.6995,2.8382,2.8332,2.8588,2.9361,2.9818,2.9941,2.9665,3.0255,3.0204,2.9525,2.9729,2.9792,2.9792,2.9792,2.9792,2.9792,2.9792,2.9792,2.9792,2.9792,2.9792,2.9792,2.9792,2.9792,2.9792,2.9792,2.9792,2.978,0.0,0.0,0.0,0.0,0.0,0.0,0.0,0.0,0.0,0.0,0.0,0.0,0.0,0.0,0.0,0.0,0.0,0.0,1.1135,1.2569,1.3989,1.5397,1.588,1.6336,1.6791,1.6164,1.6159,1.6876,1.7513,1.8204,1.8899,2.0046,2.0756,2.1131,2.2937,2.3968,2.4307,2.3924,2.37,2.3474,2.1796,2.0167,1.855,1.7057,1.5593,1.4113,1.2403,1.1652,1.1369,1.062,1.1261,1.2302,1.191,1.3142,1.5014,1.6278,1.8057,2.0004,2.1801,2.426,2.6479,2.7224,2.8621,2.9817,2.9767,2.9302,2.8524,2.7431,2.6317,2.5242,2.4157,2.4055,2.4463,2.5565,2.6226,2.7553,3.0261,2.9772,2.9871,3.1943,2.9371,2.8468,3.1165,2.8528,2.7116,2.8237,2.8654,2.9564,3.1146,3.017,2.9578,2.9624,3.0687,3.1311,3.1311,3.1914,3.1696,3.0611,3.0104,2.9842,2.9842,2.9804,2.9792,2.9792,2.9792,2.9792,2.9792,2.9792,2.9792,2.9792,2.9829,2.9829,2.9829,2.9817,2.9817,2.9818,0.0,0.0,0.0,0.0,0.0,0.0,0.0,0.0,0.0,0.0,0.0,0.0,0.0,0.0,0.0,0.0,0.0,0.0,0.913,1.0575,1.1685,1.2314,1.3948,1.5074,1.5548,1.5871,1.6266,1.675,1.7749,1.7905,1.7304,1.8449,1.8575,1.7928,1.9544,2.0335,2.0489,2.153,2.108,1.9584,1.8735,1.7022,1.4882,1.4091,1.3162,1.2205,1.1726,1.1454,1.1292,1.1447,1.2806,1.4424,1.4254,1.534,1.6811,1.7447,1.9264,2.1488,2.3369,2.5724,2.7846,2.8913,2.9785,3.0181,2.934,2.8712,2.7811,2.5961,2.3786,2.1944,2.0956,2.206,2.341,2.4491,2.7409,2.9907,3.1032,3.1668,3.2047,3.2173,3.1808,3.1547,3.1409,3.1728,3.1737,3.1189,3.0056,3.0136,3.1793,3.1602,3.1829,3.2706,3.2635,3.2612,3.2612,3.2322,3.1842,3.1211,3.0635,3.0405,3.0376,2.9979,2.9792,2.9792,2.9792,2.9792,2.9792,2.9792,2.9792,2.9829,3.0244,3.0407,3.0355,2.9955,2.9814,2.9804,0.0,0.0,0.0,0.0,0.0,0.0,0.0,0.0,0.0,0.0,0.0,0.0,0.0,0.0,0.0,0.0,0.0,0.0,0.0,0.9636,1.0395,1.0785,1.1815,1.2612,1.3073,1.3092,1.3313,1.3722,1.4793,1.508,1.4634,1.593,1.6213,1.5652,1.6792,1.7412,1.7639,1.7745,1.7334,0.0,0.0,1.4063,1.2659,1.2434,1.1959,1.1371,1.1469,1.1948,1.2735,1.3856,1.5094,1.6216,1.6465,1.7933,1.9701,2.0217,2.1649,2.3475,2.5271,2.6878,2.8255,2.8897,2.9454,2.9501,2.8189,2.7144,2.5772,2.3417,2.1242,1.9418,1.8432,1.9714,2.1376,2.2686,2.5584,2.8362,3.0372,3.098,3.1689,3.28,3.2562,3.2423,3.2812,3.3232,3.3416,3.3313,3.2376,3.2249,3.321,3.3223,3.3441,3.3909,3.3608,3.3319,3.3124,3.2514,3.2047,3.1759,3.1213,3.0932,3.0929,3.0628,3.0369,3.0156,3.0156,3.0018,2.9817,3.0055,3.0156,3.0206,3.0746,3.0947,3.0894,3.0608,3.0205,2.9794,0.0,0.0,0.0,0.0,0.0,0.0,0.0,0.0,0.0,0.0,0.0,0.0,0.0,0.0,0.0,0.0,0.0,0.0,0.0,0.0,0.9717,1.0117,0.9953,1.0071,1.0448,0.9789,0.9598,0.9948,1.0821,1.1409,1.172,1.3064,1.3676,1.371,1.4282,1.479,1.5152,1.3692,1.3472,1.3934,1.2415,1.1662,1.1468,0.0,1.1524,1.126,1.1448,1.2611,1.4429,1.6504,1.7564,1.8109,1.8825,2.081,2.2958,2.3559,2.4395,2.5466,2.7084,2.7798,2.8148,2.8391,2.8598,2.8375,2.6856,2.5188,2.322,2.0629,1.8876,1.75,1.6582,1.7621,1.9214,2.1019,2.2983,2.5592,2.938,2.9604,3.0507,3.364,3.2596,3.254,3.469,3.3986,3.3788,3.4848,3.4939,3.4914,3.4793,3.4826,3.4575,3.4022,3.3935,3.3671,3.3194,3.2605,3.2327,3.2314,3.1767,3.151,3.1498,3.143,3.1148,3.0721,3.0721,3.0444,3.0043,3.052,3.0721,3.0771,3.1298,3.1499,3.1499,3.1619,3.1025,3.0257,0.0,0.0,0.0,0.0,0.0,0.0,0.0,0.0,0.0,0.0,0.8667,0.7937,0.0,0.0,0.0,0.0,0.0,0.0,0.0,0.0,0.0,0.9219,0.9865,1.0264,1.0332,1.0205,1.0156,1.0233,1.041,1.0518,1.0577,1.0845,1.0974,1.0994,1.1429,1.1672,1.1784,1.1855,1.184,1.1746,1.1428,1.1286,1.127,1.1289,0.0,0.0,1.1485,1.2176,1.3495,1.6326,1.8955,2.1185,2.2153,2.3741,2.5228,2.5351,2.5509,2.6086,2.8068,2.8386,2.8443,2.9831,2.9187,2.7837,2.629,2.4034,2.1625,1.9488,1.7492,1.6092,1.5935,1.7176,1.9162,2.2044,2.4558,2.7311,3.062,3.1426,3.2351,3.4317,3.4295,3.4624,3.5968,3.5928,3.5868,3.6069,3.6128,3.5881,3.5382,3.5357,3.5107,3.46,3.4135,3.3859,3.3759,3.3226,3.292,3.292,3.2331,3.2043,3.2031,3.1612,3.1336,3.1248,3.1248,3.1198,3.1122,3.1223,3.1248,3.1311,3.1851,3.2077,3.2143,3.2637,3.2704,3.2507,0.0,0.0,0.0,0.0,0.0,0.0,0.0,1.0105,1.0407,1.1323,1.0742,0.9906,0.9025,0.8723,0.8517,0.0,0.0,0.0,0.0,0.0,0.0,0.0,1.0249,1.0505,1.0621,1.0621,1.0621,1.0621,0.0,1.0621,1.0621,1.0621,1.0621,1.0612,1.0813,1.0894,1.0904,1.1146,1.1216,1.12,1.12,1.1258,1.1351,0.0,0.0,0.0,1.1776,1.26,1.3891,1.5951,1.8528,2.1238,2.3078,2.5384,2.7296,2.673,2.6781,2.7345,2.893,2.875,2.8447,2.9818,2.8712,2.6739,2.4691,2.2164,1.9591,1.7326,1.5905,1.5039,1.5077,1.6494,1.8343,2.0422,2.3063,2.5912,2.8945,3.0301,3.1788,3.4022,3.455,3.5152,3.6304,3.6405,3.6405,3.6405,3.6405,3.6292,3.5981,3.5658,3.537,3.5107,3.4342,3.3896,3.3896,3.3382,3.3124,3.3124,3.2792,3.2667,3.2654,3.239,3.2102,3.1813,3.1813,3.165,3.1411,3.17,3.1813,3.1901,3.2754,3.2918,3.2692,3.2993,3.3122,3.3064,0.0,0.0,0.0,0.0,0.0,0.0,0.0,1.1204,1.1702,1.2812,1.2936,1.2225,1.0446,0.9803,0.9288,0.0,0.0,0.0,0.0,0.0,0.0,0.0,0.0,0.0,1.0897,0.0,0.0,1.0897,1.0897,0.0,0.0,0.0,0.0,0.0,1.0897,1.0897,1.0897,1.0897,1.1031,0.0,0.0,1.1317,1.1504,0.0,0.0,0.0,0.0,1.2751,1.3892,1.5222,1.7238,1.9646,2.2131,2.5097,2.7593,2.7144,2.7385,2.8108,2.9584,2.9231,2.8712,2.9722,2.8109,2.5694,2.3357,2.0622,1.7943,1.5576,1.4735,1.4396,1.4396,1.5735,1.7266,1.8683,2.0931,2.368,2.7017,2.8635,3.0553,3.3395,3.4311,3.5115,3.6094,3.6329,3.6405,3.6405,3.6405,3.6405,3.6405,3.5956,3.5671,3.5671,3.4635,3.4052,3.4052,3.3414,3.3124,3.3124,3.3124,3.3124,3.3124,3.3124,3.2893,3.2566,3.2453,3.2215,3.1951,3.2265,3.2466,3.2654,3.3558,3.3709,3.3414,3.3376,3.3214,3.3032,0.0,0.0,0.0,0.0,0.0,0.0,0.0,1.2168,1.2998,1.4021,1.44,1.3994,1.2502,1.127,1.0197,0.0,0.0,0.0,0.0,0.0,0.0,0.0,0.0,0.0,0.0,0.0,0.0,1.0897,1.0897,0.0,0.0,0.0,0.0,0.0,0.0,1.0897,1.0897,1.0897,0.0,0.0,0.0,0.0,0.0,0.0,0.0,0.0,0.0,1.1643,1.2042,1.3931,1.5348,1.6735,1.8738,2.1402,2.4092,2.5583,2.6356,2.7287,2.9824,3.009,2.9788,3.0367,2.8084,2.5174,2.324,2.0296,1.7422,1.5499,1.4735,1.4396,1.4396,1.4891,1.6081,1.8513,1.9529,2.1785,2.6785,2.8024,2.9611,3.2787,3.4085,3.4919,3.552,3.6069,3.6405,3.6405,3.6405,3.6405,3.6405,3.6367,3.6329,3.6329,3.5228,3.4618,3.4618,3.3608,3.3124,3.3124,3.3124,3.3124,3.3124,3.3124,3.3319,3.3721,3.3219,3.3257,3.3633,3.3181,3.3294,3.3759,3.3859,3.4173,3.4517,3.4192,3.3692,3.3208,0.0,0.0,0.0,0.0,0.0,0.0,1.2154,1.2354,1.3153,1.5498,1.5431,1.5024,1.4681,1.3399,1.1777,0.9778,0.0,0.0,0.0,0.0,0.0,0.0,0.0,0.0,0.0,0.0,1.1811,1.1505,1.1505,0.0,0.0,0.0,0.0,0.0,0.0,1.1258,1.1258,1.1258,0.0,0.0,0.0,0.0,0.0,0.0,0.0,0.0,0.0,0.0,1.2009,1.2675,1.3609,1.4567,1.5033,1.6583,1.9053,2.3164,2.5247,2.6596,2.8562,2.944,2.9767,2.959,2.7153,2.4234,2.2294,1.9352,1.661,1.5008,1.4538,1.4396,1.4396,1.4777,1.5518,1.681,1.7949,1.9755,2.2817,2.4993,2.741,3.0344,3.2471,3.4211,3.5382,3.6044,3.6405,3.6405,3.6405,3.6405,3.6405,3.6405,3.6405,3.6405,3.5617,3.5165,3.5155,3.4122,3.3596,3.3571,3.3257,3.3124,3.3124,3.342,3.3696,3.3909,3.4022,3.4198,3.4374,3.4161,3.4198,3.4424,3.4718,3.4613,3.4261,3.4447,3.3927,3.3164,0.0,0.0,0.0,0.0,0.0,1.1004,1.255,1.2722,1.3557,1.6009,1.5899,1.5655,1.5903,1.4346,1.2601,1.0845,1.0238,0.0,0.0,0.0,0.0,0.0,0.0,0.0,0.0,0.0,1.2365,1.2048,1.2048,1.1968,0.0,0.0,1.1752,1.1704,0.0,0.0,0.0,0.0,0.0,0.0,0.0,0.0,0.0,0.0,0.0,0.0,0.0,0.0,0.0,0.0,0.0,1.3297,1.2847,1.3514,1.5405,2.0248,2.2984,2.4875,2.6721,2.8111,2.895,2.8549,2.6154,2.3396,2.1404,1.8651,1.6126,1.4828,1.4466,1.4419,1.4535,1.4752,1.5094,1.5702,1.6673,1.8063,2.0117,2.2521,2.5054,2.7613,3.013,3.2345,3.413,3.5562,3.6405,3.6405,3.6405,3.6405,3.6405,3.6405,3.6405,3.6405,3.5825,3.55,3.5523,3.4445,3.3896,3.3902,3.3351,3.3124,3.3136,3.3646,3.3985,3.4161,3.455,3.4768,3.4906,3.4788,3.4768,3.4956,3.5345,3.5165,3.4675,3.5064,3.4512,3.3558,0.0,0.0,0.0,0.0,0.0,0.0,1.2348,1.352,1.4498,1.5128,1.5675,1.5917,1.5719,1.3618,1.237,1.2733,1.1136,0.0,0.0,0.0,0.0,0.0,0.0,0.0,0.0,0.0,1.2662,1.2383,1.2383,1.2455,1.2585,1.2455,1.233,1.218,0.0,0.0,0.0,0.0,0.0,0.0,0.0,0.0,0.0,0.0,0.0,0.0,0.0,0.0,0.0,0.0,0.0,0.0,0.0,1.3033,1.3971,1.6752,1.9261,2.1715,2.4431,2.6198,2.7306,2.7341,2.5289,2.2785,2.0852,1.8394,1.6189,1.5119,1.4617,1.4512,1.4835,1.4628,1.4701,1.5647,1.5822,1.6893,1.9965,2.1261,2.2736,2.4885,2.6907,2.9042,3.1344,3.4479,3.6405,3.6405,3.6405,3.6405,3.6405,3.6405,3.6405,3.6405,3.5837,3.5511,3.5523,3.4429,3.3915,3.3902,3.3351,3.3124,3.3136,3.3646,3.4198,3.4668,3.468,3.4994,3.5445,3.4906,3.4994,3.5495,3.5495,3.5868,3.638,3.6392,3.5642,3.4655,0.0,0.0,0.0,0.0,0.0,0.0,0.0,1.2265,1.2825,1.444,1.4291,1.4389,1.532,1.3739,1.2664,1.2789,1.1228,0.0,0.0,0.0,0.0,0.0,0.0,0.0,0.0,0.0,1.3383,1.364,1.364,1.3772,1.4031,1.357,1.3326,1.3277,1.2651,1.2413,0.0,0.0,0.0,0.0,0.0,0.0,1.2228,0.0,0.0,0.0,0.0,0.0,0.0,0.0,0.0,0.0,0.0,0.0,0.0,1.4022,1.6563,1.9443,2.0979,2.2783,2.3985,2.2927,2.1452,1.9999,1.8946,1.7227,1.5768,1.5394,1.5006,1.4777,1.488,1.4617,1.4823,1.6062,1.6269,1.6972,1.8966,2.1362,2.3588,2.5433,2.9789,3.3045,3.413,3.5537,3.6405,3.6405,3.6405,3.6405,3.6405,3.6405,3.6405,3.6405,3.6188,3.5925,3.5508,3.5136,3.4643,3.3903,3.4123,3.3809,3.3162,3.4424,3.4868,3.4718,3.5516,3.5943,3.6094,3.5918,3.5943,3.6107,3.6107,3.5981,3.5755,3.5378,3.4788,3.411,0.0,0.0,0.0,0.0,0.0,0.0,0.0,1.1951,1.2331,1.3637,1.3317,1.3498,1.4863,1.3341,1.2409,1.283,1.1384,0.0,0.0,0.0,0.0,0.0,0.0,0.0,1.3271,1.3491,1.3865,1.4402,1.4402,1.4631,1.5108,1.4657,1.4316,1.4035,1.3451,1.309,0.0,0.0,0.0,0.0,0.0,0.0,1.2696,0.0,0.0,0.0,0.0,0.0,0.0,0.0,0.0,0.0,0.0,0.0,0.0,0.0,1.4992,1.7423,1.8434,1.9996,2.1153,2.0356,1.9479,1.8608,1.7777,1.6677,1.5797,1.571,1.5265,1.4982,1.5254,1.48,1.4836,1.6236,1.6341,1.69,1.8784,2.1051,2.3413,2.5851,3.0491,3.3696,3.4222,3.5574,3.6405,3.6405,3.6405,3.6405,3.6405,3.6405,3.6405,3.6405,3.6405,3.6204,3.5823,3.56,3.5152,3.4512,3.4449,3.406,3.342,3.4449,3.4806,3.4731,3.5667,3.6169,0.0,3.6132,3.6169,3.6392,3.6132,3.5843,3.5504,3.5582,3.5136,3.4494,0.0,0.0,0.0,0.0,0.0,0.0,0.0,1.2325,1.2726,1.2726,1.2726,1.3133,1.4182,1.257,1.1787,1.281,0.0,0.0,0.0,0.0,0.0,0.0,0.0,0.0,1.2988,1.353,1.4139,1.4809,1.4809,1.5184,1.5942,1.5708,1.5249,1.461,1.4367,1.3773,1.2963,0.0,0.0,0.0,0.0,0.0,0.0,0.0,0.0,0.0,0.0,0.0,0.0,0.0,0.0,0.0,0.0,0.0,0.0,0.0,0.0,0.0,0.0,1.7755,1.8801,1.9161,1.8842,1.8225,1.7238,1.6584,0.0,1.5991,1.544,1.5181,1.5854,1.5164,1.4937,1.6285,1.6195,1.683,1.934,2.0792,2.2866,2.6279,2.965,3.183,3.2147,3.4744,3.6405,3.6405,3.6367,3.6355,3.6405,3.6367,3.6342,3.6317,3.6342,3.6355,3.6355,3.5772,3.5483,3.537,3.4462,3.396,3.3847,3.3922,3.4211,3.4655,3.5207,3.578,3.6254,3.5823,3.597,3.6433,3.5915,3.5759,3.5826,3.6771,3.6445,3.5761,0.0,0.0,0.0,0.0,0.0,0.0,0.0,0.0,0.0,0.0,1.204,1.2138,1.2406,1.23,1.2126,0.0,0.0,0.0,0.0,0.0,0.0,0.0,0.0,0.0,1.3735,1.3868,1.4549,1.5775,1.5775,1.6337,1.7408,1.689,1.6327,1.5698,1.5034,1.4315,1.3594,1.3702,0.0,0.0,0.0,0.0,0.0,0.0,0.0,0.0,1.3611,1.3775,0.0,0.0,0.0,0.0,0.0,0.0,0.0,0.0,1.3509,1.3571,1.4185,0.0,1.6681,1.602,1.6056,1.6242,0.0,1.6146,1.5942,1.5562,1.5613,1.5722,1.5714,1.5492,1.5799,1.7312,1.7507,1.8222,2.0384,2.4051,2.698,2.8168,3.1638,3.3489,3.2313,3.4744,3.6405,3.6405,3.5974,3.5911,3.638,3.5968,3.5709,3.5687,3.5697,3.5683,3.5683,3.5579,3.509,3.4299,3.4831,3.45,3.3307,3.4148,3.4374,3.4123,3.4675,3.4989,3.5173,3.6399,3.694,3.7135,3.7863,3.8101,3.8036,3.734,3.6948,3.6675,0.0,0.0,0.0,0.0,0.0,0.0,0.0,0.0,0.0,0.0,0.0,1.2887,1.2818,1.3041,0.0,0.0,0.0,0.0,0.0,0.0,0.0,0.0,0.0,1.3936,1.3913,1.4172,1.5037,1.6469,1.6308,1.6871,1.8075,1.7622,1.6932,1.6059,1.5079,1.44,1.404,1.4124,1.4144,0.0,1.4056,0.0,0.0,0.0,0.0,0.0,1.3957,1.3988,0.0,1.4882,1.517,1.5197,0.0,0.0,0.0,0.0,1.3715,1.3808,1.3605,1.4495,1.5429,1.5148,1.5589,1.6133,1.6317,1.6304,1.6156,1.5902,1.5928,1.6018,1.6092,1.6206,1.6632,1.7677,1.8528,1.9839,2.2109,2.5277,2.7832,2.9114,3.1782,3.3379,3.3008,3.4819,3.5881,3.5628,3.5311,3.527,3.5592,3.5328,3.5127,3.513,3.4876,3.4864,3.5151,3.5115,3.4818,3.4274,3.4625,3.4324,3.3514,3.4339,3.4684,3.4688,3.5448,3.5939,3.6232,3.6936,3.7367,3.7626,3.7935,3.8076,3.8048,3.7886,3.7664,3.7447,0.0,0.0,0.0,0.0,0.0,0.0,0.0,0.0,0.0,0.0,0.0,0.0,0.0,0.0,0.0,0.0,0.0,0.0,0.0,0.0,0.0,0.0,1.4276,1.4613,1.4177,1.4539,1.5463,1.6947,1.6666,1.713,1.8285,1.8125,1.7326,1.6046,1.4924,1.4382,1.43,1.43,1.43,1.43,1.43,0.0,0.0,0.0,0.0,0.0,0.0,0.0,0.0,1.5246,1.5618,1.5653,1.5894,0.0,0.0,0.0,0.0,0.0,1.4068,1.4422,1.5068,1.5433,1.6226,1.6881,1.6777,1.6621,1.6488,1.6454,1.6252,1.6297,1.6888,1.7111,1.7439,1.8139,1.9726,2.177,2.4352,2.6052,2.7703,2.9481,3.1311,3.2738,3.3446,3.4665,3.5189,3.4749,3.4599,3.4615,3.468,3.4645,3.458,3.4566,3.4147,3.4073,3.4439,3.4551,3.46,3.4587,3.4287,3.4097,3.404,3.4638,3.5163,3.567,3.6566,3.7207,3.7621,3.7438,3.7618,3.8034,3.7723,3.7594,3.7714,3.8513,3.8485,3.8211,0.0,0.0,0.0,0.0,0.0,0.0,0.0,0.0,0.0,0.0,0.0,0.0,0.0,0.0,0.0,0.0,0.0,0.0,0.0,0.0,0.0,1.5197,1.5257,1.5488,1.5922,1.5288,1.5675,1.7139,1.7159,1.7528,1.822,1.8515,1.7753,1.6073,1.5358,1.4778,1.43,1.43,1.43,1.43,1.43,0.0,0.0,0.0,0.0,0.0,0.0,0.0,0.0,1.5108,1.5678,1.6145,1.5838,0.0,0.0,0.0,0.0,0.0,1.4929,1.5716,1.6131,1.5769,1.6491,1.7166,1.666,1.652,1.6454,1.6203,1.6392,1.6952,1.8094,1.7981,1.8283,2.0047,2.2144,2.4459,2.7188,2.8947,2.9895,2.972,3.2028,3.3136,3.1913,3.3621,3.4765,3.4716,3.428,3.4237,3.4688,3.4274,3.4021,3.4016,3.396,3.374,3.3368,3.3815,3.4022,3.4022,3.4887,3.5031,3.4601,3.5548,3.6015,3.6111,3.627,3.6391,3.6555,3.798,3.8589,3.8738,3.958,3.9868,3.9838,3.9438,3.9239,3.9266,0.0,0.0,0.0,0.0,0.0,0.0,0.0,0.0,0.0,0.0,0.0,0.0,0.0,0.0,0.0,0.0,0.0,0.0,0.0,0.0,1.622,1.6439,1.6411,1.6398,1.6449,1.6077,1.6753,1.8554,1.8217,1.8667,1.9804,1.8782,1.7674,1.6498,1.5402,1.4773,1.4509,1.4365,1.43,1.43,0.0,0.0,0.0,0.0,0.0,0.0,0.0,0.0,0.0,0.0,1.563,1.6074,1.5455,0.0,0.0,0.0,0.0,0.0,1.4292,1.5369,1.6278,1.5828,1.7215,1.8619,1.835,1.8286,1.8168,1.7748,1.7819,1.8141,1.8808,1.964,2.1145,2.3876,2.4931,2.604,2.7896,2.877,2.9452,3.0124,3.1588,3.2493,3.2319,3.3501,3.4134,3.3852,3.3624,3.3581,3.3809,3.3619,3.3467,3.3445,3.3688,3.3675,3.3431,3.4219,3.4548,3.434,3.5365,3.5737,3.5547,3.6579,3.706,3.7098,3.7686,3.7927,3.7994,3.8779,3.9098,3.9187,3.9675,3.9873,3.9807,3.9518,3.9689,4.0141,0.0,0.0,0.0,0.0,0.0,0.0,0.0,0.0,0.0,0.0,0.0,0.0,0.0,0.0,0.0,0.0,0.0,0.0,0.0,1.625,1.6479,1.6987,1.7172,1.7363,1.7527,1.7345,1.8189,2.0149,1.9662,2.005,2.1184,1.9056,1.7637,1.6821,1.5431,1.4776,1.4699,1.4511,1.4447,1.4479,0.0,0.0,0.0,0.0,0.0,0.0,0.0,0.0,0.0,0.0,0.0,0.0,0.0,0.0,0.0,1.4701,1.4287,1.4233,1.4295,1.5291,1.6324,1.6332,1.7819,1.938,1.9722,1.9809,1.9848,1.9946,1.9895,1.9918,2.0252,2.1728,2.3761,2.6487,2.6991,2.7441,2.8531,2.8739,2.9284,3.0613,3.1143,3.1773,3.2771,3.3273,3.3366,3.3124,3.3124,3.3061,3.288,3.3242,3.3361,3.3047,3.3693,3.4007,3.3834,3.4904,3.5258,3.486,3.6038,3.6565,3.6604,3.7701,3.8182,3.8234,3.9031,3.9388,3.9388,3.9388,3.9388,3.9388,3.9388,3.9382,3.939,3.9403,3.9837,4.0435,0.0,0.0,0.0,0.0,0.0,0.0,0.0,0.0,0.0,0.0,0.0,0.0,0.0,0.0,0.0,0.0,0.0,0.0,0.0,1.6398,1.64,1.646,1.7111,1.8374,2.0278,1.9523,1.9879,2.1461,2.1535,2.1476,2.125,1.941,1.7926,1.6755,1.5661,1.4999,1.4714,1.4813,1.4891,1.4953,1.509,0.0,0.0,0.0,0.0,0.0,0.0,0.0,0.0,0.0,0.0,0.0,0.0,0.0,1.6081,1.5975,1.5419,1.5117,1.6396,1.6533,1.6602,1.7875,1.803,1.8202,1.9505,1.9814,2.0358,2.2394,2.2499,2.2525,2.3467,2.4164,2.488,2.5696,2.7452,2.9109,3.0245,3.0841,3.1194,3.1333,3.14,3.1626,3.2204,3.2327,3.2543,3.3056,3.3124,3.2842,3.2303,3.3749,3.4044,3.287,3.437,3.4887,3.4262,3.5308,3.5656,3.5269,3.692,3.7663,3.7715,3.8782,3.9265,3.9301,3.9373,3.9388,3.9388,3.9388,3.9388,3.9388,3.9388,3.9392,3.9387,3.9405,3.9439,3.9606,0.0,0.0,0.0,0.0,0.0,0.0,0.0,0.0,0.0,0.0,0.0,0.0,0.0,0.0,0.0,0.0,0.0,0.0,0.0,1.6709,1.6865,1.719,1.7487,1.8399,2.0066,2.0076,2.0889,2.2666,2.272,2.2111,2.0904,1.9588,1.8502,1.761,1.6194,1.5752,1.6021,1.5231,1.5242,1.5744,1.5139,1.5013,0.0,0.0,0.0,0.0,0.0,0.0,0.0,0.0,1.5283,1.5679,1.5153,1.5748,1.6512,1.5771,1.5313,1.5171,1.5583,1.6659,1.7585,1.7187,1.8389,2.0035,2.1313,2.2147,2.3011,2.4227,2.4439,2.4456,2.4526,2.554,2.6444,2.6724,2.8577,3.0112,3.0526,3.1062,3.1389,3.1385,3.1689,3.1972,3.2173,3.3149,3.3839,3.4066,3.434,3.4364,3.4073,3.432,3.4562,3.4764,3.4971,3.4935,3.4673,3.5747,3.6192,3.6075,3.7504,3.7942,3.7588,3.8841,3.9185,3.8796,3.923,3.9388,3.9394,3.896,3.9035,3.9388,3.9388,3.9412,3.9414,3.9418,3.9393,3.9446,0.0,0.0,0.0,0.0,0.0,0.0,0.0,0.0,0.0,0.0,0.0,0.0,0.0,0.0,0.0,0.0,0.0,0.0,1.691,1.6914,1.7036,1.7336,1.7588,1.8252,1.9435,2.0206,2.134,2.2863,2.2863,2.213,2.0709,1.9431,1.8606,1.8115,1.6668,1.6473,1.7151,1.6052,1.5977,1.6514,1.5607,1.5344,0.0,0.0,0.0,0.0,0.0,0.0,0.0,0.0,1.5383,1.5653,1.5135,1.5693,1.6413,1.5698,1.57,1.5888,1.5763,1.707,1.8351,1.7852,1.9534,2.183,2.3812,2.4335,2.4777,2.6153,2.6274,2.6127,2.6088,2.6776,2.7362,2.7582,2.9297,3.0557,3.0382,3.1063,3.1532,3.137,3.1658,3.2076,3.2537,3.3564,3.4266,3.4555,3.5014,3.5058,3.4461,3.4663,3.4952,3.524,3.5358,3.5316,3.5078,3.5815,3.6178,3.6193,3.727,3.7659,3.7434,3.8362,3.8527,3.8108,3.8571,3.8901,3.905,3.8586,3.8796,3.9388,3.9388,3.9388,3.9388,3.9388,3.9384,3.9408,0.0,0.0,0.0,0.0,0.0,0.0,0.0,0.0,0.0,0.0,0.0,0.0,0.0,0.0,0.0,0.0,0.0,0.0,1.691,1.6898,1.6812,1.6623,1.7304,1.7999,1.8677,2.0052,2.1143,2.1884,2.1884,2.1505,2.0747,1.8951,1.8114,1.8053,1.6997,1.7041,1.7879,1.7334,1.7147,1.7159,1.6621,1.6248,1.6011,0.0,0.0,0.0,0.0,0.0,0.0,0.0,1.5505,1.5177,1.6109,1.6028,1.567,1.5999,1.6756,1.7476,1.749,1.796,1.881,2.0388,2.1516,2.3206,2.6877,2.6012,2.5282,2.8304,2.8056,2.7593,2.853,2.7941,2.7505,2.8009,2.9515,3.0419,2.9906,3.1074,3.1812,3.1282,3.1235,3.1796,3.3249,3.3178,3.3369,3.4245,3.4933,3.4592,3.2919,3.4758,3.5209,3.3684,3.5499,3.6163,3.5519,3.5504,3.5504,3.5519,3.6163,3.6791,3.7389,3.7404,3.7404,3.7404,3.7404,3.7778,3.8377,3.8377,3.8781,3.9409,3.9409,3.9409,3.9388,3.9388,3.9388,3.9388,0.0,0.0,0.0,0.0,0.0,0.0,0.0,0.0,0.0,0.0,0.0,0.0,0.0,0.0,0.0,0.0,0.0,0.0,1.7344,1.7187,1.7014,1.6812,1.702,1.7244,1.7436,1.8351,1.9572,2.1126,2.1126,2.051,1.9309,1.8762,1.8528,1.8498,1.8189,1.8205,1.8406,1.7498,1.7483,1.802,1.6969,1.6666,1.6827,0.0,0.0,0.0,0.0,0.0,0.0,0.0,0.0,0.0,1.5462,1.6211,1.6965,1.6028,1.6257,1.6762,1.6573,1.8297,2.0108,1.9866,2.3074,2.6537,2.7484,2.7506,2.7823,2.9457,2.9508,2.9164,2.883,2.9177,2.9304,2.8697,2.9949,3.0953,3.0822,3.1151,3.1599,3.215,3.2508,3.2915,3.3385,3.4375,3.5142,3.5418,3.5988,3.6269,3.604,3.5765,3.5418,3.4942,3.549,3.5699,3.5504,3.5504,3.5504,3.5504,3.5699,3.5893,3.6103,3.7,3.7165,3.6791,3.7225,3.7524,3.7704,3.7704,3.7997,3.8557,3.9149,3.9424,3.9388,3.9388,3.9388,3.9388,0.0,0.0,0.0,0.0,0.0,0.0,0.0,0.0,0.0,0.0,1.78,1.78,0.0,0.0,0.0,0.0,0.0,0.0,0.0,1.7308,1.7154,1.7027,1.6935,1.7068,1.7448,1.7797,1.8597,1.9806,1.9986,1.948,1.8315,1.8956,1.9052,1.8709,1.9293,1.9388,1.9089,1.8452,1.8329,1.8513,1.7731,1.7501,1.7546,0.0,0.0,0.0,0.0,0.0,0.0,0.0,0.0,0.0,1.5307,1.5854,1.6675,1.6574,1.6718,1.7199,1.8587,2.007,2.1441,2.2422,2.537,2.8367,2.9711,2.9816,3.0035,3.1402,3.0915,3.0333,3.0775,3.0915,3.0806,3.0383,3.1114,3.1742,3.1742,3.2069,3.2522,3.3101,3.3424,3.3804,3.422,3.5025,3.561,3.5744,3.6395,3.6742,3.6664,3.5914,3.5504,3.5504,3.5504,3.5504,3.5504,3.5504,3.5504,3.5504,3.5504,3.5504,3.5534,3.6312,3.6447,3.6133,3.6761,3.7045,3.706,3.7142,3.7419,3.7891,3.8617,3.8917,3.905,3.932,3.9388,3.9388,0.0,0.0,0.0,0.0,0.0,0.0,0.0,0.0,0.0,0.0,1.7822,1.7811,0.0,0.0,0.0,0.0,0.0,0.0,0.0,1.7349,1.7228,1.7228,1.7052,1.736,1.8211,1.8045,1.8032,1.8202,1.8693,1.85,1.7759,1.9345,1.9634,1.8852,2.0273,2.0447,1.9688,1.9688,1.9293,1.8599,1.8584,1.8404,1.8069,1.7437,0.0,0.0,0.0,0.0,0.0,0.0,0.0,0.0,1.5519,1.5314,1.5492,1.7254,1.7722,1.8431,2.1937,2.243,2.2826,2.6534,2.7986,2.9396,3.2871,3.254,3.1911,3.3565,3.2221,3.1387,3.3605,3.2893,3.2166,3.2652,3.2749,3.2749,3.2749,3.3449,3.4027,3.4129,3.4129,3.4509,3.5392,3.5219,3.5171,3.5484,3.6229,3.6352,3.5549,3.5504,3.5504,3.5504,3.5504,3.5504,3.5504,3.5504,3.5504,3.5504,3.5504,3.5504,3.5504,3.5504,3.5504,3.5534,3.6133,3.6402,3.6417,3.6607,3.6939,3.7375,3.7799,3.8127,3.8467,3.9044,3.9313,3.9388,0.0,0.0,0.0,0.0,0.0,0.0,0.0,0.0,0.0,0.0,0.0,0.0,0.0,0.0,0.0,0.0,0.0,0.0,0.0,1.7549,1.7444,1.7444,1.7392,1.7474,1.7676,1.7628,1.7555,1.7433,1.7963,1.8132,1.7962,1.9256,1.9767,1.9625,2.0983,2.0604,1.8945,1.8945,1.8536,1.789,1.7745,1.7673,1.7628,1.7313,1.6782,0.0,0.0,0.0,0.0,0.0,0.0,0.0,1.5725,1.6005,1.6277,1.6045,1.7366,1.9054,1.9684,2.1744,2.4167,2.5967,2.902,3.2184,3.453,3.4205,3.3391,3.3322,3.3243,3.3377,3.3896,3.3742,3.3548,3.3676,3.3705,3.3705,3.3705,3.3876,3.4279,3.51,3.518,3.5246,3.5472,3.5446,3.5428,3.5472,3.5654,3.5716,3.5519,3.5504,3.5504,3.5504,3.5504,3.5504,3.5504,3.5504,3.5504,3.5504,3.5504,3.5504,3.5504,3.5504,3.5504,3.5519,3.5654,3.5714,3.5729,3.5771,3.6144,3.6686,3.6806,3.7479,3.8392,3.8381,3.8799,3.9388,0.0,0.0,0.0,0.0,0.0,0.0,0.0,0.0,0.0,0.0,0.0,0.0,0.0,0.0,0.0,0.0,0.0,0.0,0.0,0.0,1.7497,1.7497,1.7497,1.7549,1.763,1.7561,1.7439,1.7332,1.7617,1.7841,1.8046,1.9666,2.0369,2.0336,2.1711,2.1157,1.923,1.923,1.863,1.7716,1.793,1.7997,1.7922,1.7508,1.7051,1.6613,1.6232,0.0,0.0,0.0,0.0,0.0,0.0,0.0,1.7143,1.7761,1.815,1.8933,2.1429,2.2804,2.4287,2.7409,3.0377,3.2959,3.462,3.4863,3.4637,3.4314,3.4109,3.4143,3.461,3.4725,3.4725,3.4725,3.4725,3.4725,3.4725,3.4725,3.4905,3.5439,3.5504,3.5504,3.5504,3.5504,3.5504,3.5504,3.5504,3.5504,3.5504,3.5504,3.5504,3.5504,3.5504,3.5504,3.5504,3.5504,3.5504,3.5504,3.5504,3.5504,3.5504,3.5504,3.5504,3.5504,3.5504,3.5504,3.5504,3.5504,3.5714,3.6043,3.6357,3.6896,3.7539,3.7963,3.8407,3.8827,0.0,0.0,0.0,0.0,0.0,0.0,0.0,0.0,0.0,0.0,0.0,0.0,0.0,0.0,0.0,0.0,0.0,0.0,0.0,0.0,0.0,1.7561,1.7561,1.7618,1.78,1.7647,1.7561,1.7561,1.7526,1.7831,1.8524,2.0154,2.1007,2.1164,2.2237,2.1587,1.9671,1.9625,1.8788,1.7573,1.8109,1.8273,1.8109,1.7559,1.7301,1.7142,1.6467,1.6282,1.6322,1.6214,0.0,0.0,0.0,0.0,1.7501,1.935,1.8798,1.864,2.3319,2.3995,2.4498,2.9188,3.1351,3.2661,3.389,3.4668,3.519,3.531,3.4765,3.4509,3.5359,3.5504,3.5504,3.5504,3.5504,3.5459,3.534,3.5429,3.5459,3.534,3.5429,3.5504,3.5504,3.5504,3.5504,3.5504,3.5504,3.5504,3.5504,3.5504,3.5504,3.5504,3.5385,3.5325,3.5325,3.522,3.522,3.5325,3.5444,3.5504,3.5504,3.5504,3.5504,3.5504,3.5504,3.5504,3.5504,3.5504,3.5504,3.5564,3.6103,3.6435,3.666,3.7391,3.7937,3.8344,0.0,0.0,0.0,0.0,0.0,0.0,0.0,0.0,0.0,0.0,1.8355,1.8243,0.0,0.0,0.0,0.0,0.0,0.0,0.0,0.0,0.0,1.7749,1.7749,1.7777,1.78,1.7777,1.7749,1.7749,1.7584,1.851,2.0423,2.0286,2.1019,2.2426,2.2173,2.0973,1.9172,1.8955,1.8031,1.6752,1.6833,1.688,1.6838,1.6757,1.6638,1.6521,1.6414,1.6231,1.614,1.6678,1.6473,0.0,0.0,0.0,1.6093,1.6512,1.752,1.8807,2.0131,2.3216,2.6665,2.9118,3.0676,3.1809,3.2582,3.3276,3.3918,3.4518,3.4989,3.5359,3.5472,3.5504,3.5504,3.5504,3.5504,3.5295,3.4728,3.513,3.528,3.4713,3.5145,3.5504,3.5504,3.5504,3.5504,3.5504,3.5504,3.5504,3.5504,3.5504,3.5504,3.5504,3.4921,3.4638,3.4638,3.4053,3.4053,3.4653,3.522,3.5504,3.5504,3.5504,3.5504,3.5504,3.5504,3.5504,3.5504,3.5504,3.5504,3.5519,3.5609,3.6109,3.6678,3.6079,3.7267,3.8907,0.0,0.0,0.0,0.0,0.0,0.0,0.0,0.0,0.0,0.0,0.0,1.8471,0.0,0.0,0.0,0.0,0.0,0.0,0.0,0.0,0.0,1.78,1.78,1.78,1.78,1.78,1.7738,1.763,1.767,1.8964,2.1461,2.0803,2.1702,2.3834,2.3035,2.2017,2.0795,1.9319,1.8125,1.7178,1.6767,1.7191,1.7962,1.6961,1.7399,1.8411,1.7473,1.7279,1.7548,1.7782,1.7867,1.7848,1.7719,0.0,0.0,0.0,1.7502,1.8376,2.0523,2.3241,2.6062,2.8445,2.9738,3.07,3.17,3.2451,3.3125,3.3784,3.4158,3.4607,3.537,3.519,3.5055,3.5444,3.5175,3.4848,3.4548,3.4427,3.4262,3.3963,3.4517,3.4936,3.4936,3.528,3.5504,3.5504,3.5504,3.5494,3.549,3.4782,3.4511,3.4764,3.422,3.3918,3.3918,3.3649,3.3649,3.3918,3.4233,3.4577,3.4936,3.4936,3.513,3.5504,3.5504,3.5504,3.5504,3.5504,3.5504,3.5504,3.5504,3.5746,3.6046,3.5626,3.6246,3.7041,0.0,0.0,0.0,0.0,0.0,0.0,0.0,0.0,0.0,0.0,0.0,0.0,0.0,0.0,0.0,0.0,0.0,0.0,0.0,0.0,0.0,1.78,1.78,1.78,1.78,1.78,1.7726,1.7584,1.7912,1.9445,2.2077,2.1649,2.2831,2.5241,2.3975,2.291,2.1891,1.9966,1.8795,1.8203,1.7786,1.8469,1.9638,1.8785,1.9574,2.0916,1.9222,1.8919,1.9258,1.8887,1.8953,1.9116,1.861,1.8473,0.0,0.0,0.0,1.7761,2.0557,2.2441,2.426,2.692,2.8218,2.916,3.0464,3.1271,3.1958,3.2602,3.2617,3.2901,3.4247,3.4352,3.4429,3.4906,3.4562,3.4204,3.4039,3.3709,3.344,3.326,3.3829,3.4264,3.4264,3.4696,3.5135,3.5473,3.5488,3.5478,3.5488,3.3913,3.325,3.3817,3.3471,3.3245,3.3245,3.3245,3.3245,3.3245,3.341,3.3754,3.4264,3.4264,3.4607,3.525,3.5429,3.5504,3.5504,3.5504,3.5504,3.5504,3.5504,3.5504,3.5502,3.5499,3.5505,3.5499,0.0,0.0,0.0,0.0,0.0,0.0,0.0,0.0,0.0,0.0,0.0,0.0,1.8246,1.8098,1.8005,1.7994,1.7994,0.0,0.0,0.0,0.0,1.7811,1.78,0.0,1.78,1.78,1.7789,1.7789,1.8504,2.0027,2.2299,2.2955,2.446,2.6522,2.463,2.2834,2.1215,2.065,2.0129,1.9735,2.0197,2.0714,2.1371,2.2934,2.3596,2.3489,2.1744,2.1048,2.0829,1.9791,1.8963,1.8438,1.8976,1.8207,1.7095,0.0,0.0,0.0,1.8487,1.9866,2.153,2.4156,2.5794,2.7096,2.8442,2.9265,2.9909,3.0537,3.0193,3.0178,3.1466,3.2736,3.3559,3.3589,3.3559,3.332,3.2706,3.3125,3.326,3.2647,3.314,3.3544,3.3544,3.3574,3.412,3.5385,3.5508,3.5493,3.5508,3.3016,3.1996,3.2836,3.2676,3.2557,3.2557,3.2557,3.2557,3.2572,3.32,3.3514,3.3544,3.3544,3.3903,3.4593,3.522,3.5504,3.5504,3.5504,3.5504,3.5504,3.5504,3.5504,3.5504,3.5487,3.5519,3.5504,0.0,0.0,0.0,0.0,0.0,0.0,0.0,0.0,0.0,0.0,0.0,0.0,0.0,1.84,1.8277,1.814,1.8055,0.0,0.0,0.0,0.0,1.7939,1.7845,1.78,1.78,1.78,1.78,1.78,1.8065,1.9367,2.1597,2.1867,2.3066,2.4994,2.4297,2.3934,2.3671,2.1269,2.0529,2.0967,2.1011,2.1912,2.3146,2.2991,2.4298,2.5906,2.3508,2.2623,2.2524,2.2124,2.1079,1.978,1.9097,1.8454,1.7764,1.6771,1.6359,1.6638,1.8356,1.9431,2.0587,2.2817,2.4687,2.6198,2.7111,2.8158,2.9131,2.9789,2.9756,2.9756,3.0193,3.0986,3.1854,3.2721,3.2138,3.1644,3.1824,3.136,3.1046,3.121,3.1824,3.2378,3.2826,3.3245,3.3711,3.4166,3.4227,3.3834,3.2976,3.2019,3.1633,3.1975,3.19,3.1854,3.1854,3.1854,3.1854,3.1854,3.2093,3.2214,3.2243,3.3094,3.3814,3.4334,3.5143,3.5504,3.5504,3.5504,3.5504,3.5504,3.5504,3.5504,3.5504,3.5504,3.5504,3.5504,0.0,0.0,0.0,0.0,0.0,0.0,0.0,0.0,0.0,1.9049,0.0,0.0,0.0,0.0,1.8381,1.825,1.8123,1.8076,1.8076,1.8016,1.7983,1.7939,1.7845,1.78,1.78,1.78,1.78,1.78,1.8053,1.908,2.0805,2.1329,2.2391,2.3872,2.3872,2.4345,2.4978,2.2584,2.1996,2.2701,2.2996,2.3783,2.4776,2.4809,2.6012,2.7441,2.5355,2.4612,2.4566,2.4345,2.351,2.2259,2.0681,1.9359,1.815,1.6894,1.6278,1.6271,1.7576,1.846,1.951,2.1535,2.3176,2.4702,2.6243,2.7111,2.7844,2.8753,2.8933,2.8933,2.8933,2.9277,2.9968,3.1315,3.0776,3.0357,3.0806,3.0133,2.9756,3.0148,3.0597,3.1046,3.1495,3.1928,3.2377,3.2781,3.2841,3.2452,3.1531,3.1501,3.1515,3.1511,3.1511,3.1511,3.1511,3.1511,3.1511,3.1511,3.1511,3.1513,3.1531,3.2422,3.3245,3.3991,3.4575,3.5085,3.5504,3.5504,3.5504,3.5504,3.5504,3.5504,3.5504,3.5504,3.5504,3.5504,0.0,0.0,0.0,0.0,0.0,0.0,0.0,0.0,1.9058,1.8913,0.0,0.0,0.0,0.0,0.0,1.8335,1.8274,1.8228,1.8211,1.8087,1.795,1.7822,0.0,0.0,1.78,1.78,1.78,1.78,1.8521,1.9266,2.0035,2.1536,2.2649,2.3393,2.3393,2.3908,2.474,2.4523,2.456,2.4888,2.6185,2.638,2.6202,2.8663,2.9009,2.8086,2.7352,2.7046,2.6903,2.6299,2.5999,2.5556,2.3637,2.0813,1.8091,1.7434,1.6689,1.6071,0.0,0.0,0.0,2.0168,2.1186,2.2553,2.5743,2.6019,2.5974,2.727,2.757,2.76,2.76,2.76,2.8019,2.9337,2.9547,2.9562,2.9577,2.9562,2.9562,2.9577,2.9577,2.9592,2.9606,2.9606,3.0135,3.1367,3.1485,3.1509,3.1496,3.1511,3.1511,3.1511,3.1511,3.1511,3.1511,3.1511,3.1511,3.1511,3.1511,3.1511,3.1511,3.1482,3.2213,3.3439,3.3514,3.4292,3.5504,3.5504,3.5504,3.5504,3.5504,3.5504,3.5504,3.5504,3.5504,3.5504,0.0,0.0,0.0,0.0,0.0,1.9227,1.9154,1.9049,1.8913,0.0,0.0,0.0,1.8518,1.8892,1.9171,1.9171,1.9139,1.8892,1.8301,1.8187,1.8119,1.8087,1.79,1.78,1.78,1.78,1.78,1.78,1.8003,1.8746,2.0002,2.0441,2.162,2.3393,2.3393,2.3538,2.3752,2.2951,2.3262,2.4415,2.5899,2.6684,2.7179,2.8929,2.9911,3.0211,2.9234,2.8056,2.7085,2.7684,2.6032,2.3494,2.1934,2.0115,1.8529,1.834,1.8062,1.7803,1.7803,0.0,0.0,0.0,0.0,0.0,2.306,2.4484,2.5766,2.6253,2.7024,2.76,2.76,2.76,2.772,2.8094,2.8154,2.8319,2.8801,2.8468,2.8334,2.8816,2.8876,2.9056,2.9562,2.9606,2.9876,3.052,3.1134,3.1509,3.1496,3.1511,3.1511,3.1511,3.1511,3.1511,3.1511,3.1511,3.1511,3.1511,3.1511,3.1511,3.1511,3.15,3.1708,3.2145,3.4115,3.5157,3.5504,3.5504,3.5504,3.5504,3.5504,3.5504,3.5504,3.5504,3.5504,3.5504,0.0,0.0,0.0,0.0,1.9456,1.9625,1.9598,1.9696,1.979,0.0,0.0,0.0,1.9524,2.011,2.0416,2.0066,1.9708,1.9293,1.8822,1.8429,1.8179,1.8119,1.7972,1.7856,1.78,1.78,1.78,1.78,1.78,1.8408,1.9541,1.9849,2.0893,2.251,2.2801,2.2936,2.2905,2.232,2.2748,2.4005,2.6135,2.7157,2.7587,2.9379,3.0393,3.0761,3.0232,2.941,2.8671,2.9432,2.7403,2.4438,2.3447,2.1794,2.0067,1.9462,1.9211,1.9027,1.8623,1.8889,1.9347,1.949,0.0,0.0,2.292,2.4075,2.5205,2.6374,2.7135,2.76,2.76,2.76,2.76,2.76,2.76,2.7735,2.8113,2.7854,2.775,2.8154,2.8173,2.8349,2.8738,2.8768,2.8853,2.9097,3.0098,3.0945,3.1466,3.1511,3.1511,3.1511,3.1511,3.1511,3.1511,3.1511,3.1511,3.1511,3.1511,3.1511,3.1511,3.1485,3.1501,3.1629,3.3754,3.4978,3.5486,3.5492,3.5504,3.5504,3.5504,3.5504,3.5504,3.5504,3.5504,3.5504,0.0,0.0,1.9295,1.9257,1.974,2.02,2.0381,2.0741,2.1053,0.0,2.1173,2.1156,2.1299,2.1797,2.1832,2.1112,2.0269,1.9697,1.9502,1.8758,1.8226,1.8022,1.7983,1.7928,1.78,1.7884,1.7918,1.7918,1.8003,1.8437,1.9176,1.9828,2.0555,2.136,2.2006,2.2245,2.2178,2.2347,2.2801,2.363,2.6421,2.7597,2.7877,2.9969,3.0643,3.0543,3.0788,3.0758,3.0612,3.0793,2.9223,2.7069,2.6526,2.4675,2.2426,2.0955,2.0538,2.0318,1.9311,1.9389,1.9866,2.0342,2.0528,0.0,2.3874,2.4161,2.447,2.6606,2.712,2.7225,2.7225,2.7225,2.7225,2.7225,2.7335,2.746,2.757,2.76,2.76,2.76,2.76,2.76,2.76,2.76,2.7633,2.7717,2.9009,3.0295,3.1436,3.1511,3.1511,3.1511,3.1511,3.1511,3.1511,3.1511,3.1511,3.1511,3.1511,3.1511,3.1511,3.1511,3.1499,3.1575,3.2765,3.4118,3.5485,3.5505,3.5494,3.5504,3.5504,3.5504,3.5489,3.5494,3.5512,3.5497,0.0,1.9297,1.951,2.0112,2.026,2.0454,2.103,2.1057,2.0969,2.0915,2.1425,2.2488,2.4313,2.3541,2.2809,2.2651,2.1949,2.0939,1.9582,1.9236,1.8753,1.8039,1.7906,1.7822,1.78,1.8386,1.8691,1.8691,1.9287,1.998,2.075,2.0903,2.1363,2.2076,2.2229,2.1972,2.1495,2.2682,2.3274,2.3545,2.5321,2.7278,2.9296,3.0613,3.1441,3.1916,3.1988,3.1042,2.9712,2.8969,2.8511,2.8025,2.6478,2.5678,2.4982,2.3506,2.3489,2.37,2.2663,2.2431,2.2379,2.1745,2.2062,0.0,2.1815,2.2754,2.3693,2.3535,2.4213,2.4872,2.4872,2.4872,2.4872,2.4872,2.5629,2.654,2.7475,2.76,2.76,2.76,2.76,2.76,2.76,2.76,2.7829,2.8364,3.0087,3.1242,3.1481,3.1511,3.1511,3.1511,3.1511,3.1511,3.1511,3.1511,3.1511,3.1511,3.1511,3.1511,3.1511,3.1511,3.1499,3.1501,3.1797,3.3246,3.5492,3.5492,3.5505,3.5504,3.5504,3.5504,3.5477,3.5518,3.5507,3.5507,1.9219,1.9204,1.9411,2.0083,2.0526,2.1011,2.1644,2.2313,2.271,2.2652,2.3603,2.4576,2.5331,2.5072,2.4686,2.4283,2.3207,2.22,2.1354,2.0162,1.9447,1.9308,1.8824,1.8705,1.9034,1.9307,1.9439,1.9439,1.9828,2.0403,2.119,2.119,2.1986,2.3359,2.2632,2.2496,2.2849,2.2852,2.327,2.4143,2.6403,2.8547,3.0569,3.2211,3.3307,3.39,3.3533,3.2572,3.1426,3.0894,2.9922,2.8777,2.8196,2.7315,2.6237,2.4943,2.5077,2.534,2.3928,2.3549,2.3435,2.2976,2.2879,0.0,0.0,2.3064,2.3602,2.4146,2.4413,2.4656,2.5025,2.5087,2.5087,2.5087,2.5969,2.665,2.665,2.72,2.76,2.76,2.76,2.76,2.76,2.76,2.7727,2.8063,3.0202,3.1513,3.1509,3.1511,3.1506,3.1492,3.1505,3.1496,3.15,3.1496,3.1505,3.1505,3.1506,3.1511,3.1511,3.1511,3.1498,3.15,3.1498,3.2254,3.3526,3.35,3.5186,3.7634,3.6091,3.5493,3.5508,3.5504,3.6465,3.7805,1.9132,1.9082,1.9252,1.9861,2.0678,2.1465,2.2096,2.3354,2.4329,2.463,2.5835,2.6542,2.6186,2.6774,2.6925,2.6272,2.493,2.3917,2.3397,2.1655,2.0767,2.1063,2.0096,1.9958,2.0842,2.0466,2.0272,2.0272,2.0399,2.0775,2.141,2.141,2.2358,2.4051,2.3122,2.3308,2.422,2.3325,2.3892,2.5582,2.8165,2.9837,3.1002,3.3085,3.4322,3.4903,3.4457,3.3909,3.3389,3.3237,3.1683,2.9822,3.0042,2.9147,2.7758,2.6415,2.6636,2.6934,2.5174,2.4709,2.461,2.4182,2.372,2.349,0.0,0.0,0.0,2.4859,2.4656,2.448,2.524,2.524,2.5125,2.5125,2.6094,2.6392,2.5183,2.6197,2.7085,2.7124,2.741,2.7565,2.7455,2.7335,2.7348,2.7567,2.98,3.1243,3.1491,3.1507,3.1511,3.1488,3.2013,3.204,3.1502,3.2038,3.201,3.1497,3.1511,3.1511,3.1511,3.1511,3.1511,3.1496,3.1511,3.1812,3.2281,3.23,3.5025,3.9029,3.7137,3.6374,3.6377,3.6381,3.7975,4.0091,1.9089,1.8989,1.9209,2.011,2.0689,2.1299,2.2074,2.2794,2.3741,2.5112,2.6251,2.7433,2.8717,2.9096,2.922,2.913,2.8365,2.6874,2.45,2.4098,2.3607,2.284,2.1231,2.1155,2.2834,2.1788,2.125,2.125,2.1786,2.2093,2.2192,2.2192,2.2296,2.2598,2.3731,2.3983,2.3596,2.4746,2.6488,2.8588,2.9567,2.9679,2.9419,3.0965,3.2031,3.2757,3.3326,3.3474,3.3305,3.2666,3.2219,3.1739,3.0495,3.083,3.13,2.9191,2.9565,3.0249,2.8452,2.7977,2.7492,2.5528,2.5461,2.5246,2.2754,0.0,2.2827,2.2148,0.0,2.2133,2.2916,0.0,0.0,2.2003,2.354,2.4232,2.2717,2.4071,2.5274,2.5455,2.6738,2.7435,2.7019,2.6438,2.651,2.7509,2.8975,3.0314,3.144,3.1503,3.1496,3.15,3.3861,3.3974,3.1528,3.3931,3.3896,3.1488,3.1498,3.1503,3.1503,3.1503,3.1503,3.1503,3.1498,3.2871,3.5137,3.5123,3.5521,3.6337,3.869,3.9573,3.9572,3.9566,3.9797,4.0082,1.8973,1.8878,1.9039,1.9814,2.0174,2.0752,2.1905,2.3415,2.4826,2.5949,2.6852,2.7823,2.8953,2.9148,2.9425,3.0016,2.9382,2.8286,2.669,2.576,2.5009,2.4452,2.2795,2.2429,2.3585,2.2586,2.1996,2.1915,2.2186,2.2296,2.2296,2.2296,2.2767,2.3613,2.4661,2.5439,2.6015,2.7114,2.7862,2.8403,2.9612,2.9661,2.9349,3.2536,3.3948,3.4253,3.4571,3.4677,3.4619,3.432,3.3271,3.2139,3.2536,3.1766,3.0673,3.0357,3.0412,3.0289,2.9115,2.9095,2.8992,2.7159,2.6941,2.6622,2.4521,2.3614,2.3231,2.324,0.0,0.0,0.0,0.0,0.0,0.0,2.3984,2.4122,2.2801,2.3945,2.4926,2.5019,2.5236,2.5827,2.6947,2.7273,2.7091,2.6308,2.7619,2.9352,3.1451,3.1515,3.1493,3.1495,3.4178,3.5054,3.388,3.5013,3.5021,3.3876,3.3876,3.3877,3.3877,3.3877,3.3877,3.3886,3.3865,3.4529,3.5597,3.5588,3.5611,3.5727,3.6985,3.8557,4.0103,4.0091,4.0109,4.0101,1.9102,1.8886,1.8816,1.9339,1.9823,2.0718,2.2382,2.4045,2.5454,2.6458,2.7302,2.8279,2.9512,2.9951,3.0632,3.178,3.1275,3.0406,2.9362,2.7762,2.6884,2.6997,2.4796,2.4091,2.515,2.3667,2.2733,2.2405,2.2338,2.2296,2.2296,2.2296,2.2987,2.4254,2.5389,2.6607,2.7874,2.8873,2.9313,2.9417,3.0334,3.0751,3.1106,3.3938,3.5245,3.56,3.56,3.56,3.5566,3.5363,3.4105,3.2798,3.3849,3.2706,3.1069,3.1621,3.1579,3.1106,3.0161,3.0313,3.0243,2.828,2.7807,2.7367,2.5693,2.4628,2.4086,2.4423,2.3799,0.0,0.0,0.0,2.3814,2.4135,0.0,2.4149,2.2709,2.3472,2.4204,2.4249,2.4074,2.4636,2.6395,2.7233,2.7088,2.569,2.665,2.8317,3.0696,3.1964,3.2269,3.1534,3.4161,3.5604,3.56,3.5605,3.5616,3.5592,3.5596,3.5589,3.5589,3.5589,3.5589,3.5597,3.5607,3.5616,3.5606,3.5605,3.5603,3.5692,3.6527,3.8179,4.0082,4.0095,4.0096,4.0096,1.971,1.9131,1.8544,1.8714,1.9863,2.1545,2.3882,2.4291,2.4888,2.6388,2.7476,2.8948,3.1247,3.2616,3.3967,3.5499,3.5126,3.4082,3.2375,3.0523,2.994,3.0974,2.7348,2.6264,2.8309,2.5411,2.3467,2.2685,2.2419,2.2296,2.2296,2.2296,2.2716,2.3528,2.5693,2.7097,2.7908,2.9413,3.1275,3.316,3.2491,3.3502,3.5245,3.3964,3.4349,3.56,3.56,3.56,3.5481,3.4776,3.4472,3.4303,3.3643,3.3863,3.4218,3.3541,3.3812,3.4032,3.2598,3.2209,3.1532,2.8534,2.7807,2.7232,2.5032,2.505,2.5338,2.4643,2.5033,2.5508,2.5558,2.4949,2.4237,2.3545,2.4036,0.0,0.0,2.191,2.2467,2.2654,2.3622,2.4479,2.4934,2.5349,2.5779,2.6226,2.6419,2.7223,2.8808,3.3072,3.4231,3.1569,3.4173,3.5582,3.56,3.5616,3.5594,3.5594,3.5611,3.5588,3.5588,3.5588,3.5588,3.5588,3.5594,3.5594,3.5594,3.56,3.5588,3.59,3.8819,3.999,4.0082,4.0095,4.0096,4.0096,1.9815,1.9914,1.9886,1.9434,1.9756,2.0848,2.3154,2.4822,2.6627,2.8891,2.9953,3.1645,3.472,3.5421,3.5944,3.6599,3.6492,3.5702,3.4036,3.2712,3.2141,3.2513,2.9449,2.8341,2.9665,2.683,2.4939,2.4099,2.3374,2.2784,2.2296,2.2296,2.2431,2.2801,2.549,2.7402,2.8755,3.1241,3.273,3.3372,3.313,3.3778,3.4871,3.4861,3.516,3.56,3.56,3.56,3.5566,3.5295,3.4912,3.4539,3.4771,3.437,3.3829,3.4066,3.3964,3.366,3.3152,3.3372,3.3173,3.0666,3.0057,2.9465,2.7199,2.6505,2.6116,2.5372,2.5439,2.5592,2.5592,2.5,2.4423,2.4169,2.3932,2.3325,0.0,2.2127,2.2324,2.24,2.3243,2.4043,2.458,2.62,2.7297,2.7485,2.8297,2.9312,3.0458,3.2824,3.4166,3.4197,3.5135,3.5606,3.56,3.56,3.56,3.56,3.56,3.56,3.56,3.56,3.56,3.56,3.56,3.5599,3.5587,3.5587,3.5586,3.5913,3.8916,4.0107,4.0103,4.0104,4.0096,4.0096,2.0943,2.0848,2.0638,2.0181,2.0539,2.1697,2.3984,2.609,2.8259,3.0621,3.1849,3.3713,3.685,3.7291,3.7642,3.8322,3.7947,3.707,3.566,3.4416,3.3728,3.3743,3.1607,3.0757,3.1452,2.8853,2.6933,2.5836,2.4452,2.3545,2.3071,2.2818,2.2955,2.3564,2.5727,2.7841,2.9924,3.2087,3.3457,3.4163,3.4163,3.4477,3.4943,3.5428,3.5435,3.525,3.5498,3.56,3.56,3.56,3.5278,3.4979,3.5447,3.494,3.4286,3.4759,3.4556,3.4112,3.3863,3.4134,3.4015,3.207,3.1599,3.0987,2.8738,2.8061,2.7706,2.6962,2.659,2.6624,2.7435,2.6116,2.4982,2.5235,2.422,2.3139,0.0,2.2296,2.2296,2.2296,2.2809,2.3498,2.4409,2.5916,2.7181,2.803,2.9046,3.0029,3.0962,3.2358,3.3656,3.4776,3.5334,3.5595,3.56,3.56,3.56,3.56,3.5599,3.5583,3.56,3.5599,3.5583,3.56,3.56,3.5599,3.5677,3.6768,3.7192,3.739,3.9348,4.011,4.0096,4.0096,4.0096,4.0096,2.2967,2.1978,2.1042,2.1141,2.2294,2.3984,2.63,2.8014,2.9735,3.1691,3.3311,3.5268,3.7894,3.8456,3.9241,4.0648,3.9626,3.8413,3.7298,3.5769,3.4881,3.4899,3.387,3.3469,3.3773,3.1337,2.9347,2.7883,2.5659,2.4557,2.4506,2.3797,2.4154,2.5457,2.6285,2.8298,3.114,3.1921,3.3541,3.56,3.56,3.5566,3.5537,3.5598,3.5125,3.459,3.5329,3.56,3.56,3.56,3.56,3.56,3.56,3.56,3.56,3.56,3.56,3.5447,3.4742,3.4539,3.4201,3.2767,3.2378,3.1785,2.9653,2.9702,3.0006,2.9264,2.8535,2.8652,3.07,2.818,2.5964,2.6539,2.4814,2.3139,2.2398,2.233,2.2364,2.2398,2.2431,2.297,2.4271,2.4525,2.5547,2.7861,2.8613,2.941,3.036,3.1813,3.2858,3.3385,3.4822,3.56,3.56,3.56,3.5673,3.5814,3.575,3.575,3.5825,3.5744,3.5677,3.5616,3.5594,3.5594,3.5825,3.8677,3.9978,4.0103,4.0088,4.011,4.0096,4.0096,4.0096,4.0096,2.3177,2.3704,2.4576,2.5731,2.5314,2.5401,2.7157,2.9458,3.2065,3.5092,3.7056,3.9161,4.1769,4.2148,4.2109,4.1908,4.1574,4.0749,3.9271,3.805,3.7453,3.7662,3.5903,3.5322,3.6173,3.2807,3.0843,3.0451,2.7153,2.5251,2.472,2.4381,2.3833,2.3226,2.5052,2.7249,2.9653,3.0956,3.3085,3.56,3.56,3.5272,3.4842,3.5384,3.5125,3.459,3.5329,3.56,3.56,3.56,3.56,3.56,3.56,3.56,3.56,3.56,3.56,3.5549,3.5363,3.5312,3.5115,3.4167,3.3508,3.2831,3.1718,3.1599,3.1532,3.0804,3.0922,3.0821,2.9771,2.879,2.7621,2.6133,2.4492,2.3139,2.2398,2.2784,2.3325,2.3881,2.4425,2.4272,2.2987,2.4847,2.6387,2.7008,2.8261,2.9816,3.1685,3.1648,3.2137,3.3367,3.4823,3.56,3.56,3.56,3.6741,3.894,3.7837,3.7887,3.8914,3.7807,3.669,3.5597,3.5609,3.5606,3.5673,3.6432,3.8066,4.0102,4.0103,4.0087,4.0096,4.0096,4.0096,4.0096,2.5138,2.6384,2.7631,2.8122,2.8453,2.893,2.9796,3.1101,3.3158,3.6381,3.832,4.0124,4.206,4.3005,4.3331,4.2855,4.2506,4.1557,3.9845,3.9264,3.87,3.8021,3.7296,3.7189,3.7789,3.5157,3.3171,3.1961,2.9006,2.6724,2.5154,2.5028,2.4372,2.3342,2.5236,2.7165,2.9162,3.1616,3.3592,3.5165,3.5464,3.5351,0.0,3.5436,3.5329,3.5047,3.5447,3.56,3.56,3.56,3.56,3.565,3.6011,3.6129,3.6197,3.6495,3.6383,3.6129,3.6129,3.5876,3.5498,3.5081,3.4675,3.4083,3.3017,3.278,3.2645,3.2239,3.1968,3.1836,3.1884,3.0023,2.774,2.5473,2.4423,2.3746,2.3325,2.3613,2.4034,2.444,2.488,2.4492,2.2936,2.5152,2.6691,2.6691,2.7791,2.9025,3.026,3.1718,3.2876,3.3723,3.5593,3.6282,3.56,3.6259,3.7449,3.9141,3.8948,3.9307,4.0042,3.8581,3.7425,3.6574,3.5907,3.6364,3.7574,3.758,3.8587,4.0094,4.0104,4.0096,4.0096,4.0096,4.0096,4.0096,2.7736,2.907,2.9913,2.9316,3.1276,3.3082,3.3418,3.3398,3.4301,3.6955,3.8685,4.0039,4.0974,4.2514,4.3515,4.3515,4.2855,4.1725,3.9989,3.9989,3.9289,3.753,3.8251,3.8707,3.8707,3.7312,3.5365,3.2873,3.0706,2.8265,2.5641,2.5609,2.5152,2.4423,2.5912,2.7571,2.9517,3.3038,3.4607,3.4866,3.5509,3.5757,3.5735,3.5633,3.56,3.56,3.56,3.5667,3.5752,3.5752,3.5819,3.6005,3.6626,3.6795,3.6931,3.7567,3.7297,3.6829,3.6931,3.6434,3.587,3.5769,3.5752,3.538,3.4015,3.3694,3.3694,3.3694,3.2679,3.251,3.4873,3.1441,2.7519,2.5303,2.51,2.5202,2.51,2.5168,2.5168,2.4965,2.5117,0.0,2.3646,2.5372,2.6522,2.642,2.7012,2.7621,2.8213,3.1598,3.3768,3.4367,3.6478,3.7149,3.6203,3.7276,3.7916,3.8189,3.9409,4.0002,4.0062,3.8778,3.8136,3.7897,3.6508,3.7276,3.9553,3.9941,4.0099,4.0092,4.0095,4.0096,4.0096,4.0096,4.0096,4.0096,2.8667,2.9457,3.0246,3.072,3.2462,3.4522,3.6676,3.7746,3.8749,3.9869,4.1607,4.2789,4.2987,4.3297,4.3515,4.3515,4.3369,4.2856,4.1869,4.1225,4.0453,3.9449,3.8949,3.8707,3.8707,3.6589,3.4947,3.3856,3.0784,2.8117,2.5829,2.5672,2.4881,2.3661,2.5135,2.7655,3.097,3.344,3.5238,3.6406,3.6525,3.6588,3.6502,3.5836,3.56,3.56,3.56,3.6028,3.6592,3.6592,3.6992,3.7432,3.6965,3.6795,3.6829,3.6965,3.6897,3.6931,3.7533,3.7601,3.7364,3.6738,3.6592,3.6349,3.5414,3.5211,3.5211,3.5211,3.5008,3.4619,3.3914,3.2053,2.9871,2.7587,2.8298,2.8907,2.8299,2.8738,2.8653,2.7367,2.8349,2.7858,2.4626,2.5203,2.5541,2.4931,2.5015,2.6708,3.0412,3.0148,3.1594,3.5232,3.5785,3.7075,3.9279,3.7933,3.8065,3.9698,3.9348,3.9502,4.0086,3.9833,3.9259,3.8432,3.7777,3.7094,3.6586,3.9075,4.0112,4.0112,4.0096,4.0096,4.0096,4.0096,4.0096,4.0096,3.1283,3.1598,3.2281,3.3599,3.5044,3.6783,3.9007,4.0645,4.1404,4.0792,4.148,4.206,4.206,4.2932,4.3515,4.3515,4.3515,4.3149,4.2359,4.1937,4.1049,3.9554,3.9119,3.8584,3.793,3.6809,3.5421,3.3738,3.162,2.899,2.5908,2.6095,2.5169,2.3511,2.6167,2.8789,3.136,3.3981,3.5735,3.6831,3.7216,3.7363,3.7346,3.6948,3.6783,3.6783,3.6783,3.7297,3.7804,3.7066,3.728,3.7905,3.7922,3.7946,3.8031,3.8403,3.8251,3.8031,3.8362,3.8193,3.7821,3.7449,3.7364,3.7161,3.64,3.6214,3.6096,3.5684,3.56,3.5143,3.3677,3.2188,3.0835,2.9753,2.955,2.9668,3.0093,3.0446,3.0395,2.9651,2.955,2.8653,2.6437,2.5943,2.5585,2.5117,2.5067,2.6691,3.0429,2.9956,3.1072,3.4349,3.5622,3.6724,3.7758,3.7986,3.8367,3.8957,3.9376,3.9757,4.0096,3.9706,3.9183,3.8569,3.8095,3.702,3.5819,3.8849,4.0096,4.0096,4.0096,4.0096,4.0096,4.0096,4.0096,4.0096,3.4058,3.4093,3.4624,3.6346,3.7683,3.899,4.0467,4.2278,4.2969,4.148,4.1299,4.1299,4.1299,4.2606,4.3515,4.3515,4.3515,4.3222,4.2598,4.2396,4.1565,3.9838,3.9621,3.8976,3.781,3.7664,3.6324,3.3723,3.2667,3.0145,2.6308,2.6571,2.5963,2.4729,2.8011,3.0465,3.229,3.4798,3.6395,3.7319,3.7912,3.8132,3.8116,3.7956,3.7898,3.7905,3.7905,3.8379,3.8819,3.7675,3.7753,3.8447,3.887,3.8988,3.9106,3.9706,3.9445,3.9022,3.9174,3.8802,3.8328,3.8176,3.8142,3.7939,3.7218,3.7032,3.6806,3.6028,3.5718,3.5143,3.3677,3.2713,3.2036,3.1715,3.0954,3.0801,3.1968,3.2138,3.1952,3.1478,3.055,2.9431,2.8197,2.7284,2.667,2.6386,2.608,2.7063,2.9719,3.0004,3.1123,3.3339,3.5131,3.591,3.56,3.7719,3.8633,3.8379,3.9529,4.0096,4.0079,3.9503,3.9116,3.8897,3.8529,3.7668,3.6754,3.9118,4.0096,4.0096,4.0096,4.0096,4.0096,4.0096,4.0096,4.0096,3.5847,3.6043,3.6399,3.7539,3.9224,4.0503,4.0666,4.2278,4.3442,4.326,4.3242,4.3242,4.3242,4.3387,4.3515,4.3515,4.3515,4.3478,4.3404,4.269,4.2214,4.2016,4.1302,4.0516,3.966,3.9168,3.7541,3.4747,3.3579,3.1144,2.7622,2.6996,2.7351,2.8553,3.0226,3.256,3.525,3.6259,3.7494,3.8809,3.889,3.8898,3.8802,3.8156,3.7911,3.7905,3.7905,3.8379,3.8971,3.8836,3.9276,3.9791,3.9174,3.8988,3.9005,3.9073,3.9039,3.914,3.9825,3.996,3.974,3.9056,3.8886,3.87,3.7973,3.7804,3.7584,3.6846,3.6113,3.5143,3.3677,3.4366,3.4737,3.3423,3.4218,3.5025,3.516,3.5194,3.4433,3.2446,3.2662,3.1901,2.9162,2.9382,2.9471,2.8918,2.7623,2.7521,2.901,2.9736,3.1123,3.3339,3.3609,3.4315,3.5583,3.7212,3.8633,3.991,4.0028,4.0096,4.0096,4.0028,3.9994,3.9977,3.9901,3.9809,3.9699,3.9986,4.0096,4.0096,4.0096,4.0096,4.0096,4.0096,4.0096,4.0096,3.8563,3.8277,3.8474,4.0039,4.0524,4.1082,4.2223,4.3005,4.3515,4.3515,4.3515,4.3515,4.3515,4.3515,4.3515,4.3515,4.3515,4.3515,4.3515,4.3185,4.266,4.185,4.1197,4.0123,3.8553,3.8438,3.7443,3.5503,3.4026,3.2164,3.0005,2.9588,3.0192,3.1715,3.3186,3.4752,3.639,3.7613,3.8737,3.9648,3.9665,3.9648,3.9639,3.9327,3.9217,3.9208,3.9208,3.9419,3.9673,3.9673,3.9859,4.0045,3.9757,3.9673,3.9673,3.9673,3.9673,3.9723,4.0028,4.0096,4.0028,3.974,3.9673,3.9486,3.8717,3.8565,3.8345,3.7601,3.684,3.6129,3.5537,3.481,3.4366,3.467,3.4467,3.4585,3.5481,3.56,3.5261,3.4387,3.3761,3.2949,3.1765,3.1186,3.0732,3.0423,2.9033,2.866,2.9713,3.0825,3.2019,3.3372,3.4247,3.525,3.6299,3.7381,3.8413,3.9453,3.9893,4.0096,4.0096,4.0096,4.0096,4.0096,4.0096,4.0096,4.0096,4.0096,4.0096,4.0096,4.0096,4.0096,4.0096,4.0096,4.0096,4.0096,4.0618,4.0275,4.0456,4.2067,4.19,4.1969,4.3297,4.3515,4.3515,4.3515,4.3515,4.3515,4.3515,4.3515,4.3515,4.3515,4.3515,4.3515,4.3515,4.3515,4.3082,4.2141,4.1734,4.0721,3.9031,3.9108,3.8456,3.6947,3.5566,3.4127,3.2695,3.2334,3.2966,3.4455,3.5701,3.6824,3.784,3.889,3.9613,4.0096,4.0096,4.0096,4.0096,4.0096,4.0096,4.0096,4.0096,4.0096,4.0096,4.0096,4.0096,4.0096,4.0096,4.0096,4.0096,4.0096,4.0096,4.0096,4.0096,4.0096,4.0096,4.0096,4.0096,3.996,3.9453,3.9309,3.9106,3.8379,3.7635,3.711,3.711,3.5622,3.4742,3.5791,3.4895,3.4399,3.5447,3.56,3.5453,3.5096,3.407,3.3427,3.3469,3.2584,3.189,3.1588,3.1176,3.1009,3.1191,3.2113,3.2848,3.3389,3.4624,3.5656,3.6434,3.7635,3.8582,3.9326,3.9859,4.0096,4.0096,4.0096,4.0096,4.0096,4.0096,4.0096,4.0096,4.0096,4.0096,4.0096,4.0096,4.0096,4.0096,4.0096,4.0096,4.0096,4.1669,4.1868,4.2212,4.3298,4.3461,4.3461,4.3515,4.3515,4.3515,4.3515,4.3515,4.3515,4.3515,4.3515,4.3515,4.3515,4.3515,4.3515,4.3515,4.3515,4.3496,4.3479,4.3479,4.3076,4.2269,4.2252,4.1324,3.9474,3.8715,3.7382,3.5515,3.4793,3.5289,3.6795,3.7533,3.8684,4.0062,4.0079,4.0096,4.0096,4.0096,4.0096,4.0096,4.0096,4.0096,4.0096,4.0096,4.0096,4.0096,4.0096,4.0096,4.0096,4.0096,4.0096,4.0096,4.0096,4.0096,4.0096,4.0096,4.0096,4.0096,4.0096,4.0096,4.0096,4.0096,4.0096,3.9893,3.914,3.8396,3.7889,3.7889,3.7263,3.6761,3.6778,3.6096,3.5583,3.56,3.56,3.5125,3.386,3.3528,3.3469,3.3673,3.3494,3.3126,3.2522,3.4367,3.489,3.344,3.3389,3.3389,3.3406,3.4117,3.4861,3.56,3.7855,3.9368,4.0096,4.0096,4.0096,4.0096,4.0096,4.0096,4.0096,4.0096,4.0096,4.0096,4.0096,4.0096,4.0096,4.0096,4.0096,4.0096,4.0096,4.0096,4.0096,4.2918,4.299,4.3099,4.3442,4.3515,4.3515,4.3515,4.3515,4.3515,4.3515,4.3515,4.3515,4.3515,4.3515,4.3515,4.3515,4.3515,4.3515,4.3515,4.3515,4.3515,4.3515,4.2753,4.1988,4.1238,4.0944,4.0255,3.9158,3.8419,3.7735,3.7178,3.6941,3.7618,3.9063,3.93,3.9673,4.0096,4.0096,4.0096,4.0096,4.0096,4.0096,4.0096,4.0096,4.0096,4.0096,4.0096,4.0096,4.0096,4.0096,4.0096,4.0096,4.0096,4.0096,4.0096,4.0096,4.0096,4.0096,4.0096,4.0096,4.0096,4.0096,4.0096,4.0096,4.0096,4.0096,4.0028,3.9808,3.9157,3.865,3.865,3.8041,3.755,3.755,3.6907,3.6417,3.6417,3.596,3.5453,3.5028,3.4934,3.4912,3.4994,3.4934,3.4672,3.4112,3.4227,3.342,3.1378,3.4113,3.5255,3.4184,3.5893,3.7178,3.7905,3.8633,3.9385,4.0096,4.0096,4.0096,4.0096,4.0096,4.0096,4.0096,4.0096,4.0096,4.0096,4.0096,4.0096,4.0096,4.0096,4.0096,4.0096,4.0096,4.0096,4.0096,4.3883,4.3699,4.3515,4.3515,4.3515,4.3515,4.3515,4.3515,4.3515,4.3515,4.3515,4.3515,4.3515,4.3515,4.3515,4.3515,4.3515,4.3515,4.3515,4.3303,4.3196,4.3196,4.2286,4.1584,4.1126,4.0878,4.0394,3.971,3.9042,3.8717,3.8717,3.8717,3.9208,4.0096,4.0096,4.0096,4.0096,4.0096,4.0096,4.0096,4.0096,4.0096,4.0096,4.0096,4.0096,4.0096,4.0096,4.0096,4.0096,4.0096,4.0096,4.0096,4.0096,4.0096,4.0096,4.0096,4.0096,4.0096,4.0096,4.0096,4.0096,4.0096,4.0096,4.0096,4.0096,4.0096,4.0096,4.0096,3.974,3.9394,3.9394,3.8802,3.8311,3.8311,3.7686,3.7134,3.6846,3.6603,3.6163,3.5384,3.5475,3.5622,3.5711,3.5644,3.5599,3.554,3.5392,3.4542,3.2839,3.4834,3.596,3.5774,3.7432,3.8531,3.8988,3.9259,3.9656,4.0096,4.0096,4.0096,4.0096,4.0096,4.0096,4.0096,4.0096,4.0096,4.0096,4.0096,4.0096,4.0096,4.0096,4.0096,4.0096,4.0096,4.0096,4.0096,4.4635,4.414,4.3588,4.3588,4.3588,4.3552,4.3515,4.3515,4.3515,4.3515,4.3515,4.3515,4.3515,4.3515,4.3515,4.3515,4.3515,4.3515,4.3515,4.3032,4.2769,4.2769,4.2183,4.1874,4.1874,4.1789,4.1446,4.0833,4.0343,4.0096,4.0096,4.0096,4.0096,4.0096,4.0096,4.0096,4.0096,4.0096,4.0096,4.0096,4.0096,4.0096,4.0096,4.0096,4.0096,4.0096,4.0096,4.0096,4.0096,4.0096,4.0096,4.0096,4.0096,4.0096,4.0096,4.0096,4.0096,4.0096,4.0096,4.0096,4.0096,4.0096,4.0096,4.0096,4.0096,4.0096,4.0096,4.0096,4.0096,4.0096,4.0096,3.9554,3.9056,3.9005,3.8379,3.7652,3.6914,3.7381,3.7106,3.5163,3.5423,3.5819,3.6014,3.5881,3.6028,3.67,3.7371,3.7489,3.6852,3.563,3.5885,3.7905,3.8684,3.9073,3.9073,3.9757,4.0096,4.0096,4.0096,4.0096,4.0096,4.0096,4.0096,4.0096,4.0096,4.0096,4.0096,4.0096,4.0096,4.0096,4.0096,4.0096,4.0096,4.0096,4.0096,4.0096,4.5461,4.4966,4.4415,4.4415,4.4415,4.4213,4.3589,4.3515,4.3515,4.3515,4.3515,4.3515,4.3515,4.3515,4.3515,4.3515,4.3515,4.3515,4.3515,4.3392,4.3303,4.3303,4.2789,4.248,4.248,4.1578,4.0827,4.0286,4.0171,4.0096,4.0096,4.0096,4.0096,4.0096,4.0096,4.0096,4.0096,4.0096,4.0096,4.0096,4.0096,4.0096,4.0096,4.0096,4.0096,4.0096,4.0096,4.0096,4.0096,4.0096,4.0096,4.0096,4.0096,4.0096,4.0096,4.0096,4.0096,4.0096,4.0096,4.0096,4.0096,4.0096,4.0096,4.0096,4.0096,4.0096,4.0096,4.0096,4.0096,4.0096,4.0096,3.996,3.9673,3.9089,3.8379,3.7652,3.6914,3.6965,3.688,3.6384,3.6931,3.7364,3.7411,3.7388,3.7005,3.6179,3.6264,3.6537,3.6933,3.665,3.716,3.8684,3.9469,3.9842,3.9842,4.0011,4.0096,4.0096,4.0096,4.0096,4.0096,4.0096,4.0096,4.0096,4.0096,4.0096,4.0096,4.0096,4.0096,4.0096,4.0096,4.0096,4.0096,4.0096,4.0096,4.0096,4.6305,4.581,4.5131,4.4746,4.5002,4.4856,4.368,4.3809,4.392,4.3551,4.3515,4.3626,4.4011,4.4048,4.4195,4.4562,4.392,4.3515,4.3515,4.3268,4.3014,4.2734,4.2185,4.1768,4.1525,4.0868,4.0392,4.0096,4.0096,4.0096,4.0096,4.0096,4.0096,4.0096,4.0096,4.0096,4.0096,4.0096,4.0096,4.0096,4.0096,4.0096,4.0096,4.0096,4.0096,4.0096,4.0096,4.0096,4.0096,4.0096,4.0096,4.0096,4.0096,4.0096,4.0096,4.0096,4.0096,4.0096,4.0096,4.0096,4.0096,4.0096,4.0096,4.0096,4.0096,4.0096,4.0096,4.0096,4.0096,4.0096,4.0096,4.0096,3.9977,3.9571,3.8696,3.799,3.7828,3.7594,3.7515,3.7777,3.8447,3.8903,3.8903,3.8903,3.8461,3.7403,3.7647,3.7851,3.7919,3.8241,3.8754,3.9486,3.9893,4.0096,4.0096,4.0096,4.0096,4.0096,4.0096,4.0096,4.0096,4.0096,4.0096,4.0096,4.0096,4.0096,4.0096,4.0096,4.0096,4.0096,4.0096,4.0096,4.0096,4.0096,4.0096,4.0096,4.7113,4.6636,4.5865,4.5168,4.5626,4.5571,4.4102,4.4433,4.4635,4.3938,4.3846,4.4121,4.4819,4.4892,4.5168,4.5847,4.4635,4.3809,4.3681,4.3142,4.2559,4.1958,4.1446,4.092,4.036,4.0279,4.0179,4.0096,4.0096,4.0096,4.0096,4.0096,4.0096,4.0096,4.0096,4.0096,4.0096,4.0096,4.0096,4.0096,4.0096,4.0096,4.0096,4.0096,4.0096,4.0096,4.0096,4.0096,4.0096,4.0096,4.0096,4.0096,4.0096,4.0096,4.0096,4.0096,4.0096,4.0096,4.0096,4.0096,4.0096,4.0096,4.0096,4.0096,4.0096,4.0096,4.0096,4.0096,4.0096,4.0096,4.0096,4.0096,3.9994,3.9681,3.8911,3.8357,3.8502,3.8418,3.8493,3.8945,3.9656,4.0096,4.0096,4.0096,3.9842,3.9208,3.9757,3.9842,3.9191,3.9757,4.0096,4.0096,4.0096,4.0096,4.0096,4.0096,4.0096,4.0096,4.0096,4.0096,4.0096,4.0096,4.0096,4.0096,4.0096,4.0096,4.0096,4.0096,4.0096,4.0096,4.0096,4.0096,4.0096,4.0096,4.0096,4.0096,4.7976,4.7461,4.6874,4.6746,4.6819,4.6599,4.5663,4.5626,4.5663,4.5535,4.5535,4.5571,4.57,4.5718,4.5755,4.5883,4.5663,4.5241,4.4562,4.3794,4.3124,4.2578,4.248,4.2142,4.1552,4.1036,4.0552,4.0096,4.0096,4.0096,4.0096,4.0096,4.0096,4.0096,4.0096,4.0096,4.0096,4.0096,4.0096,4.0096,4.0096,4.0096,4.0096,4.0096,4.0096,4.0096,4.0096,4.0096,4.0096,4.0096,4.0096,4.0096,4.0096,4.0096,4.0096,4.0096,4.0096,4.0096,4.0096,4.0096,4.0096,4.0096,4.0096,4.0096,4.0096,4.0096,4.0096,4.0096,4.0096,4.0096,4.0096,4.0096,3.9536,3.7836,3.8303,3.8272,3.6616,3.781,3.8918,3.8988,3.9656,4.0096,4.0096,4.0096,4.0045,3.9943,4.0045,4.0045,3.9943,4.0045,4.0096,4.0096,4.0096,4.0096,4.0096,4.0096,4.0096,4.0096,4.0096,4.0096,4.0096,4.0096,4.0096,4.0096,4.0096,4.0096,4.0096,4.0096,4.0096,4.0096,4.0096,4.0096,4.0096,4.0096,4.0096,4.0096,4.8233,4.8012,4.7608,4.7186,4.7461,4.7333,4.6085,4.6269,4.6397,4.5957,4.5902,4.6067,4.6507,4.6562,4.6728,4.715,4.6801,4.6214,4.5406,4.4599,4.3707,4.2749,4.2711,4.2282,4.1335,4.1041,4.0631,4.0096,4.0096,4.0096,4.0096,4.0096,4.0096,4.0096,4.0096,4.0096,4.0096,4.0096,4.0096,4.0121,4.04,4.0528,4.0552,4.0891,4.1007,4.1007,4.1007,4.1007,4.0961,4.0648,4.0528,4.0473,4.0179,4.0096,4.0096,4.0096,4.0096,4.0096,4.0096,4.0096,4.0096,4.0096,4.0096,4.0096,4.0096,4.0096,4.0096,4.0096,4.0096,4.0096,4.0096,4.0096,3.9799,3.888,3.8632,3.8462,3.8207,3.8394,3.8829,3.9503,3.9893,4.0096,4.0096,4.0096,4.0096,4.0096,4.0096,4.0096,4.0096,4.0096,4.0096,4.0096,4.0096,4.0096,4.0096,4.0096,4.0096,4.0096,4.0096,4.0096,4.0096,4.0096,4.0096,4.0096,4.0096,4.0096,4.0096,4.0096,4.0096,4.0096,4.0096,4.0088,4.0087,4.0087,4.0103,4.0109,4.8306,4.8306,4.8122,4.748,4.7902,4.7884,4.6654,4.6966,4.7149,4.6544,4.6452,4.6691,4.7296,4.7369,4.7626,4.8251,4.7736,4.7039,4.6232,4.5608,4.4492,4.2767,4.2577,4.1979,4.0926,4.0903,4.0631,4.0096,4.0096,4.0096,4.0096,4.0096,4.0096,4.0096,4.0096,4.0096,4.0096,4.0096,4.0096,4.0146,4.0679,4.0903,4.0972,4.1578,4.181,4.181,4.181,4.181,4.1729,4.1268,4.111,4.1041,4.0642,4.049,4.049,4.049,4.041,4.0262,4.0146,4.0096,4.0096,4.0096,4.0179,4.0237,4.0121,4.0286,4.0466,4.0311,4.041,4.0441,4.0311,4.0286,4.016,3.9713,3.9098,3.8884,3.9544,3.9081,3.8996,3.9985,4.0096,4.0146,4.0262,4.0154,4.0146,4.0286,4.0154,4.0096,4.0096,4.0096,4.0096,4.0096,4.0096,4.0096,4.0096,4.0096,4.0096,4.0096,4.0096,4.0096,4.0096,4.0096,4.0096,4.0096,4.0096,4.0096,4.0096,4.0096,4.0096,4.0096,4.0096,4.0231,4.0516,4.0983,4.1141,4.1134,4.8306,4.8306,4.8288,4.8233,4.8269,4.8269,4.8141,4.8177,4.8196,4.8141,4.8122,4.8159,4.8214,4.8214,4.8251,4.8306,4.8251,4.7884,4.7058,4.6947,4.5661,4.2821,4.2162,4.1556,4.0903,4.0903,4.0631,4.0096,4.0096,4.0096,4.0096,4.0096,4.0096,4.0096,4.0096,4.0096,4.0096,4.0096,4.0096,4.0146,4.0679,4.0903,4.0972,4.1578,4.181,4.181,4.181,4.181,4.1793,4.175,4.1729,4.1746,4.1703,4.1664,4.1664,4.1664,4.1268,4.0733,4.0229,4.0096,4.0096,4.0096,4.0473,4.0726,4.0204,4.0932,4.1512,4.0949,4.1291,4.149,4.0926,4.0833,4.0284,3.86,3.9236,3.9578,3.8495,3.927,4.0002,4.0096,4.0096,4.0286,4.0803,4.0392,4.0311,4.0803,4.0368,4.0096,4.0096,4.0096,4.0096,4.0096,4.0096,4.0096,4.0096,4.0096,4.0096,4.0096,4.0096,4.0096,4.0096,4.0096,4.0096,4.0096,4.0096,4.0096,4.0096,4.0096,4.0096,4.0096,4.0096,4.068,4.1723,4.358,4.4284,4.4263,4.8306,4.8306,4.8306,4.8306,4.8306,4.8306,4.8306,4.8306,4.8306,4.8306,4.8306,4.8306,4.8306,4.8306,4.8306,4.8306,4.8306,4.7957,4.7149,4.7094,4.6158,4.4035,4.3397,4.2582,4.1468,4.1087,4.0631,4.0096,4.0096,4.0096,4.0096,4.0096,4.0096,4.0096,4.0096,4.0096,4.0096,4.0096,4.0286,4.0648,4.1223,4.1686,4.2062,4.2639,4.2847,4.2847,4.2847,4.2847,4.2791,4.2462,4.2362,4.2302,4.1916,4.181,4.181,4.181,4.1643,4.1424,4.1218,4.0891,4.0601,4.0601,4.0733,4.0949,4.1105,4.1196,4.1273,4.1424,4.1643,4.1729,4.1512,4.1468,4.1231,4.0556,4.051,4.0418,3.9945,4.0002,4.0096,4.0096,4.0096,4.0311,4.085,4.0726,4.0844,4.1424,4.1263,4.1007,4.0625,4.0286,4.0096,4.0096,4.0096,4.0096,4.0096,4.0096,4.0096,4.0096,4.0096,4.0096,4.013,4.0561,4.0527,4.013,4.0578,4.051,4.0146,4.0578,4.0781,4.0832,4.1271,4.1504,4.1769,4.3165,4.4055,4.4589,4.8306,4.8306,4.8306,4.8306,4.8306,4.8306,4.8306,4.8306,4.8306,4.8306,4.8306,4.8306,4.8306,4.8306,4.8306,4.8306,4.8306,4.8086,4.7498,4.748,4.6636,4.4764,4.394,4.3077,4.2101,4.149,4.1006,4.0627,4.0621,4.0621,4.0627,4.0638,4.0634,4.0642,4.0642,4.0642,4.0642,4.0642,4.0844,4.1246,4.1853,4.2322,4.2769,4.3304,4.3515,4.3515,4.3515,4.3515,4.3444,4.3087,4.2958,4.2865,4.2464,4.2327,4.2327,4.2327,4.2206,4.2062,4.2062,4.1789,4.1424,4.1246,4.1335,4.1534,4.175,4.1771,4.1796,4.2021,4.2223,4.2286,4.2103,4.2062,4.2021,4.1832,4.1446,4.1161,4.1161,4.0868,4.0546,4.0368,4.0538,4.0791,4.1155,4.1161,4.1446,4.2038,4.1729,4.1335,4.0926,4.0392,4.0196,4.036,4.0179,4.0298,4.0743,4.0552,4.0468,4.0468,4.0688,4.0807,4.0823,4.1305,4.1255,4.0823,4.1322,4.1255,4.084,4.1339,4.1542,4.1593,4.21,4.2237,4.2259,4.2945,4.3798,4.4615,4.8324,4.8324,4.8306,4.8324,4.8306,4.8306,4.8306,4.8306,4.8306,4.8306,4.8306,4.8306,4.8306,4.8324,4.8324,4.8306,4.8324,4.8324,4.8306,4.8306,4.7223,4.4801,4.343,4.2711,4.2711,4.2108,4.1786,4.1808,4.1801,4.1801,4.1791,4.1801,4.18,4.181,4.181,4.181,4.181,4.181,4.1793,4.1874,4.246,4.2693,4.2769,4.3286,4.3515,4.3515,4.3515,4.3515,4.3515,4.3515,4.3515,4.3515,4.3515,4.3515,4.3515,4.3515,4.3124,4.2711,4.2711,4.2711,4.2559,4.1958,4.2262,4.2539,4.1958,4.2678,4.3339,4.2826,4.3142,4.3339,4.2789,4.2711,4.25,4.1916,4.181,4.181,4.181,4.1793,4.1578,4.0972,4.1446,4.181,4.181,4.181,4.2059,4.2655,4.1599,4.0903,4.0903,4.0417,4.0343,4.088,4.0392,4.0785,4.2187,4.1528,4.1221,4.1221,4.1948,4.2286,4.2286,4.2303,4.2303,4.2286,4.2303,4.2303,4.2313,4.2313,4.233,4.2313,4.233,4.2787,4.342,4.342,4.3938,4.4598,4.9829,4.9114,4.8489,4.9095,4.871,4.8306,4.8306,4.8306,4.8306,4.8306,4.8306,4.8306,4.8306,4.8838,4.8967,4.8361,4.8857,4.8948,4.8343,4.7241,4.6287,4.5571,4.4813,4.3864,4.2717,4.2118,4.1793,4.1784,4.1801,4.1798,4.1804,4.1798,4.1806,4.181,4.181,4.181,4.181,4.181,4.2041,4.246,4.2635,4.292,4.3268,4.3444,4.3515,4.3515,4.3515,4.3515,4.3515,4.3515,4.3515,4.3515,4.3515,4.3515,4.3515,4.3515,4.3392,4.325,4.325,4.325,4.3124,4.2578,4.2577,4.2751,4.2958,4.2958,4.2995,4.3214,4.3392,4.3444,4.3286,4.325,4.3196,4.3032,4.2694,4.244,4.244,4.208,4.1729,4.1556,4.1686,4.1958,4.2382,4.244,4.2656,4.3214,4.258,4.2162,4.2162,4.1617,4.1375,4.1534,4.1375,4.148,4.1926,4.1437,4.1699,4.2684,4.2431,4.2286,4.2303,4.2844,4.2794,4.232,4.2861,4.3053,4.3045,4.3562,4.4029,4.4463,4.4981,4.5306,4.5516,4.5516,4.5673,4.5865,5.0123,4.9224,4.8471,4.8985,4.8655,4.8306,4.8306,4.8306,4.8306,4.8306,4.8306,4.8434,4.8783,4.9242,4.9481,4.9297,4.9462,4.9224,4.8361,4.7388,4.6709,4.6397,4.6061,4.4994,4.3046,4.2448,4.2268,4.2483,4.2783,4.2789,4.2482,4.2796,4.2951,4.2933,4.2609,4.2825,4.3384,4.2735,4.2857,4.3468,4.3141,4.3214,4.3515,4.3515,4.3515,4.3515,4.3515,4.3515,4.3515,4.3515,4.3515,4.3515,4.3515,4.3515,4.3515,4.3515,4.3515,4.3515,4.3515,4.3515,4.3427,4.3105,4.3014,4.3178,4.383,4.3725,4.367,4.4325,4.4452,4.4452,4.4452,4.4452,4.4342,4.403,4.3689,4.3377,4.3068,4.2696,4.2386,4.2183,4.2327,4.2541,4.2692,4.2902,4.305,4.3178,4.2883,4.2711,4.2711,4.2427,4.2236,4.216,4.2221,4.2381,4.2647,4.2143,4.2462,4.3617,4.3519,4.3613,4.3923,4.4363,4.4354,4.394,4.4406,4.4566,4.4561,4.5016,4.5409,4.5781,4.6212,4.6407,4.6407,4.6407,4.6407,4.6407,4.9812,4.9114,4.8526,4.8526,4.8526,4.8526,4.8526,4.8471,4.8453,4.8526,4.8471,4.8746,4.961,4.9719,5.0013,5.0747,5.005,4.9224,4.8361,4.8233,4.7884,4.7131,4.7022,4.5956,4.3772,4.3248,4.3228,4.3717,4.4453,4.4416,4.3718,4.447,4.4801,4.4782,4.403,4.4488,4.57,4.4232,4.403,4.4654,4.3901,4.3625,4.3608,4.3698,4.3643,4.3515,4.3588,4.3552,4.3515,4.3515,4.3515,4.3515,4.3515,4.3515,4.3515,4.3515,4.3551,4.3625,4.3625,4.3662,4.3717,4.3717,4.3717,4.3883,4.4562,4.4746,4.5021,4.5755,4.5902,4.5902,4.5902,4.5902,4.5663,4.4947,4.4801,4.4562,4.3827,4.3717,4.3523,4.3044,4.3342,4.3431,4.2935,4.3324,4.3395,4.2916,4.295,4.295,4.2877,4.3125,4.3173,4.2986,4.3158,4.3516,4.4073,4.3474,4.3549,4.4303,4.4926,4.5623,4.6407,4.6407,4.6407,4.6407,4.6407,4.643,4.6501,4.6501,4.6524,4.6571,4.6571,4.6571,4.6571,4.6571,4.6571,4.6571,5.1373,5.082,5.027,5.027,5.027,5.027,5.027,4.9719,4.9536,5.0178,4.9701,4.9627,5.0453,5.1077,5.1279,5.0839,5.005,4.9224,4.8361,4.7719,4.7279,4.7114,4.6489,4.592,4.5388,4.526,4.526,4.5369,4.5553,4.5553,4.5369,4.5553,4.5645,4.5626,4.5461,4.5223,4.4947,4.4599,4.4544,4.4673,4.4525,4.4452,4.4507,4.5131,4.4599,4.3588,4.4213,4.403,4.3515,4.3515,4.3515,4.3515,4.3515,4.3515,4.3515,4.3515,4.3956,4.4452,4.4452,4.4892,4.5369,4.5369,4.5369,4.5259,4.48,4.5186,4.5681,4.5865,4.5902,4.5902,4.5902,4.5902,4.5847,4.5663,4.5645,4.5571,4.5406,4.5369,4.5333,4.5205,4.4747,4.438,4.4291,4.4362,4.438,4.4291,4.4839,4.4931,4.4291,4.4911,4.524,4.5224,4.524,4.5331,4.548,4.5331,4.5424,4.5731,4.5356,4.5623,4.6407,4.6407,4.6407,4.6407,4.6407,4.6687,4.7172,4.7172,4.747,4.7879,4.7879,4.7879,4.7879,4.7879,4.7879,4.7879,5.1426,5.1096,5.0545,4.9756,5.027,5.0674,5.0288,5.0196,5.0306,5.0747,5.0435,5.0472,5.1279,5.1738,5.1665,5.0875,5.005,4.9224,4.8361,4.7921,4.7664,4.7664,4.726,4.704,4.704,4.704,4.6672,4.5902,4.6287,4.6287,4.5902,4.6287,4.6471,4.6471,4.6067,4.6085,4.6379,4.5608,4.5498,4.581,4.5443,4.5278,4.5333,4.5736,4.5369,4.469,4.5131,4.5002,4.4635,4.4635,4.4635,4.4635,4.4635,4.4635,4.4635,4.4635,4.4929,4.5278,4.5278,4.5571,4.5902,4.5902,4.6195,4.6361,4.5938,4.6159,4.6581,4.6966,4.704,4.704,4.704,4.704,4.6929,4.6544,4.6471,4.6342,4.5957,4.5902,4.5902,4.5902,4.5535,4.5278,4.5278,4.5278,4.5278,4.5278,4.5663,4.5718,4.5296,4.6049,4.6305,4.5902,4.6269,4.6287,4.5902,4.5902,4.6157,4.6615,4.5879,4.5753,4.6185,4.6563,4.6744,4.6762,4.714,4.7512,4.7818,4.7818,4.8015,4.8306,4.8306,4.8306,4.8306,4.8306,4.8306,4.8306,5.1151,5.1114,5.0729,4.9205,5.0196,5.0986,5.0326,5.0655,5.1059,5.1187,5.1096,5.1316,5.2105,5.2197,5.1885,5.1077,5.04,4.9592,4.8581,4.8508,4.8472,4.8324,4.8306,4.8306,4.8306,4.8306,4.7644,4.6323,4.6984,4.6947,4.6324,4.6984,4.7314,4.7278,4.6617,4.6966,4.8012,4.6673,4.6489,4.7039,4.6379,4.6104,4.6122,4.6269,4.614,4.592,4.6067,4.6012,4.5902,4.5902,4.5902,4.5902,4.5902,4.5902,4.5902,4.5902,4.5993,4.6104,4.6104,4.6214,4.6305,4.6305,4.6819,4.7314,4.7314,4.7314,4.748,4.8159,4.8306,4.8306,4.8306,4.8306,4.8067,4.7406,4.7314,4.7058,4.6397,4.6305,4.6305,4.6305,4.6195,4.6104,4.6104,4.6104,4.6104,4.6104,4.6232,4.625,4.6104,4.6856,4.6984,4.6324,4.6966,4.6966,4.6324,4.6305,4.6581,4.7094,4.6434,4.6177,4.6324,4.6984,4.7314,4.7333,4.8012,4.8306,4.8306,4.8306,4.8306,4.8306,4.8306,4.8306,4.8306,4.8306,4.8306,4.8306,5.1995,5.2399,5.2582,5.1665,5.227,5.2858,5.2747,5.2215,5.2087,5.2784,5.227,5.2142,5.2968,5.3041,5.2711,5.1903,5.174,5.1006,4.9444,4.9393,4.9081,4.8324,4.8306,4.8306,4.8306,4.8306,4.8177,4.7975,4.8067,4.8086,4.7994,4.8104,4.8141,4.8141,4.8031,4.7719,4.7241,4.7021,4.7003,4.7094,4.6984,4.6929,4.7003,4.7719,4.7113,4.5993,4.6691,4.6489,4.5902,4.5902,4.5902,4.5902,4.5902,4.5902,4.5902,4.5902,4.6397,4.6929,4.6929,4.7443,4.7994,4.7994,4.8067,4.8141,4.8141,4.8141,4.8177,4.8288,4.8306,4.8306,4.8306,4.8306,4.8269,4.8159,4.8141,4.8104,4.7994,4.7994,4.7994,4.7994,4.7351,4.6929,4.6929,4.6929,4.6929,4.6929,4.7571,4.7663,4.6966,4.77,4.8104,4.7994,4.8086,4.8104,4.7994,4.7994,4.7682,4.7094,4.6984,4.7296,4.7994,4.8104,4.8141,4.8141,4.8251,4.8306,4.8306,4.8306,4.8306,4.8306,4.8306,4.8306,4.8306,4.8306,4.8306,4.8306,5.216,5.2656,5.2803,5.1555,5.238,5.3059,5.2601,5.2619,5.2803,5.3148,5.2894,5.2821,5.317,5.2803,5.238,5.2034,5.1593,5.0824,4.9632,5.0,4.9685,4.8361,4.8765,4.8802,4.8324,4.8306,4.8306,4.8306,4.8306,4.8306,4.8306,4.8306,4.8306,4.8306,4.8306,4.8104,4.7755,4.7755,4.7755,4.7755,4.7755,4.7755,4.781,4.8159,4.7865,4.7297,4.7626,4.7553,4.7241,4.7241,4.7241,4.7241,4.7241,4.7241,4.7241,4.7241,4.7498,4.7755,4.7755,4.8031,4.8306,4.8306,4.8306,4.8434,4.8912,4.8655,4.8306,4.8306,4.8306,4.8306,4.8306,4.8306,4.8306,4.8306,4.8306,4.8306,4.8306,4.8306,4.8306,4.8306,4.7975,4.7755,4.7755,4.7755,4.7755,4.7755,4.8104,4.8141,4.7791,4.8122,4.8306,4.8306,4.8306,4.8306,4.8306,4.8306,4.8122,4.7755,4.7755,4.7498,4.6966,4.7406,4.7626,4.7645,4.8104,4.8306,4.8306,4.8306,4.8306,4.8306,4.8306,4.8306,4.8306,4.8306,4.8306,4.8306]}]]